<?xml version="1.0" encoding="UTF-8" standalone="no" ?>
<gpx xmlns="http://www.topografix.com/GPX/1/1" xmlns:xsi="http://www.w3.org/2001/XMLSchema-instance" xsi:schemaLocation="http://www.topografix.com/GPX/1/1 http://www.topografix.com/GPX/1/1/gpx.xsd" version="1.1" creator="VisuGPX - https://www.visugpx.com">
  <metadata>
    <name>circuit 32kM</name>
    <desc><![CDATA[circuit randonnée vtt 32Km autour de Mensignac]]></desc>
  </metadata>
  <trk>
    <name><![CDATA[20181228115517-uvQmk]]></name>
    <trkseg>
      <trkpt lat="45.22576" lon="0.55947">
        <ele>190.8</ele>
      </trkpt>
      <trkpt lat="45.2256" lon="0.55895">
        <ele>187</ele>
      </trkpt>
      <trkpt lat="45.22553" lon="0.55872">
        <ele>185.9</ele>
      </trkpt>
      <trkpt lat="45.22547" lon="0.55848">
        <ele>185</ele>
      </trkpt>
      <trkpt lat="45.22523" lon="0.55826">
        <ele>182</ele>
      </trkpt>
      <trkpt lat="45.22486" lon="0.55785">
        <ele>178.4</ele>
      </trkpt>
      <trkpt lat="45.22473" lon="0.55761">
        <ele>178</ele>
      </trkpt>
      <trkpt lat="45.22467" lon="0.55721">
        <ele>174</ele>
      </trkpt>
      <trkpt lat="45.22461" lon="0.55675">
        <ele>172.7</ele>
      </trkpt>
      <trkpt lat="45.22448" lon="0.55613">
        <ele>170</ele>
      </trkpt>
      <trkpt lat="45.22444" lon="0.55576">
        <ele>169</ele>
      </trkpt>
      <trkpt lat="45.22433" lon="0.55498">
        <ele>167.6</ele>
      </trkpt>
      <trkpt lat="45.22426" lon="0.55462">
        <ele>168</ele>
      </trkpt>
      <trkpt lat="45.22428" lon="0.55404">
        <ele>169.9</ele>
      </trkpt>
      <trkpt lat="45.22428" lon="0.55396">
        <ele>170.2</ele>
      </trkpt>
      <trkpt lat="45.22431" lon="0.55371">
        <ele>171.3</ele>
      </trkpt>
      <trkpt lat="45.22431" lon="0.55321">
        <ele>174.9</ele>
      </trkpt>
      <trkpt lat="45.22429" lon="0.55276">
        <ele>175.8</ele>
      </trkpt>
      <trkpt lat="45.22429" lon="0.55255">
        <ele>177</ele>
      </trkpt>
      <trkpt lat="45.22426" lon="0.55232">
        <ele>177.1</ele>
      </trkpt>
      <trkpt lat="45.2243" lon="0.55206">
        <ele>177</ele>
      </trkpt>
      <trkpt lat="45.22429" lon="0.5518">
        <ele>177.6</ele>
      </trkpt>
      <trkpt lat="45.22426" lon="0.55125">
        <ele>177</ele>
      </trkpt>
      <trkpt lat="45.22427" lon="0.55105">
        <ele>178</ele>
      </trkpt>
      <trkpt lat="45.22422" lon="0.55084">
        <ele>178.5</ele>
      </trkpt>
      <trkpt lat="45.22421" lon="0.55031">
        <ele>184.19999694824</ele>
        <time>2018-06-26T06:32:39.000Z</time>
      </trkpt>
      <trkpt lat="45.22421" lon="0.5503">
        <ele>184</ele>
        <time>2018-06-26T06:32:40.000Z</time>
      </trkpt>
      <trkpt lat="45.22422" lon="0.55029">
        <ele>183.60000610352</ele>
        <time>2018-06-26T06:32:41.000Z</time>
      </trkpt>
      <trkpt lat="45.22423" lon="0.5502">
        <ele>175.8</ele>
      </trkpt>
      <trkpt lat="45.22424" lon="0.55022">
        <ele>183</ele>
        <time>2018-06-26T06:32:53.000Z</time>
      </trkpt>
      <trkpt lat="45.22427" lon="0.5501">
        <ele>175.8</ele>
      </trkpt>
      <trkpt lat="45.22427" lon="0.55">
        <ele>182.60000610352</ele>
        <time>2018-06-26T06:32:59.000Z</time>
      </trkpt>
      <trkpt lat="45.22431" lon="0.54963">
        <ele>182</ele>
        <time>2018-06-26T06:33:06.000Z</time>
      </trkpt>
      <trkpt lat="45.22432" lon="0.54957">
        <ele>181.80000305176</ele>
        <time>2018-06-26T06:33:07.000Z</time>
      </trkpt>
      <trkpt lat="45.22434" lon="0.54933">
        <ele>181.60000610352</ele>
        <time>2018-06-26T06:33:11.000Z</time>
      </trkpt>
      <trkpt lat="45.22435" lon="0.5492">
        <ele>181</ele>
        <time>2018-06-26T06:33:13.000Z</time>
      </trkpt>
      <trkpt lat="45.22442" lon="0.54861">
        <ele>180.60000610352</ele>
        <time>2018-06-26T06:33:22.000Z</time>
      </trkpt>
      <trkpt lat="45.22443" lon="0.54855">
        <ele>180.39999389648</ele>
        <time>2018-06-26T06:33:23.000Z</time>
      </trkpt>
      <trkpt lat="45.22446" lon="0.5483">
        <ele>179.80000305176</ele>
        <time>2018-06-26T06:33:27.000Z</time>
      </trkpt>
      <trkpt lat="45.22445" lon="0.54818">
        <ele>179.80000305176</ele>
        <time>2018-06-26T06:33:29.000Z</time>
      </trkpt>
      <trkpt lat="45.22442" lon="0.54805">
        <ele>179.60000610352</ele>
        <time>2018-06-26T06:33:31.000Z</time>
      </trkpt>
      <trkpt lat="45.22435" lon="0.54784">
        <ele>179.60000610352</ele>
        <time>2018-06-26T06:33:34.000Z</time>
      </trkpt>
      <trkpt lat="45.22432" lon="0.54778">
        <ele>179.39999389648</ele>
        <time>2018-06-26T06:33:35.000Z</time>
      </trkpt>
      <trkpt lat="45.22421" lon="0.54758">
        <ele>178.60000610352</ele>
        <time>2018-06-26T06:33:38.000Z</time>
      </trkpt>
      <trkpt lat="45.22414" lon="0.54746">
        <ele>178.19999694824</ele>
        <time>2018-06-26T06:33:40.000Z</time>
      </trkpt>
      <trkpt lat="45.22402" lon="0.54726">
        <ele>176.60000610352</ele>
        <time>2018-06-26T06:33:43.000Z</time>
      </trkpt>
      <trkpt lat="45.22387" lon="0.54703">
        <ele>175.39999389648</ele>
        <time>2018-06-26T06:33:46.000Z</time>
      </trkpt>
      <trkpt lat="45.22383" lon="0.54693">
        <ele>174.60000610352</ele>
        <time>2018-06-26T06:33:47.000Z</time>
      </trkpt>
      <trkpt lat="45.22381" lon="0.5468">
        <ele>174</ele>
        <time>2018-06-26T06:33:48.000Z</time>
      </trkpt>
      <trkpt lat="45.2238" lon="0.54667">
        <ele>173.19999694824</ele>
        <time>2018-06-26T06:33:49.000Z</time>
      </trkpt>
      <trkpt lat="45.22379" lon="0.54653">
        <ele>172.39999389648</ele>
        <time>2018-06-26T06:33:50.000Z</time>
      </trkpt>
      <trkpt lat="45.22381" lon="0.54628">
        <ele>171.39999389648</ele>
        <time>2018-06-26T06:33:52.000Z</time>
      </trkpt>
      <trkpt lat="45.22382" lon="0.54616">
        <ele>170.80000305176</ele>
        <time>2018-06-26T06:33:53.000Z</time>
      </trkpt>
      <trkpt lat="45.22386" lon="0.54595">
        <ele>170.19999694824</ele>
        <time>2018-06-26T06:33:55.000Z</time>
      </trkpt>
      <trkpt lat="45.22392" lon="0.54567">
        <ele>170</ele>
        <time>2018-06-26T06:33:58.000Z</time>
      </trkpt>
      <trkpt lat="45.22397" lon="0.54545">
        <ele>169.19999694824</ele>
        <time>2018-06-26T06:34:01.000Z</time>
      </trkpt>
      <trkpt lat="45.22401" lon="0.5453">
        <ele>168.80000305176</ele>
        <time>2018-06-26T06:34:03.000Z</time>
      </trkpt>
      <trkpt lat="45.2241" lon="0.54474">
        <ele>167.80000305176</ele>
        <time>2018-06-26T06:34:10.000Z</time>
      </trkpt>
      <trkpt lat="45.22405" lon="0.5444">
        <ele>166</ele>
        <time>2018-06-26T06:34:14.000Z</time>
      </trkpt>
      <trkpt lat="45.22403" lon="0.54397">
        <ele>165</ele>
        <time>2018-06-26T06:34:18.000Z</time>
      </trkpt>
      <trkpt lat="45.22401" lon="0.54375">
        <ele>164</ele>
        <time>2018-06-26T06:34:20.000Z</time>
      </trkpt>
      <trkpt lat="45.224" lon="0.54364">
        <ele>163.39999389648</ele>
        <time>2018-06-26T06:34:21.000Z</time>
      </trkpt>
      <trkpt lat="45.22396" lon="0.54343">
        <ele>162.19999694824</ele>
        <time>2018-06-26T06:34:23.000Z</time>
      </trkpt>
      <trkpt lat="45.2239" lon="0.54322">
        <ele>161</ele>
        <time>2018-06-26T06:34:25.000Z</time>
      </trkpt>
      <trkpt lat="45.22382" lon="0.54301">
        <ele>159.80000305176</ele>
        <time>2018-06-26T06:34:27.000Z</time>
      </trkpt>
      <trkpt lat="45.22373" lon="0.54278">
        <ele>158.39999389648</ele>
        <time>2018-06-26T06:34:29.000Z</time>
      </trkpt>
      <trkpt lat="45.2237" lon="0.54266">
        <ele>158</ele>
        <time>2018-06-26T06:34:30.000Z</time>
      </trkpt>
      <trkpt lat="45.22367" lon="0.54253">
        <ele>157.39999389648</ele>
        <time>2018-06-26T06:34:31.000Z</time>
      </trkpt>
      <trkpt lat="45.22364" lon="0.54239">
        <ele>156.80000305176</ele>
        <time>2018-06-26T06:34:32.000Z</time>
      </trkpt>
      <trkpt lat="45.2236" lon="0.54213">
        <ele>155.19999694824</ele>
        <time>2018-06-26T06:34:34.000Z</time>
      </trkpt>
      <trkpt lat="45.22359" lon="0.54201">
        <ele>154.39999389648</ele>
        <time>2018-06-26T06:34:35.000Z</time>
      </trkpt>
      <trkpt lat="45.22359" lon="0.54188">
        <ele>153.39999389648</ele>
        <time>2018-06-26T06:34:36.000Z</time>
      </trkpt>
      <trkpt lat="45.22359" lon="0.54165">
        <ele>152.39999389648</ele>
        <time>2018-06-26T06:34:38.000Z</time>
      </trkpt>
      <trkpt lat="45.22359" lon="0.54144">
        <ele>151.39999389648</ele>
        <time>2018-06-26T06:34:40.000Z</time>
      </trkpt>
      <trkpt lat="45.22355" lon="0.54096">
        <ele>150.39999389648</ele>
        <time>2018-06-26T06:34:45.000Z</time>
      </trkpt>
      <trkpt lat="45.2235" lon="0.54064">
        <ele>149.39999389648</ele>
        <time>2018-06-26T06:34:49.000Z</time>
      </trkpt>
      <trkpt lat="45.22343" lon="0.54032">
        <ele>149.19999694824</ele>
        <time>2018-06-26T06:34:53.000Z</time>
      </trkpt>
      <trkpt lat="45.22342" lon="0.54024">
        <ele>149.19999694824</ele>
        <time>2018-06-26T06:34:54.000Z</time>
      </trkpt>
      <trkpt lat="45.2234" lon="0.53998">
        <ele>149.60000610352</ele>
        <time>2018-06-26T06:34:58.000Z</time>
      </trkpt>
      <trkpt lat="45.22338" lon="0.5397">
        <ele>150.80000305176</ele>
        <time>2018-06-26T06:35:03.000Z</time>
      </trkpt>
      <trkpt lat="45.22337" lon="0.53955">
        <ele>151.80000305176</ele>
        <time>2018-06-26T06:35:06.000Z</time>
      </trkpt>
      <trkpt lat="45.22335" lon="0.53943">
        <ele>152.60000610352</ele>
        <time>2018-06-26T06:35:09.000Z</time>
      </trkpt>
      <trkpt lat="45.22333" lon="0.53939">
        <ele>152.80000305176</ele>
        <time>2018-06-26T06:35:10.000Z</time>
      </trkpt>
      <trkpt lat="45.2233" lon="0.53924">
        <ele>153.39999389648</ele>
        <time>2018-06-26T06:35:13.000Z</time>
      </trkpt>
      <trkpt lat="45.22325" lon="0.53882">
        <ele>153.80000305176</ele>
        <time>2018-06-26T06:35:20.000Z</time>
      </trkpt>
      <trkpt lat="45.22322" lon="0.5386">
        <ele>154</ele>
        <time>2018-06-26T06:35:24.000Z</time>
      </trkpt>
      <trkpt lat="45.22316" lon="0.53828">
        <ele>153.19999694824</ele>
        <time>2018-06-26T06:35:30.000Z</time>
      </trkpt>
      <trkpt lat="45.22313" lon="0.53811">
        <ele>152.80000305176</ele>
        <time>2018-06-26T06:35:33.000Z</time>
      </trkpt>
      <trkpt lat="45.22309" lon="0.53795">
        <ele>152.60000610352</ele>
        <time>2018-06-26T06:35:36.000Z</time>
      </trkpt>
      <trkpt lat="45.22302" lon="0.53761">
        <ele>152.60000610352</ele>
        <time>2018-06-26T06:35:43.000Z</time>
      </trkpt>
      <trkpt lat="45.22296" lon="0.53732">
        <ele>153</ele>
        <time>2018-06-26T06:35:49.000Z</time>
      </trkpt>
      <trkpt lat="45.2229" lon="0.53697">
        <ele>152.39999389648</ele>
        <time>2018-06-26T06:35:55.000Z</time>
      </trkpt>
      <trkpt lat="45.22287" lon="0.53682">
        <ele>151.60000610352</ele>
        <time>2018-06-26T06:35:57.000Z</time>
      </trkpt>
      <trkpt lat="45.22285" lon="0.53663">
        <ele>151</ele>
        <time>2018-06-26T06:35:59.000Z</time>
      </trkpt>
      <trkpt lat="45.22284" lon="0.53651">
        <ele>150.80000305176</ele>
        <time>2018-06-26T06:36:00.000Z</time>
      </trkpt>
      <trkpt lat="45.22283" lon="0.5364">
        <ele>150.39999389648</ele>
        <time>2018-06-26T06:36:01.000Z</time>
      </trkpt>
      <trkpt lat="45.22277" lon="0.53616">
        <ele>149.19999694824</ele>
        <time>2018-06-26T06:36:04.000Z</time>
      </trkpt>
      <trkpt lat="45.22274" lon="0.53608">
        <ele>148.80000305176</ele>
        <time>2018-06-26T06:36:05.000Z</time>
      </trkpt>
      <trkpt lat="45.22268" lon="0.53592">
        <ele>148</ele>
        <time>2018-06-26T06:36:07.000Z</time>
      </trkpt>
      <trkpt lat="45.22266" lon="0.53576">
        <ele>146.80000305176</ele>
        <time>2018-06-26T06:36:09.000Z</time>
      </trkpt>
      <trkpt lat="45.22267" lon="0.53566">
        <ele>145.19999694824</ele>
        <time>2018-06-26T06:36:11.000Z</time>
      </trkpt>
      <trkpt lat="45.2227" lon="0.53564">
        <ele>144.80000305176</ele>
        <time>2018-06-26T06:36:12.000Z</time>
      </trkpt>
      <trkpt lat="45.22272" lon="0.53562">
        <ele>144.60000610352</ele>
        <time>2018-06-26T06:36:13.000Z</time>
      </trkpt>
      <trkpt lat="45.22287" lon="0.53549">
        <ele>144.39999389648</ele>
        <time>2018-06-26T06:36:18.000Z</time>
      </trkpt>
      <trkpt lat="45.22302" lon="0.53541">
        <ele>144.19999694824</ele>
        <time>2018-06-26T06:36:22.000Z</time>
      </trkpt>
      <trkpt lat="45.22317" lon="0.53536">
        <ele>143.80000305176</ele>
        <time>2018-06-26T06:36:26.000Z</time>
      </trkpt>
      <trkpt lat="45.22329" lon="0.53533">
        <ele>143</ele>
        <time>2018-06-26T06:36:29.000Z</time>
      </trkpt>
      <trkpt lat="45.22346" lon="0.53528">
        <ele>142.19999694824</ele>
        <time>2018-06-26T06:36:33.000Z</time>
      </trkpt>
      <trkpt lat="45.22352" lon="0.53526">
        <ele>141.80000305176</ele>
        <time>2018-06-26T06:36:34.000Z</time>
      </trkpt>
      <trkpt lat="45.22375" lon="0.5352">
        <ele>140.80000305176</ele>
        <time>2018-06-26T06:36:38.000Z</time>
      </trkpt>
      <trkpt lat="45.22381" lon="0.53518">
        <ele>140.39999389648</ele>
        <time>2018-06-26T06:36:39.000Z</time>
      </trkpt>
      <trkpt lat="45.22392" lon="0.53515">
        <ele>139.80000305176</ele>
        <time>2018-06-26T06:36:41.000Z</time>
      </trkpt>
      <trkpt lat="45.2242" lon="0.53503">
        <ele>138.80000305176</ele>
        <time>2018-06-26T06:36:46.000Z</time>
      </trkpt>
      <trkpt lat="45.22445" lon="0.53497">
        <ele>137.80000305176</ele>
        <time>2018-06-26T06:36:52.000Z</time>
      </trkpt>
      <trkpt lat="45.2245" lon="0.53496">
        <ele>137.60000610352</ele>
        <time>2018-06-26T06:36:53.000Z</time>
      </trkpt>
      <trkpt lat="45.22473" lon="0.53487">
        <ele>137.80000305176</ele>
        <time>2018-06-26T06:36:59.000Z</time>
      </trkpt>
      <trkpt lat="45.22489" lon="0.53479">
        <ele>137.19999694824</ele>
        <time>2018-06-26T06:37:04.000Z</time>
      </trkpt>
      <trkpt lat="45.22514" lon="0.5346">
        <ele>137.19999694824</ele>
        <time>2018-06-26T06:37:11.000Z</time>
      </trkpt>
      <trkpt lat="45.22538" lon="0.5344">
        <ele>137</ele>
        <time>2018-06-26T06:37:18.000Z</time>
      </trkpt>
      <trkpt lat="45.22553" lon="0.5343">
        <ele>137</ele>
        <time>2018-06-26T06:37:24.000Z</time>
      </trkpt>
      <trkpt lat="45.22566" lon="0.53427">
        <ele>137.19999694824</ele>
        <time>2018-06-26T06:37:30.000Z</time>
      </trkpt>
      <trkpt lat="45.22583" lon="0.53415">
        <ele>136.60000610352</ele>
        <time>2018-06-26T06:37:37.000Z</time>
      </trkpt>
      <trkpt lat="45.22611" lon="0.53398">
        <ele>136</ele>
        <time>2018-06-26T06:37:45.000Z</time>
      </trkpt>
      <trkpt lat="45.22633" lon="0.53385">
        <ele>135.39999389648</ele>
        <time>2018-06-26T06:37:50.000Z</time>
      </trkpt>
      <trkpt lat="45.22641" lon="0.53379">
        <ele>135.19999694824</ele>
        <time>2018-06-26T06:37:52.000Z</time>
      </trkpt>
      <trkpt lat="45.2267" lon="0.53355">
        <ele>134.39999389648</ele>
        <time>2018-06-26T06:37:59.000Z</time>
      </trkpt>
      <trkpt lat="45.22704" lon="0.53331">
        <ele>133.80000305176</ele>
        <time>2018-06-26T06:38:08.000Z</time>
      </trkpt>
      <trkpt lat="45.22725" lon="0.53314">
        <ele>133.19999694824</ele>
        <time>2018-06-26T06:38:14.000Z</time>
      </trkpt>
      <trkpt lat="45.22735" lon="0.53306">
        <ele>133</ele>
        <time>2018-06-26T06:38:17.000Z</time>
      </trkpt>
      <trkpt lat="45.22764" lon="0.53285">
        <ele>132.80000305176</ele>
        <time>2018-06-26T06:38:26.000Z</time>
      </trkpt>
      <trkpt lat="45.2277" lon="0.5328">
        <ele>132.19999694824</ele>
        <time>2018-06-26T06:38:28.000Z</time>
      </trkpt>
      <trkpt lat="45.22789" lon="0.53271">
        <ele>132</ele>
        <time>2018-06-26T06:38:33.000Z</time>
      </trkpt>
      <trkpt lat="45.22825" lon="0.53265">
        <ele>131.19999694824</ele>
        <time>2018-06-26T06:38:42.000Z</time>
      </trkpt>
      <trkpt lat="45.22829" lon="0.53264">
        <ele>131.19999694824</ele>
        <time>2018-06-26T06:38:43.000Z</time>
      </trkpt>
      <trkpt lat="45.22838" lon="0.53255">
        <ele>131</ele>
        <time>2018-06-26T06:38:46.000Z</time>
      </trkpt>
      <trkpt lat="45.22854" lon="0.53227">
        <ele>130.39999389648</ele>
        <time>2018-06-26T06:38:53.000Z</time>
      </trkpt>
      <trkpt lat="45.22871" lon="0.53214">
        <ele>131.19999694824</ele>
        <time>2018-06-26T06:38:59.000Z</time>
      </trkpt>
      <trkpt lat="45.22885" lon="0.53202">
        <ele>132.19999694824</ele>
        <time>2018-06-26T06:39:05.000Z</time>
      </trkpt>
      <trkpt lat="45.22887" lon="0.532">
        <ele>132.39999389648</ele>
        <time>2018-06-26T06:39:06.000Z</time>
      </trkpt>
      <trkpt lat="45.22896" lon="0.53191">
        <ele>133.19999694824</ele>
        <time>2018-06-26T06:39:10.000Z</time>
      </trkpt>
      <trkpt lat="45.22898" lon="0.53189">
        <ele>133.60000610352</ele>
        <time>2018-06-26T06:39:11.000Z</time>
      </trkpt>
      <trkpt lat="45.22902" lon="0.53184">
        <ele>134.19999694824</ele>
        <time>2018-06-26T06:39:13.000Z</time>
      </trkpt>
      <trkpt lat="45.22904" lon="0.53181">
        <ele>134.39999389648</ele>
        <time>2018-06-26T06:39:14.000Z</time>
      </trkpt>
      <trkpt lat="45.22911" lon="0.5317">
        <ele>135.60000610352</ele>
        <time>2018-06-26T06:39:19.000Z</time>
      </trkpt>
      <trkpt lat="45.22912" lon="0.53168">
        <ele>135.80000305176</ele>
        <time>2018-06-26T06:39:20.000Z</time>
      </trkpt>
      <trkpt lat="45.22919" lon="0.53158">
        <ele>136.80000305176</ele>
        <time>2018-06-26T06:39:24.000Z</time>
      </trkpt>
      <trkpt lat="45.22924" lon="0.53148">
        <ele>137.80000305176</ele>
        <time>2018-06-26T06:39:28.000Z</time>
      </trkpt>
      <trkpt lat="45.22932" lon="0.53134">
        <ele>138.80000305176</ele>
        <time>2018-06-26T06:39:34.000Z</time>
      </trkpt>
      <trkpt lat="45.22938" lon="0.53124">
        <ele>139.39999389648</ele>
        <time>2018-06-26T06:39:38.000Z</time>
      </trkpt>
      <trkpt lat="45.22942" lon="0.53117">
        <ele>140</ele>
        <time>2018-06-26T06:39:41.000Z</time>
      </trkpt>
      <trkpt lat="45.2295" lon="0.53106">
        <ele>140.80000305176</ele>
        <time>2018-06-26T06:39:46.000Z</time>
      </trkpt>
      <trkpt lat="45.22954" lon="0.53101">
        <ele>141.19999694824</ele>
        <time>2018-06-26T06:39:48.000Z</time>
      </trkpt>
      <trkpt lat="45.22965" lon="0.53084">
        <ele>142</ele>
        <time>2018-06-26T06:39:55.000Z</time>
      </trkpt>
      <trkpt lat="45.22972" lon="0.53073">
        <ele>142.19999694824</ele>
        <time>2018-06-26T06:39:59.000Z</time>
      </trkpt>
      <trkpt lat="45.22979" lon="0.53059">
        <ele>142.39999389648</ele>
        <time>2018-06-26T06:40:03.000Z</time>
      </trkpt>
      <trkpt lat="45.22991" lon="0.53033">
        <ele>142</ele>
        <time>2018-06-26T06:40:10.000Z</time>
      </trkpt>
      <trkpt lat="45.22994" lon="0.53031">
        <ele>142</ele>
        <time>2018-06-26T06:40:11.000Z</time>
      </trkpt>
      <trkpt lat="45.22999" lon="0.53032">
        <ele>141.80000305176</ele>
        <time>2018-06-26T06:40:13.000Z</time>
      </trkpt>
      <trkpt lat="45.23008" lon="0.5304">
        <ele>141.19999694824</ele>
        <time>2018-06-26T06:40:16.000Z</time>
      </trkpt>
      <trkpt lat="45.23012" lon="0.53044">
        <ele>141</ele>
        <time>2018-06-26T06:40:17.000Z</time>
      </trkpt>
      <trkpt lat="45.23027" lon="0.53061">
        <ele>140</ele>
        <time>2018-06-26T06:40:21.000Z</time>
      </trkpt>
      <trkpt lat="45.23039" lon="0.53076">
        <ele>139</ele>
        <time>2018-06-26T06:40:24.000Z</time>
      </trkpt>
      <trkpt lat="45.23043" lon="0.53081">
        <ele>138.80000305176</ele>
        <time>2018-06-26T06:40:25.000Z</time>
      </trkpt>
      <trkpt lat="45.23069" lon="0.53111">
        <ele>137.80000305176</ele>
        <time>2018-06-26T06:40:31.000Z</time>
      </trkpt>
      <trkpt lat="45.23073" lon="0.53117">
        <ele>137.60000610352</ele>
        <time>2018-06-26T06:40:32.000Z</time>
      </trkpt>
      <trkpt lat="45.23091" lon="0.53137">
        <ele>136.80000305176</ele>
        <time>2018-06-26T06:40:36.000Z</time>
      </trkpt>
      <trkpt lat="45.23104" lon="0.53152">
        <ele>136</ele>
        <time>2018-06-26T06:40:39.000Z</time>
      </trkpt>
      <trkpt lat="45.23109" lon="0.53158">
        <ele>135.60000610352</ele>
        <time>2018-06-26T06:40:40.000Z</time>
      </trkpt>
      <trkpt lat="45.23137" lon="0.53192">
        <ele>134.80000305176</ele>
        <time>2018-06-26T06:40:46.000Z</time>
      </trkpt>
      <trkpt lat="45.23143" lon="0.53197">
        <ele>134.60000610352</ele>
        <time>2018-06-26T06:40:47.000Z</time>
      </trkpt>
      <trkpt lat="45.23163" lon="0.53206">
        <ele>133.80000305176</ele>
        <time>2018-06-26T06:40:50.000Z</time>
      </trkpt>
      <trkpt lat="45.2317" lon="0.53206">
        <ele>133.60000610352</ele>
        <time>2018-06-26T06:40:51.000Z</time>
      </trkpt>
      <trkpt lat="45.23182" lon="0.53205">
        <ele>133</ele>
        <time>2018-06-26T06:40:53.000Z</time>
      </trkpt>
      <trkpt lat="45.23188" lon="0.53204">
        <ele>133</ele>
        <time>2018-06-26T06:40:54.000Z</time>
      </trkpt>
      <trkpt lat="45.23199" lon="0.53202">
        <ele>132.39999389648</ele>
        <time>2018-06-26T06:40:56.000Z</time>
      </trkpt>
      <trkpt lat="45.23213" lon="0.532">
        <ele>133</ele>
        <time>2018-06-26T06:40:59.000Z</time>
      </trkpt>
      <trkpt lat="45.23229" lon="0.53199">
        <ele>133.80000305176</ele>
        <time>2018-06-26T06:41:03.000Z</time>
      </trkpt>
      <trkpt lat="45.23236" lon="0.53198">
        <ele>134.39999389648</ele>
        <time>2018-06-26T06:41:05.000Z</time>
      </trkpt>
      <trkpt lat="45.23244" lon="0.53196">
        <ele>135.19999694824</ele>
        <time>2018-06-26T06:41:07.000Z</time>
      </trkpt>
      <trkpt lat="45.23258" lon="0.53194">
        <ele>136.39999389648</ele>
        <time>2018-06-26T06:41:11.000Z</time>
      </trkpt>
      <trkpt lat="45.23261" lon="0.53195">
        <ele>136.60000610352</ele>
        <time>2018-06-26T06:41:12.000Z</time>
      </trkpt>
      <trkpt lat="45.23281" lon="0.53198">
        <ele>137.60000610352</ele>
        <time>2018-06-26T06:41:19.000Z</time>
      </trkpt>
      <trkpt lat="45.23284" lon="0.53186">
        <ele>138</ele>
        <time>2018-06-26T06:41:22.000Z</time>
      </trkpt>
      <trkpt lat="45.23288" lon="0.53177">
        <ele>138.60000610352</ele>
        <time>2018-06-26T06:41:25.000Z</time>
      </trkpt>
      <trkpt lat="45.23292" lon="0.53178">
        <ele>139.39999389648</ele>
        <time>2018-06-26T06:41:27.000Z</time>
      </trkpt>
      <trkpt lat="45.23296" lon="0.53182">
        <ele>139.39999389648</ele>
        <time>2018-06-26T06:41:29.000Z</time>
      </trkpt>
      <trkpt lat="45.23307" lon="0.53192">
        <ele>139.60000610352</ele>
        <time>2018-06-26T06:41:33.000Z</time>
      </trkpt>
      <trkpt lat="45.23332" lon="0.53212">
        <ele>139</ele>
        <time>2018-06-26T06:41:40.000Z</time>
      </trkpt>
      <trkpt lat="45.23368" lon="0.53233">
        <ele>138</ele>
        <time>2018-06-26T06:41:48.000Z</time>
      </trkpt>
      <trkpt lat="45.23386" lon="0.53234">
        <ele>137.19999694824</ele>
        <time>2018-06-26T06:41:51.000Z</time>
      </trkpt>
      <trkpt lat="45.234" lon="0.53236">
        <ele>136.80000305176</ele>
        <time>2018-06-26T06:41:53.000Z</time>
      </trkpt>
      <trkpt lat="45.23414" lon="0.53237">
        <ele>136</ele>
        <time>2018-06-26T06:41:55.000Z</time>
      </trkpt>
      <trkpt lat="45.23446" lon="0.53238">
        <ele>134.80000305176</ele>
        <time>2018-06-26T06:41:59.000Z</time>
      </trkpt>
      <trkpt lat="45.2348" lon="0.53239">
        <ele>133.19999694824</ele>
        <time>2018-06-26T06:42:03.000Z</time>
      </trkpt>
      <trkpt lat="45.23496" lon="0.5324">
        <ele>132.39999389648</ele>
        <time>2018-06-26T06:42:05.000Z</time>
      </trkpt>
      <trkpt lat="45.23505" lon="0.5324">
        <ele>132.19999694824</ele>
        <time>2018-06-26T06:42:06.000Z</time>
      </trkpt>
      <trkpt lat="45.23522" lon="0.53239">
        <ele>130.60000610352</ele>
        <time>2018-06-26T06:42:08.000Z</time>
      </trkpt>
      <trkpt lat="45.23547" lon="0.53237">
        <ele>129.19999694824</ele>
        <time>2018-06-26T06:42:11.000Z</time>
      </trkpt>
      <trkpt lat="45.23555" lon="0.53236">
        <ele>128.80000305176</ele>
        <time>2018-06-26T06:42:12.000Z</time>
      </trkpt>
      <trkpt lat="45.23579" lon="0.5323">
        <ele>127.40000152588</ele>
        <time>2018-06-26T06:42:15.000Z</time>
      </trkpt>
      <trkpt lat="45.23596" lon="0.53222">
        <ele>126.40000152588</ele>
        <time>2018-06-26T06:42:17.000Z</time>
      </trkpt>
      <trkpt lat="45.23604" lon="0.53217">
        <ele>126</ele>
        <time>2018-06-26T06:42:18.000Z</time>
      </trkpt>
      <trkpt lat="45.23629" lon="0.532">
        <ele>124.19999694824</ele>
        <time>2018-06-26T06:42:21.000Z</time>
      </trkpt>
      <trkpt lat="45.23645" lon="0.53189">
        <ele>122.80000305176</ele>
        <time>2018-06-26T06:42:23.000Z</time>
      </trkpt>
      <trkpt lat="45.23675" lon="0.53174">
        <ele>121.40000152588</ele>
        <time>2018-06-26T06:42:27.000Z</time>
      </trkpt>
      <trkpt lat="45.23682" lon="0.53177">
        <ele>121</ele>
        <time>2018-06-26T06:42:28.000Z</time>
      </trkpt>
      <trkpt lat="45.23693" lon="0.53192">
        <ele>120.40000152588</ele>
        <time>2018-06-26T06:42:30.000Z</time>
      </trkpt>
      <trkpt lat="45.23697" lon="0.532">
        <ele>120.19999694824</ele>
        <time>2018-06-26T06:42:31.000Z</time>
      </trkpt>
      <trkpt lat="45.23708" lon="0.53211">
        <ele>120.19999694824</ele>
        <time>2018-06-26T06:42:33.000Z</time>
      </trkpt>
      <trkpt lat="45.2372" lon="0.53218">
        <ele>119.80000305176</ele>
        <time>2018-06-26T06:42:35.000Z</time>
      </trkpt>
      <trkpt lat="45.2374" lon="0.53225">
        <ele>120</ele>
        <time>2018-06-26T06:42:38.000Z</time>
      </trkpt>
      <trkpt lat="45.23753" lon="0.53228">
        <ele>119.19999694824</ele>
        <time>2018-06-26T06:42:40.000Z</time>
      </trkpt>
      <trkpt lat="45.23793" lon="0.53233">
        <ele>118</ele>
        <time>2018-06-26T06:42:46.000Z</time>
      </trkpt>
      <trkpt lat="45.23812" lon="0.53233">
        <ele>118</ele>
        <time>2018-06-26T06:42:49.000Z</time>
      </trkpt>
      <trkpt lat="45.2387" lon="0.53229">
        <ele>117.40000152588</ele>
        <time>2018-06-26T06:42:58.000Z</time>
      </trkpt>
      <trkpt lat="45.23882" lon="0.5323">
        <ele>117.19999694824</ele>
        <time>2018-06-26T06:43:00.000Z</time>
      </trkpt>
      <trkpt lat="45.23888" lon="0.53231">
        <ele>116.80000305176</ele>
        <time>2018-06-26T06:43:01.000Z</time>
      </trkpt>
      <trkpt lat="45.23915" lon="0.5324">
        <ele>116.19999694824</ele>
        <time>2018-06-26T06:43:06.000Z</time>
      </trkpt>
      <trkpt lat="45.23943" lon="0.5325">
        <ele>115.80000305176</ele>
        <time>2018-06-26T06:43:12.000Z</time>
      </trkpt>
      <trkpt lat="45.23947" lon="0.5325">
        <ele>115.80000305176</ele>
        <time>2018-06-26T06:43:13.000Z</time>
      </trkpt>
      <trkpt lat="45.2396" lon="0.53256">
        <ele>115.80000305176</ele>
        <time>2018-06-26T06:43:17.000Z</time>
      </trkpt>
      <trkpt lat="45.23961" lon="0.5326">
        <ele>115.80000305176</ele>
        <time>2018-06-26T06:43:18.000Z</time>
      </trkpt>
      <trkpt lat="45.23955" lon="0.53276">
        <ele>115.80000305176</ele>
        <time>2018-06-26T06:43:22.000Z</time>
      </trkpt>
      <trkpt lat="45.23943" lon="0.53284">
        <ele>116.40000152588</ele>
        <time>2018-06-26T06:43:25.000Z</time>
      </trkpt>
      <trkpt lat="45.2394" lon="0.53288">
        <ele>116.40000152588</ele>
        <time>2018-06-26T06:43:26.000Z</time>
      </trkpt>
      <trkpt lat="45.23934" lon="0.53307">
        <ele>116.40000152588</ele>
        <time>2018-06-26T06:43:29.000Z</time>
      </trkpt>
      <trkpt lat="45.23926" lon="0.5333">
        <ele>115.80000305176</ele>
        <time>2018-06-26T06:43:32.000Z</time>
      </trkpt>
      <trkpt lat="45.23925" lon="0.53339">
        <ele>115.40000152588</ele>
        <time>2018-06-26T06:43:33.000Z</time>
      </trkpt>
      <trkpt lat="45.23929" lon="0.53359">
        <ele>115</ele>
        <time>2018-06-26T06:43:36.000Z</time>
      </trkpt>
      <trkpt lat="45.23933" lon="0.53362">
        <ele>114.80000305176</ele>
        <time>2018-06-26T06:43:37.000Z</time>
      </trkpt>
      <trkpt lat="45.23937" lon="0.53365">
        <ele>114.80000305176</ele>
        <time>2018-06-26T06:43:38.000Z</time>
      </trkpt>
      <trkpt lat="45.23941" lon="0.53371">
        <ele>115</ele>
        <time>2018-06-26T06:43:39.000Z</time>
      </trkpt>
      <trkpt lat="45.23954" lon="0.53389">
        <ele>115.59999847412</ele>
        <time>2018-06-26T06:43:43.000Z</time>
      </trkpt>
      <trkpt lat="45.23957" lon="0.53393">
        <ele>115.59999847412</ele>
        <time>2018-06-26T06:43:44.000Z</time>
      </trkpt>
      <trkpt lat="45.23961" lon="0.53395">
        <ele>115.80000305176</ele>
        <time>2018-06-26T06:43:45.000Z</time>
      </trkpt>
      <trkpt lat="45.23968" lon="0.53397">
        <ele>116</ele>
        <time>2018-06-26T06:43:47.000Z</time>
      </trkpt>
      <trkpt lat="45.24003" lon="0.53388">
        <ele>115.40000152588</ele>
        <time>2018-06-26T06:43:53.000Z</time>
      </trkpt>
      <trkpt lat="45.24047" lon="0.53376">
        <ele>115.40000152588</ele>
        <time>2018-06-26T06:43:59.000Z</time>
      </trkpt>
      <trkpt lat="45.24053" lon="0.53374">
        <ele>115.40000152588</ele>
        <time>2018-06-26T06:44:00.000Z</time>
      </trkpt>
      <trkpt lat="45.24076" lon="0.53362">
        <ele>115.40000152588</ele>
        <time>2018-06-26T06:44:04.000Z</time>
      </trkpt>
      <trkpt lat="45.24087" lon="0.53356">
        <ele>115.40000152588</ele>
        <time>2018-06-26T06:44:06.000Z</time>
      </trkpt>
      <trkpt lat="45.24123" lon="0.53344">
        <ele>115.40000152588</ele>
        <time>2018-06-26T06:44:13.000Z</time>
      </trkpt>
      <trkpt lat="45.24159" lon="0.5333">
        <ele>115</ele>
        <time>2018-06-26T06:44:20.000Z</time>
      </trkpt>
      <trkpt lat="45.24164" lon="0.53328">
        <ele>114.80000305176</ele>
        <time>2018-06-26T06:44:21.000Z</time>
      </trkpt>
      <trkpt lat="45.24206" lon="0.53315">
        <ele>114.40000152588</ele>
        <time>2018-06-26T06:44:29.000Z</time>
      </trkpt>
      <trkpt lat="45.24248" lon="0.53301">
        <ele>114.19999694824</ele>
        <time>2018-06-26T06:44:38.000Z</time>
      </trkpt>
      <trkpt lat="45.24263" lon="0.53298">
        <ele>113.80000305176</ele>
        <time>2018-06-26T06:44:41.000Z</time>
      </trkpt>
      <trkpt lat="45.24283" lon="0.53293">
        <ele>113.19999694824</ele>
        <time>2018-06-26T06:44:45.000Z</time>
      </trkpt>
      <trkpt lat="45.2432" lon="0.53282">
        <ele>112.80000305176</ele>
        <time>2018-06-26T06:44:52.000Z</time>
      </trkpt>
      <trkpt lat="45.2433" lon="0.53278">
        <ele>112.40000152588</ele>
        <time>2018-06-26T06:44:54.000Z</time>
      </trkpt>
      <trkpt lat="45.24345" lon="0.53272">
        <ele>111.59999847412</ele>
        <time>2018-06-26T06:44:57.000Z</time>
      </trkpt>
      <trkpt lat="45.24375" lon="0.53259">
        <ele>110.80000305176</ele>
        <time>2018-06-26T06:45:03.000Z</time>
      </trkpt>
      <trkpt lat="45.24384" lon="0.53254">
        <ele>110.59999847412</ele>
        <time>2018-06-26T06:45:05.000Z</time>
      </trkpt>
      <trkpt lat="45.24392" lon="0.53248">
        <ele>110.40000152588</ele>
        <time>2018-06-26T06:45:07.000Z</time>
      </trkpt>
      <trkpt lat="45.24395" lon="0.53246">
        <ele>110.19999694824</ele>
        <time>2018-06-26T06:45:08.000Z</time>
      </trkpt>
      <trkpt lat="45.24402" lon="0.53252">
        <ele>110.19999694824</ele>
        <time>2018-06-26T06:45:11.000Z</time>
      </trkpt>
      <trkpt lat="45.24403" lon="0.53256">
        <ele>110.19999694824</ele>
        <time>2018-06-26T06:45:12.000Z</time>
      </trkpt>
      <trkpt lat="45.24415" lon="0.53282">
        <ele>110.40000152588</ele>
        <time>2018-06-26T06:45:18.000Z</time>
      </trkpt>
      <trkpt lat="45.24434" lon="0.53325">
        <ele>110.80000305176</ele>
        <time>2018-06-26T06:45:27.000Z</time>
      </trkpt>
      <trkpt lat="45.24449" lon="0.53363">
        <ele>111</ele>
        <time>2018-06-26T06:45:35.000Z</time>
      </trkpt>
      <trkpt lat="45.24457" lon="0.53386">
        <ele>111.59999847412</ele>
        <time>2018-06-26T06:45:40.000Z</time>
      </trkpt>
      <trkpt lat="45.2446" lon="0.534">
        <ele>111.80000305176</ele>
        <time>2018-06-26T06:45:43.000Z</time>
      </trkpt>
      <trkpt lat="45.2447" lon="0.53438">
        <ele>112.40000152588</ele>
        <time>2018-06-26T06:45:51.000Z</time>
      </trkpt>
      <trkpt lat="45.24475" lon="0.53454">
        <ele>112.59999847412</ele>
        <time>2018-06-26T06:45:54.000Z</time>
      </trkpt>
      <trkpt lat="45.24478" lon="0.5347">
        <ele>112.80000305176</ele>
        <time>2018-06-26T06:45:57.000Z</time>
      </trkpt>
      <trkpt lat="45.24478" lon="0.53495">
        <ele>113.40000152588</ele>
        <time>2018-06-26T06:46:02.000Z</time>
      </trkpt>
      <trkpt lat="45.2448" lon="0.53512">
        <ele>113.59999847412</ele>
        <time>2018-06-26T06:46:05.000Z</time>
      </trkpt>
      <trkpt lat="45.24486" lon="0.5353">
        <ele>113.59999847412</ele>
        <time>2018-06-26T06:46:08.000Z</time>
      </trkpt>
      <trkpt lat="45.24498" lon="0.53569">
        <ele>114</ele>
        <time>2018-06-26T06:46:15.000Z</time>
      </trkpt>
      <trkpt lat="45.24512" lon="0.53612">
        <ele>114.59999847412</ele>
        <time>2018-06-26T06:46:23.000Z</time>
      </trkpt>
      <trkpt lat="45.24514" lon="0.53618">
        <ele>114.80000305176</ele>
        <time>2018-06-26T06:46:24.000Z</time>
      </trkpt>
      <trkpt lat="45.24524" lon="0.53645">
        <ele>115</ele>
        <time>2018-06-26T06:46:29.000Z</time>
      </trkpt>
      <trkpt lat="45.24533" lon="0.53671">
        <ele>115.59999847412</ele>
        <time>2018-06-26T06:46:35.000Z</time>
      </trkpt>
      <trkpt lat="45.24534" lon="0.53676">
        <ele>116</ele>
        <time>2018-06-26T06:46:36.000Z</time>
      </trkpt>
      <trkpt lat="45.24541" lon="0.53699">
        <ele>117.19999694824</ele>
        <time>2018-06-26T06:46:40.000Z</time>
      </trkpt>
      <trkpt lat="45.24544" lon="0.53708">
        <ele>117.59999847412</ele>
        <time>2018-06-26T06:46:42.000Z</time>
      </trkpt>
      <trkpt lat="45.24554" lon="0.5374">
        <ele>117</ele>
        <time>2018-06-26T06:46:48.000Z</time>
      </trkpt>
      <trkpt lat="45.24559" lon="0.5376">
        <ele>117.19999694824</ele>
        <time>2018-06-26T06:46:51.000Z</time>
      </trkpt>
      <trkpt lat="45.24562" lon="0.53777">
        <ele>117.59999847412</ele>
        <time>2018-06-26T06:46:54.000Z</time>
      </trkpt>
      <trkpt lat="45.24564" lon="0.538">
        <ele>118.19999694824</ele>
        <time>2018-06-26T06:46:58.000Z</time>
      </trkpt>
      <trkpt lat="45.24564" lon="0.53829">
        <ele>118.40000152588</ele>
        <time>2018-06-26T06:47:03.000Z</time>
      </trkpt>
      <trkpt lat="45.24563" lon="0.53847">
        <ele>118.59999847412</ele>
        <time>2018-06-26T06:47:06.000Z</time>
      </trkpt>
      <trkpt lat="45.24562" lon="0.53869">
        <ele>118.80000305176</ele>
        <time>2018-06-26T06:47:10.000Z</time>
      </trkpt>
      <trkpt lat="45.24561" lon="0.53896">
        <ele>119.19999694824</ele>
        <time>2018-06-26T06:47:15.000Z</time>
      </trkpt>
      <trkpt lat="45.24561" lon="0.53902">
        <ele>119.19999694824</ele>
        <time>2018-06-26T06:47:16.000Z</time>
      </trkpt>
      <trkpt lat="45.24565" lon="0.53946">
        <ele>119.19999694824</ele>
        <time>2018-06-26T06:47:23.000Z</time>
      </trkpt>
      <trkpt lat="45.24569" lon="0.5399">
        <ele>118.80000305176</ele>
        <time>2018-06-26T06:47:30.000Z</time>
      </trkpt>
      <trkpt lat="45.24571" lon="0.54029">
        <ele>119.40000152588</ele>
        <time>2018-06-26T06:47:37.000Z</time>
      </trkpt>
      <trkpt lat="45.24579" lon="0.54069">
        <ele>119.80000305176</ele>
        <time>2018-06-26T06:47:44.000Z</time>
      </trkpt>
      <trkpt lat="45.24583" lon="0.54102">
        <ele>119.80000305176</ele>
        <time>2018-06-26T06:47:50.000Z</time>
      </trkpt>
      <trkpt lat="45.24588" lon="0.54151">
        <ele>120</ele>
        <time>2018-06-26T06:47:58.000Z</time>
      </trkpt>
      <trkpt lat="45.24592" lon="0.54174">
        <ele>120.19999694824</ele>
        <time>2018-06-26T06:48:02.000Z</time>
      </trkpt>
      <trkpt lat="45.24594" lon="0.54195">
        <ele>120.80000305176</ele>
        <time>2018-06-26T06:48:06.000Z</time>
      </trkpt>
      <trkpt lat="45.24594" lon="0.54204">
        <ele>121.19999694824</ele>
        <time>2018-06-26T06:48:08.000Z</time>
      </trkpt>
      <trkpt lat="45.24593" lon="0.54221">
        <ele>121.80000305176</ele>
        <time>2018-06-26T06:48:12.000Z</time>
      </trkpt>
      <trkpt lat="45.24595" lon="0.54244">
        <ele>122.59999847412</ele>
        <time>2018-06-26T06:48:16.000Z</time>
      </trkpt>
      <trkpt lat="45.24597" lon="0.5426">
        <ele>122.80000305176</ele>
        <time>2018-06-26T06:48:19.000Z</time>
      </trkpt>
      <trkpt lat="45.24604" lon="0.54292">
        <ele>123.40000152588</ele>
        <time>2018-06-26T06:48:25.000Z</time>
      </trkpt>
      <trkpt lat="45.24605" lon="0.54297">
        <ele>123.59999847412</ele>
        <time>2018-06-26T06:48:26.000Z</time>
      </trkpt>
      <trkpt lat="45.24608" lon="0.54324">
        <ele>124</ele>
        <time>2018-06-26T06:48:31.000Z</time>
      </trkpt>
      <trkpt lat="45.24611" lon="0.54347">
        <ele>124.59999847412</ele>
        <time>2018-06-26T06:48:36.000Z</time>
      </trkpt>
      <trkpt lat="45.24612" lon="0.54357">
        <ele>124.80000305176</ele>
        <time>2018-06-26T06:48:38.000Z</time>
      </trkpt>
      <trkpt lat="45.2462" lon="0.54385">
        <ele>125.40000152588</ele>
        <time>2018-06-26T06:48:43.000Z</time>
      </trkpt>
      <trkpt lat="45.24625" lon="0.54405">
        <ele>125.80000305176</ele>
        <time>2018-06-26T06:48:47.000Z</time>
      </trkpt>
      <trkpt lat="45.24628" lon="0.54416">
        <ele>126</ele>
        <time>2018-06-26T06:48:49.000Z</time>
      </trkpt>
      <trkpt lat="45.24636" lon="0.54457">
        <ele>126.59999847412</ele>
        <time>2018-06-26T06:48:56.000Z</time>
      </trkpt>
      <trkpt lat="45.24643" lon="0.54477">
        <ele>126.80000305176</ele>
        <time>2018-06-26T06:49:00.000Z</time>
      </trkpt>
      <trkpt lat="45.24646" lon="0.54487">
        <ele>127</ele>
        <time>2018-06-26T06:49:02.000Z</time>
      </trkpt>
      <trkpt lat="45.24651" lon="0.54501">
        <ele>128</ele>
        <time>2018-06-26T06:49:05.000Z</time>
      </trkpt>
      <trkpt lat="45.24654" lon="0.54519">
        <ele>128.60000610352</ele>
        <time>2018-06-26T06:49:09.000Z</time>
      </trkpt>
      <trkpt lat="45.24656" lon="0.54527">
        <ele>129</ele>
        <time>2018-06-26T06:49:11.000Z</time>
      </trkpt>
      <trkpt lat="45.24664" lon="0.54547">
        <ele>129.80000305176</ele>
        <time>2018-06-26T06:49:16.000Z</time>
      </trkpt>
      <trkpt lat="45.24667" lon="0.54556">
        <ele>130</ele>
        <time>2018-06-26T06:49:18.000Z</time>
      </trkpt>
      <trkpt lat="45.24676" lon="0.54579">
        <ele>130.60000610352</ele>
        <time>2018-06-26T06:49:23.000Z</time>
      </trkpt>
      <trkpt lat="45.24681" lon="0.54592">
        <ele>131.19999694824</ele>
        <time>2018-06-26T06:49:26.000Z</time>
      </trkpt>
      <trkpt lat="45.24684" lon="0.54606">
        <ele>131.80000305176</ele>
        <time>2018-06-26T06:49:29.000Z</time>
      </trkpt>
      <trkpt lat="45.24684" lon="0.54615">
        <ele>132.19999694824</ele>
        <time>2018-06-26T06:49:31.000Z</time>
      </trkpt>
      <trkpt lat="45.24685" lon="0.54631">
        <ele>132.60000610352</ele>
        <time>2018-06-26T06:49:35.000Z</time>
      </trkpt>
      <trkpt lat="45.24686" lon="0.5466">
        <ele>132.19999694824</ele>
        <time>2018-06-26T06:49:41.000Z</time>
      </trkpt>
      <trkpt lat="45.24686" lon="0.54701">
        <ele>132</ele>
        <time>2018-06-26T06:49:48.000Z</time>
      </trkpt>
      <trkpt lat="45.24691" lon="0.54732">
        <ele>133.19999694824</ele>
        <time>2018-06-26T06:49:52.000Z</time>
      </trkpt>
      <trkpt lat="45.24692" lon="0.54745">
        <ele>133.80000305176</ele>
        <time>2018-06-26T06:49:54.000Z</time>
      </trkpt>
      <trkpt lat="45.24692" lon="0.54762">
        <ele>134.39999389648</ele>
        <time>2018-06-26T06:49:57.000Z</time>
      </trkpt>
      <trkpt lat="45.24689" lon="0.54789">
        <ele>135</ele>
        <time>2018-06-26T06:50:02.000Z</time>
      </trkpt>
      <trkpt lat="45.24689" lon="0.54794">
        <ele>135.19999694824</ele>
        <time>2018-06-26T06:50:03.000Z</time>
      </trkpt>
      <trkpt lat="45.24687" lon="0.54801">
        <ele>135.39999389648</ele>
        <time>2018-06-26T06:50:05.000Z</time>
      </trkpt>
      <trkpt lat="45.24684" lon="0.54806">
        <ele>135.80000305176</ele>
        <time>2018-06-26T06:50:07.000Z</time>
      </trkpt>
      <trkpt lat="45.24678" lon="0.54802">
        <ele>136.60000610352</ele>
        <time>2018-06-26T06:50:11.000Z</time>
      </trkpt>
      <trkpt lat="45.24665" lon="0.54788">
        <ele>137.39999389648</ele>
        <time>2018-06-26T06:50:17.000Z</time>
      </trkpt>
      <trkpt lat="45.24653" lon="0.54774">
        <ele>137.19999694824</ele>
        <time>2018-06-26T06:50:23.000Z</time>
      </trkpt>
      <trkpt lat="45.24643" lon="0.54758">
        <ele>137.60000610352</ele>
        <time>2018-06-26T06:50:33.000Z</time>
      </trkpt>
      <trkpt lat="45.24641" lon="0.54757">
        <ele>137.60000610352</ele>
        <time>2018-06-26T06:50:34.000Z</time>
      </trkpt>
      <trkpt lat="45.2464" lon="0.54755">
        <ele>137.60000610352</ele>
        <time>2018-06-26T06:50:35.000Z</time>
      </trkpt>
      <trkpt lat="45.24633" lon="0.54749">
        <ele>138.19999694824</ele>
        <time>2018-06-26T06:50:40.000Z</time>
      </trkpt>
      <trkpt lat="45.24629" lon="0.54749">
        <ele>138.39999389648</ele>
        <time>2018-06-26T06:50:42.000Z</time>
      </trkpt>
      <trkpt lat="45.24624" lon="0.54748">
        <ele>139</ele>
        <time>2018-06-26T06:50:44.000Z</time>
      </trkpt>
      <trkpt lat="45.24619" lon="0.54748">
        <ele>139.39999389648</ele>
        <time>2018-06-26T06:50:46.000Z</time>
      </trkpt>
      <trkpt lat="45.2461" lon="0.54747">
        <ele>140</ele>
        <time>2018-06-26T06:50:50.000Z</time>
      </trkpt>
      <trkpt lat="45.24603" lon="0.54744">
        <ele>140.60000610352</ele>
        <time>2018-06-26T06:50:54.000Z</time>
      </trkpt>
      <trkpt lat="45.24595" lon="0.54743">
        <ele>141.19999694824</ele>
        <time>2018-06-26T06:50:57.000Z</time>
      </trkpt>
      <trkpt lat="45.24585" lon="0.54744">
        <ele>142</ele>
        <time>2018-06-26T06:51:01.000Z</time>
      </trkpt>
      <trkpt lat="45.24583" lon="0.54743">
        <ele>142.39999389648</ele>
        <time>2018-06-26T06:51:02.000Z</time>
      </trkpt>
      <trkpt lat="45.24574" lon="0.54745">
        <ele>143.39999389648</ele>
        <time>2018-06-26T06:51:06.000Z</time>
      </trkpt>
      <trkpt lat="45.24526" lon="0.54765">
        <ele>150.60000610352</ele>
        <time>2018-06-26T06:51:31.000Z</time>
      </trkpt>
      <trkpt lat="45.2452" lon="0.54771">
        <ele>151.80000305176</ele>
        <time>2018-06-26T06:51:35.000Z</time>
      </trkpt>
      <trkpt lat="45.24512" lon="0.54778">
        <ele>152.60000610352</ele>
        <time>2018-06-26T06:51:39.000Z</time>
      </trkpt>
      <trkpt lat="45.24509" lon="0.54781">
        <ele>152.80000305176</ele>
        <time>2018-06-26T06:51:40.000Z</time>
      </trkpt>
      <trkpt lat="45.24501" lon="0.54787">
        <ele>153.80000305176</ele>
        <time>2018-06-26T06:51:44.000Z</time>
      </trkpt>
      <trkpt lat="45.24499" lon="0.54788">
        <ele>154</ele>
        <time>2018-06-26T06:51:45.000Z</time>
      </trkpt>
      <trkpt lat="45.24469" lon="0.54831">
        <ele>159.80000305176</ele>
        <time>2018-06-26T06:52:07.000Z</time>
      </trkpt>
      <trkpt lat="45.24466" lon="0.54835">
        <ele>160.19999694824</ele>
        <time>2018-06-26T06:52:09.000Z</time>
      </trkpt>
      <trkpt lat="45.24463" lon="0.54839">
        <ele>160.80000305176</ele>
        <time>2018-06-26T06:52:11.000Z</time>
      </trkpt>
      <trkpt lat="45.24456" lon="0.54846">
        <ele>162</ele>
        <time>2018-06-26T06:52:15.000Z</time>
      </trkpt>
      <trkpt lat="45.24457" lon="0.54845">
        <ele>162.60000610352</ele>
        <time>2018-06-26T06:52:16.000Z</time>
      </trkpt>
      <trkpt lat="45.2445" lon="0.54853">
        <ele>163.19999694824</ele>
        <time>2018-06-26T06:52:19.000Z</time>
      </trkpt>
      <trkpt lat="45.24446" lon="0.54862">
        <ele>163.80000305176</ele>
        <time>2018-06-26T06:52:23.000Z</time>
      </trkpt>
      <trkpt lat="45.24444" lon="0.5487">
        <ele>164.39999389648</ele>
        <time>2018-06-26T06:52:26.000Z</time>
      </trkpt>
      <trkpt lat="45.24436" lon="0.54879">
        <ele>165</ele>
        <time>2018-06-26T06:52:30.000Z</time>
      </trkpt>
      <trkpt lat="45.24433" lon="0.54884">
        <ele>165.39999389648</ele>
        <time>2018-06-26T06:52:32.000Z</time>
      </trkpt>
      <trkpt lat="45.24427" lon="0.54896">
        <ele>166.60000610352</ele>
        <time>2018-06-26T06:52:37.000Z</time>
      </trkpt>
      <trkpt lat="45.24424" lon="0.54899">
        <ele>167</ele>
        <time>2018-06-26T06:52:39.000Z</time>
      </trkpt>
      <trkpt lat="45.2441" lon="0.54932">
        <ele>170.19999694824</ele>
        <time>2018-06-26T06:52:53.000Z</time>
      </trkpt>
      <trkpt lat="45.24405" lon="0.54938">
        <ele>170.80000305176</ele>
        <time>2018-06-26T06:52:56.000Z</time>
      </trkpt>
      <trkpt lat="45.244" lon="0.54943">
        <ele>171.19999694824</ele>
        <time>2018-06-26T06:52:59.000Z</time>
      </trkpt>
      <trkpt lat="45.2437" lon="0.54994">
        <ele>175.60000610352</ele>
        <time>2018-06-26T06:53:19.000Z</time>
      </trkpt>
      <trkpt lat="45.24354" lon="0.55012">
        <ele>176.60000610352</ele>
        <time>2018-06-26T06:53:25.000Z</time>
      </trkpt>
      <trkpt lat="45.24352" lon="0.55015">
        <ele>177</ele>
        <time>2018-06-26T06:53:26.000Z</time>
      </trkpt>
      <trkpt lat="45.24344" lon="0.55025">
        <ele>177.80000305176</ele>
        <time>2018-06-26T06:53:30.000Z</time>
      </trkpt>
      <trkpt lat="45.2434" lon="0.5503">
        <ele>178</ele>
        <time>2018-06-26T06:53:32.000Z</time>
      </trkpt>
      <trkpt lat="45.24326" lon="0.55049">
        <ele>178.80000305176</ele>
        <time>2018-06-26T06:53:38.000Z</time>
      </trkpt>
      <trkpt lat="45.24325" lon="0.55053">
        <ele>179</ele>
        <time>2018-06-26T06:53:39.000Z</time>
      </trkpt>
      <trkpt lat="45.24312" lon="0.55075">
        <ele>180</ele>
        <time>2018-06-26T06:53:46.000Z</time>
      </trkpt>
      <trkpt lat="45.24296" lon="0.551">
        <ele>180.80000305176</ele>
        <time>2018-06-26T06:53:53.000Z</time>
      </trkpt>
      <trkpt lat="45.2429" lon="0.5511">
        <ele>181</ele>
        <time>2018-06-26T06:53:56.000Z</time>
      </trkpt>
      <trkpt lat="45.24284" lon="0.5512">
        <ele>181.39999389648</ele>
        <time>2018-06-26T06:53:59.000Z</time>
      </trkpt>
      <trkpt lat="45.24268" lon="0.55138">
        <ele>181.80000305176</ele>
        <time>2018-06-26T06:54:04.000Z</time>
      </trkpt>
      <trkpt lat="45.24243" lon="0.55161">
        <ele>181.80000305176</ele>
        <time>2018-06-26T06:54:10.000Z</time>
      </trkpt>
      <trkpt lat="45.24234" lon="0.55169">
        <ele>182</ele>
        <time>2018-06-26T06:54:12.000Z</time>
      </trkpt>
      <trkpt lat="45.24219" lon="0.55181">
        <ele>181.80000305176</ele>
        <time>2018-06-26T06:54:16.000Z</time>
      </trkpt>
      <trkpt lat="45.24191" lon="0.55205">
        <ele>181.80000305176</ele>
        <time>2018-06-26T06:54:23.000Z</time>
      </trkpt>
      <trkpt lat="45.24161" lon="0.55233">
        <ele>181.39999389648</ele>
        <time>2018-06-26T06:54:30.000Z</time>
      </trkpt>
      <trkpt lat="45.24124" lon="0.55266">
        <ele>181</ele>
        <time>2018-06-26T06:54:38.000Z</time>
      </trkpt>
      <trkpt lat="45.24104" lon="0.55282">
        <ele>179.80000305176</ele>
        <time>2018-06-26T06:54:42.000Z</time>
      </trkpt>
      <trkpt lat="45.24093" lon="0.55289">
        <ele>179.39999389648</ele>
        <time>2018-06-26T06:54:44.000Z</time>
      </trkpt>
      <trkpt lat="45.24088" lon="0.55292">
        <ele>179.19999694824</ele>
        <time>2018-06-26T06:54:45.000Z</time>
      </trkpt>
      <trkpt lat="45.24076" lon="0.55296">
        <ele>178.80000305176</ele>
        <time>2018-06-26T06:54:47.000Z</time>
      </trkpt>
      <trkpt lat="45.2407" lon="0.55296">
        <ele>178.80000305176</ele>
        <time>2018-06-26T06:54:48.000Z</time>
      </trkpt>
      <trkpt lat="45.24057" lon="0.55295">
        <ele>178.60000610352</ele>
        <time>2018-06-26T06:54:50.000Z</time>
      </trkpt>
      <trkpt lat="45.24022" lon="0.55286">
        <ele>178.60000610352</ele>
        <time>2018-06-26T06:54:56.000Z</time>
      </trkpt>
      <trkpt lat="45.2399" lon="0.55282">
        <ele>179</ele>
        <time>2018-06-26T06:55:02.000Z</time>
      </trkpt>
      <trkpt lat="45.23985" lon="0.55283">
        <ele>179</ele>
        <time>2018-06-26T06:55:03.000Z</time>
      </trkpt>
      <trkpt lat="45.2398" lon="0.55295">
        <ele>179.80000305176</ele>
        <time>2018-06-26T06:55:05.000Z</time>
      </trkpt>
      <trkpt lat="45.2398" lon="0.55302">
        <ele>180</ele>
        <time>2018-06-26T06:55:06.000Z</time>
      </trkpt>
      <trkpt lat="45.2398" lon="0.55316">
        <ele>179.60000610352</ele>
        <time>2018-06-26T06:55:08.000Z</time>
      </trkpt>
      <trkpt lat="45.23979" lon="0.5536">
        <ele>178.60000610352</ele>
        <time>2018-06-26T06:55:14.000Z</time>
      </trkpt>
      <trkpt lat="45.23979" lon="0.55369">
        <ele>178.19999694824</ele>
        <time>2018-06-26T06:55:15.000Z</time>
      </trkpt>
      <trkpt lat="45.23977" lon="0.55396">
        <ele>177.19999694824</ele>
        <time>2018-06-26T06:55:18.000Z</time>
      </trkpt>
      <trkpt lat="45.23971" lon="0.55437">
        <ele>176.19999694824</ele>
        <time>2018-06-26T06:55:23.000Z</time>
      </trkpt>
      <trkpt lat="45.23968" lon="0.55444">
        <ele>176.19999694824</ele>
        <time>2018-06-26T06:55:24.000Z</time>
      </trkpt>
      <trkpt lat="45.23955" lon="0.55458">
        <ele>176</ele>
        <time>2018-06-26T06:55:27.000Z</time>
      </trkpt>
      <trkpt lat="45.23941" lon="0.55467">
        <ele>176</ele>
        <time>2018-06-26T06:55:30.000Z</time>
      </trkpt>
      <trkpt lat="45.23927" lon="0.55474">
        <ele>176.39999389648</ele>
        <time>2018-06-26T06:55:33.000Z</time>
      </trkpt>
      <trkpt lat="45.23896" lon="0.55491">
        <ele>176</ele>
        <time>2018-06-26T06:55:39.000Z</time>
      </trkpt>
      <trkpt lat="45.23891" lon="0.55496">
        <ele>175.80000305176</ele>
        <time>2018-06-26T06:55:40.000Z</time>
      </trkpt>
      <trkpt lat="45.23875" lon="0.55511">
        <ele>175.19999694824</ele>
        <time>2018-06-26T06:55:43.000Z</time>
      </trkpt>
      <trkpt lat="45.23871" lon="0.5552">
        <ele>174.80000305176</ele>
        <time>2018-06-26T06:55:44.000Z</time>
      </trkpt>
      <trkpt lat="45.23867" lon="0.55554">
        <ele>173.39999389648</ele>
        <time>2018-06-26T06:55:47.000Z</time>
      </trkpt>
      <trkpt lat="45.23868" lon="0.55588">
        <ele>172.19999694824</ele>
        <time>2018-06-26T06:55:50.000Z</time>
      </trkpt>
      <trkpt lat="45.23869" lon="0.55611">
        <ele>170.80000305176</ele>
        <time>2018-06-26T06:55:52.000Z</time>
      </trkpt>
      <trkpt lat="45.2387" lon="0.55637">
        <ele>169.39999389648</ele>
        <time>2018-06-26T06:55:54.000Z</time>
      </trkpt>
      <trkpt lat="45.23871" lon="0.5565">
        <ele>168.39999389648</ele>
        <time>2018-06-26T06:55:55.000Z</time>
      </trkpt>
      <trkpt lat="45.23871" lon="0.55664">
        <ele>167.39999389648</ele>
        <time>2018-06-26T06:55:56.000Z</time>
      </trkpt>
      <trkpt lat="45.23871" lon="0.55705">
        <ele>166.19999694824</ele>
        <time>2018-06-26T06:55:59.000Z</time>
      </trkpt>
      <trkpt lat="45.2387" lon="0.55732">
        <ele>165.19999694824</ele>
        <time>2018-06-26T06:56:01.000Z</time>
      </trkpt>
      <trkpt lat="45.23865" lon="0.55767">
        <ele>164.19999694824</ele>
        <time>2018-06-26T06:56:04.000Z</time>
      </trkpt>
      <trkpt lat="45.23863" lon="0.55778">
        <ele>163.80000305176</ele>
        <time>2018-06-26T06:56:05.000Z</time>
      </trkpt>
      <trkpt lat="45.23861" lon="0.55805">
        <ele>162.80000305176</ele>
        <time>2018-06-26T06:56:08.000Z</time>
      </trkpt>
      <trkpt lat="45.23862" lon="0.55813">
        <ele>162.60000610352</ele>
        <time>2018-06-26T06:56:09.000Z</time>
      </trkpt>
      <trkpt lat="45.23867" lon="0.55833">
        <ele>163.80000305176</ele>
        <time>2018-06-26T06:56:12.000Z</time>
      </trkpt>
      <trkpt lat="45.23873" lon="0.55849">
        <ele>164.80000305176</ele>
        <time>2018-06-26T06:56:15.000Z</time>
      </trkpt>
      <trkpt lat="45.23876" lon="0.55858">
        <ele>166.19999694824</ele>
        <time>2018-06-26T06:56:17.000Z</time>
      </trkpt>
      <trkpt lat="45.2388" lon="0.55866">
        <ele>167.19999694824</ele>
        <time>2018-06-26T06:56:19.000Z</time>
      </trkpt>
      <trkpt lat="45.23884" lon="0.55877">
        <ele>168.19999694824</ele>
        <time>2018-06-26T06:56:22.000Z</time>
      </trkpt>
      <trkpt lat="45.23888" lon="0.55887">
        <ele>169.39999389648</ele>
        <time>2018-06-26T06:56:25.000Z</time>
      </trkpt>
      <trkpt lat="45.2389" lon="0.55891">
        <ele>169.60000610352</ele>
        <time>2018-06-26T06:56:26.000Z</time>
      </trkpt>
      <trkpt lat="45.23894" lon="0.55901">
        <ele>170.39999389648</ele>
        <time>2018-06-26T06:56:29.000Z</time>
      </trkpt>
      <trkpt lat="45.239" lon="0.55913">
        <ele>171.60000610352</ele>
        <time>2018-06-26T06:56:33.000Z</time>
      </trkpt>
      <trkpt lat="45.23904" lon="0.55923">
        <ele>172.80000305176</ele>
        <time>2018-06-26T06:56:36.000Z</time>
      </trkpt>
      <trkpt lat="45.23909" lon="0.55935">
        <ele>174.19999694824</ele>
        <time>2018-06-26T06:56:40.000Z</time>
      </trkpt>
      <trkpt lat="45.23912" lon="0.55942">
        <ele>174.60000610352</ele>
        <time>2018-06-26T06:56:42.000Z</time>
      </trkpt>
      <trkpt lat="45.23915" lon="0.55951">
        <ele>175.19999694824</ele>
        <time>2018-06-26T06:56:45.000Z</time>
      </trkpt>
      <trkpt lat="45.2392" lon="0.55963">
        <ele>176.39999389648</ele>
        <time>2018-06-26T06:56:49.000Z</time>
      </trkpt>
      <trkpt lat="45.23921" lon="0.55967">
        <ele>176.60000610352</ele>
        <time>2018-06-26T06:56:50.000Z</time>
      </trkpt>
      <trkpt lat="45.23927" lon="0.55978">
        <ele>177.60000610352</ele>
        <time>2018-06-26T06:56:54.000Z</time>
      </trkpt>
      <trkpt lat="45.2393" lon="0.55982">
        <ele>178.19999694824</ele>
        <time>2018-06-26T06:56:56.000Z</time>
      </trkpt>
      <trkpt lat="45.23932" lon="0.55986">
        <ele>178.39999389648</ele>
        <time>2018-06-26T06:56:59.000Z</time>
      </trkpt>
      <trkpt lat="45.23934" lon="0.55989">
        <ele>178.60000610352</ele>
        <time>2018-06-26T06:57:01.000Z</time>
      </trkpt>
      <trkpt lat="45.23936" lon="0.55992">
        <ele>178.60000610352</ele>
        <time>2018-06-26T06:57:02.000Z</time>
      </trkpt>
      <trkpt lat="45.23939" lon="0.55998">
        <ele>179.39999389648</ele>
        <time>2018-06-26T06:57:04.000Z</time>
      </trkpt>
      <trkpt lat="45.2394" lon="0.56">
        <ele>179.60000610352</ele>
        <time>2018-06-26T06:57:05.000Z</time>
      </trkpt>
      <trkpt lat="45.23941" lon="0.56001">
        <ele>180</ele>
        <time>2018-06-26T06:57:06.000Z</time>
      </trkpt>
      <trkpt lat="45.23942" lon="0.56001">
        <ele>180</ele>
        <time>2018-06-26T06:57:07.000Z</time>
      </trkpt>
      <trkpt lat="45.23944" lon="0.56">
        <ele>180</ele>
        <time>2018-06-26T06:57:09.000Z</time>
      </trkpt>
      <trkpt lat="45.23944" lon="0.56">
        <ele>180</ele>
        <time>2018-06-26T06:57:10.000Z</time>
      </trkpt>
      <trkpt lat="45.23949" lon="0.55998">
        <ele>180.19999694824</ele>
        <time>2018-06-26T06:57:27.000Z</time>
      </trkpt>
      <trkpt lat="45.23953" lon="0.55997">
        <ele>180.60000610352</ele>
        <time>2018-06-26T06:57:29.000Z</time>
      </trkpt>
      <trkpt lat="45.23956" lon="0.55996">
        <ele>180.80000305176</ele>
        <time>2018-06-26T06:57:30.000Z</time>
      </trkpt>
      <trkpt lat="45.23969" lon="0.55996">
        <ele>181.39999389648</ele>
        <time>2018-06-26T06:57:35.000Z</time>
      </trkpt>
      <trkpt lat="45.23978" lon="0.55994">
        <ele>181.80000305176</ele>
        <time>2018-06-26T06:57:38.000Z</time>
      </trkpt>
      <trkpt lat="45.2399" lon="0.55991">
        <ele>182.39999389648</ele>
        <time>2018-06-26T06:57:42.000Z</time>
      </trkpt>
      <trkpt lat="45.24011" lon="0.55987">
        <ele>182.19999694824</ele>
        <time>2018-06-26T06:57:48.000Z</time>
      </trkpt>
      <trkpt lat="45.24032" lon="0.55984">
        <ele>180.60000610352</ele>
        <time>2018-06-26T06:57:54.000Z</time>
      </trkpt>
      <trkpt lat="45.24036" lon="0.55982">
        <ele>180.39999389648</ele>
        <time>2018-06-26T06:57:55.000Z</time>
      </trkpt>
      <trkpt lat="45.24045" lon="0.55981">
        <ele>179.39999389648</ele>
        <time>2018-06-26T06:57:58.000Z</time>
      </trkpt>
      <trkpt lat="45.24047" lon="0.55983">
        <ele>179.19999694824</ele>
        <time>2018-06-26T06:57:59.000Z</time>
      </trkpt>
      <trkpt lat="45.24063" lon="0.55996">
        <ele>179</ele>
        <time>2018-06-26T06:58:05.000Z</time>
      </trkpt>
      <trkpt lat="45.24081" lon="0.5601">
        <ele>178.19999694824</ele>
        <time>2018-06-26T06:58:10.000Z</time>
      </trkpt>
      <trkpt lat="45.2409" lon="0.56016">
        <ele>178</ele>
        <time>2018-06-26T06:58:12.000Z</time>
      </trkpt>
      <trkpt lat="45.241" lon="0.56024">
        <ele>177.19999694824</ele>
        <time>2018-06-26T06:58:14.000Z</time>
      </trkpt>
      <trkpt lat="45.24109" lon="0.56028">
        <ele>176.80000305176</ele>
        <time>2018-06-26T06:58:16.000Z</time>
      </trkpt>
      <trkpt lat="45.24115" lon="0.56028">
        <ele>175.80000305176</ele>
        <time>2018-06-26T06:58:17.000Z</time>
      </trkpt>
      <trkpt lat="45.2412" lon="0.56029">
        <ele>175.19999694824</ele>
        <time>2018-06-26T06:58:18.000Z</time>
      </trkpt>
      <trkpt lat="45.24126" lon="0.56031">
        <ele>174.80000305176</ele>
        <time>2018-06-26T06:58:19.000Z</time>
      </trkpt>
      <trkpt lat="45.24136" lon="0.56035">
        <ele>173.60000610352</ele>
        <time>2018-06-26T06:58:21.000Z</time>
      </trkpt>
      <trkpt lat="45.24141" lon="0.56038">
        <ele>173</ele>
        <time>2018-06-26T06:58:22.000Z</time>
      </trkpt>
      <trkpt lat="45.24147" lon="0.56041">
        <ele>172.39999389648</ele>
        <time>2018-06-26T06:58:23.000Z</time>
      </trkpt>
      <trkpt lat="45.24158" lon="0.56046">
        <ele>171</ele>
        <time>2018-06-26T06:58:25.000Z</time>
      </trkpt>
      <trkpt lat="45.24169" lon="0.56051">
        <ele>169.39999389648</ele>
        <time>2018-06-26T06:58:27.000Z</time>
      </trkpt>
      <trkpt lat="45.24178" lon="0.56048">
        <ele>167.80000305176</ele>
        <time>2018-06-26T06:58:29.000Z</time>
      </trkpt>
      <trkpt lat="45.24182" lon="0.56044">
        <ele>167.19999694824</ele>
        <time>2018-06-26T06:58:30.000Z</time>
      </trkpt>
      <trkpt lat="45.24189" lon="0.56035">
        <ele>166.60000610352</ele>
        <time>2018-06-26T06:58:32.000Z</time>
      </trkpt>
      <trkpt lat="45.242" lon="0.5602">
        <ele>165.19999694824</ele>
        <time>2018-06-26T06:58:35.000Z</time>
      </trkpt>
      <trkpt lat="45.2421" lon="0.56008">
        <ele>164.19999694824</ele>
        <time>2018-06-26T06:58:37.000Z</time>
      </trkpt>
      <trkpt lat="45.24219" lon="0.55998">
        <ele>162.60000610352</ele>
        <time>2018-06-26T06:58:39.000Z</time>
      </trkpt>
      <trkpt lat="45.24225" lon="0.55994">
        <ele>161.80000305176</ele>
        <time>2018-06-26T06:58:40.000Z</time>
      </trkpt>
      <trkpt lat="45.2423" lon="0.55992">
        <ele>160.19999694824</ele>
        <time>2018-06-26T06:58:41.000Z</time>
      </trkpt>
      <trkpt lat="45.24242" lon="0.55997">
        <ele>159.60000610352</ele>
        <time>2018-06-26T06:58:44.000Z</time>
      </trkpt>
      <trkpt lat="45.24245" lon="0.55997">
        <ele>159.80000305176</ele>
        <time>2018-06-26T06:58:45.000Z</time>
      </trkpt>
      <trkpt lat="45.24248" lon="0.55995">
        <ele>160</ele>
        <time>2018-06-26T06:58:47.000Z</time>
      </trkpt>
      <trkpt lat="45.2425" lon="0.55993">
        <ele>160.19999694824</ele>
        <time>2018-06-26T06:58:48.000Z</time>
      </trkpt>
      <trkpt lat="45.24258" lon="0.55981">
        <ele>161</ele>
        <time>2018-06-26T06:58:52.000Z</time>
      </trkpt>
      <trkpt lat="45.24259" lon="0.55979">
        <ele>161.19999694824</ele>
        <time>2018-06-26T06:58:53.000Z</time>
      </trkpt>
      <trkpt lat="45.24263" lon="0.55976">
        <ele>161.60000610352</ele>
        <time>2018-06-26T06:58:54.000Z</time>
      </trkpt>
      <trkpt lat="45.24281" lon="0.55958">
        <ele>162.39999389648</ele>
        <time>2018-06-26T06:58:58.000Z</time>
      </trkpt>
      <trkpt lat="45.24299" lon="0.55937">
        <ele>163.19999694824</ele>
        <time>2018-06-26T06:59:03.000Z</time>
      </trkpt>
      <trkpt lat="45.24305" lon="0.5593">
        <ele>163.60000610352</ele>
        <time>2018-06-26T06:59:05.000Z</time>
      </trkpt>
      <trkpt lat="45.24316" lon="0.55911">
        <ele>163.60000610352</ele>
        <time>2018-06-26T06:59:09.000Z</time>
      </trkpt>
      <trkpt lat="45.24333" lon="0.55887">
        <ele>162.60000610352</ele>
        <time>2018-06-26T06:59:14.000Z</time>
      </trkpt>
      <trkpt lat="45.24354" lon="0.55862">
        <ele>161.80000305176</ele>
        <time>2018-06-26T06:59:19.000Z</time>
      </trkpt>
      <trkpt lat="45.24369" lon="0.55849">
        <ele>161.60000610352</ele>
        <time>2018-06-26T06:59:22.000Z</time>
      </trkpt>
      <trkpt lat="45.24387" lon="0.55835">
        <ele>160.80000305176</ele>
        <time>2018-06-26T06:59:26.000Z</time>
      </trkpt>
      <trkpt lat="45.24397" lon="0.55827">
        <ele>160.39999389648</ele>
        <time>2018-06-26T06:59:28.000Z</time>
      </trkpt>
      <trkpt lat="45.24411" lon="0.55819">
        <ele>160</ele>
        <time>2018-06-26T06:59:31.000Z</time>
      </trkpt>
      <trkpt lat="45.2442" lon="0.55817">
        <ele>159.80000305176</ele>
        <time>2018-06-26T06:59:33.000Z</time>
      </trkpt>
      <trkpt lat="45.24439" lon="0.55825">
        <ele>160.39999389648</ele>
        <time>2018-06-26T06:59:37.000Z</time>
      </trkpt>
      <trkpt lat="45.24443" lon="0.55829">
        <ele>160.60000610352</ele>
        <time>2018-06-26T06:59:38.000Z</time>
      </trkpt>
      <trkpt lat="45.24458" lon="0.55841">
        <ele>161.39999389648</ele>
        <time>2018-06-26T06:59:42.000Z</time>
      </trkpt>
      <trkpt lat="45.24468" lon="0.55854">
        <ele>161.19999694824</ele>
        <time>2018-06-26T06:59:46.000Z</time>
      </trkpt>
      <trkpt lat="45.24474" lon="0.55875">
        <ele>161</ele>
        <time>2018-06-26T06:59:50.000Z</time>
      </trkpt>
      <trkpt lat="45.24479" lon="0.55919">
        <ele>162</ele>
        <time>2018-06-26T06:59:57.000Z</time>
      </trkpt>
      <trkpt lat="45.24489" lon="0.55963">
        <ele>161.80000305176</ele>
        <time>2018-06-26T07:00:04.000Z</time>
      </trkpt>
      <trkpt lat="45.24496" lon="0.55999">
        <ele>162</ele>
        <time>2018-06-26T07:00:10.000Z</time>
      </trkpt>
      <trkpt lat="45.24501" lon="0.56027">
        <ele>162.60000610352</ele>
        <time>2018-06-26T07:00:15.000Z</time>
      </trkpt>
      <trkpt lat="45.24502" lon="0.56033">
        <ele>162.80000305176</ele>
        <time>2018-06-26T07:00:16.000Z</time>
      </trkpt>
      <trkpt lat="45.24508" lon="0.56058">
        <ele>163</ele>
        <time>2018-06-26T07:00:21.000Z</time>
      </trkpt>
      <trkpt lat="45.24514" lon="0.56085">
        <ele>162.80000305176</ele>
        <time>2018-06-26T07:00:26.000Z</time>
      </trkpt>
      <trkpt lat="45.2452" lon="0.56116">
        <ele>162.19999694824</ele>
        <time>2018-06-26T07:00:31.000Z</time>
      </trkpt>
      <trkpt lat="45.24523" lon="0.56123">
        <ele>161.60000610352</ele>
        <time>2018-06-26T07:00:32.000Z</time>
      </trkpt>
      <trkpt lat="45.24533" lon="0.5614">
        <ele>160.39999389648</ele>
        <time>2018-06-26T07:00:35.000Z</time>
      </trkpt>
      <trkpt lat="45.24536" lon="0.56145">
        <ele>160</ele>
        <time>2018-06-26T07:00:36.000Z</time>
      </trkpt>
      <trkpt lat="45.24546" lon="0.5617">
        <ele>159.19999694824</ele>
        <time>2018-06-26T07:00:39.000Z</time>
      </trkpt>
      <trkpt lat="45.24546" lon="0.56184">
        <ele>158</ele>
        <time>2018-06-26T07:00:41.000Z</time>
      </trkpt>
      <trkpt lat="45.24543" lon="0.56196">
        <ele>157</ele>
        <time>2018-06-26T07:00:43.000Z</time>
      </trkpt>
      <trkpt lat="45.24536" lon="0.56206">
        <ele>156.19999694824</ele>
        <time>2018-06-26T07:00:45.000Z</time>
      </trkpt>
      <trkpt lat="45.24533" lon="0.5621">
        <ele>155.60000610352</ele>
        <time>2018-06-26T07:00:46.000Z</time>
      </trkpt>
      <trkpt lat="45.24524" lon="0.56218">
        <ele>154.60000610352</ele>
        <time>2018-06-26T07:00:48.000Z</time>
      </trkpt>
      <trkpt lat="45.24511" lon="0.56228">
        <ele>154.39999389648</ele>
        <time>2018-06-26T07:00:50.000Z</time>
      </trkpt>
      <trkpt lat="45.24501" lon="0.56234">
        <ele>154</ele>
        <time>2018-06-26T07:00:52.000Z</time>
      </trkpt>
      <trkpt lat="45.24489" lon="0.56247">
        <ele>153.80000305176</ele>
        <time>2018-06-26T07:00:55.000Z</time>
      </trkpt>
      <trkpt lat="45.24466" lon="0.56275">
        <ele>154</ele>
        <time>2018-06-26T07:01:02.000Z</time>
      </trkpt>
      <trkpt lat="45.24451" lon="0.56293">
        <ele>155.19999694824</ele>
        <time>2018-06-26T07:01:07.000Z</time>
      </trkpt>
      <trkpt lat="45.24443" lon="0.56311">
        <ele>155.60000610352</ele>
        <time>2018-06-26T07:01:12.000Z</time>
      </trkpt>
      <trkpt lat="45.24443" lon="0.56315">
        <ele>155.60000610352</ele>
        <time>2018-06-26T07:01:13.000Z</time>
      </trkpt>
      <trkpt lat="45.24442" lon="0.56329">
        <ele>155.60000610352</ele>
        <time>2018-06-26T07:01:17.000Z</time>
      </trkpt>
      <trkpt lat="45.24441" lon="0.56331">
        <ele>155.60000610352</ele>
        <time>2018-06-26T07:01:18.000Z</time>
      </trkpt>
      <trkpt lat="45.24432" lon="0.56345">
        <ele>156.19999694824</ele>
        <time>2018-06-26T07:01:24.000Z</time>
      </trkpt>
      <trkpt lat="45.24429" lon="0.56351">
        <ele>156.60000610352</ele>
        <time>2018-06-26T07:01:26.000Z</time>
      </trkpt>
      <trkpt lat="45.24422" lon="0.56366">
        <ele>157</ele>
        <time>2018-06-26T07:01:31.000Z</time>
      </trkpt>
      <trkpt lat="45.24414" lon="0.5638">
        <ele>157.80000305176</ele>
        <time>2018-06-26T07:01:36.000Z</time>
      </trkpt>
      <trkpt lat="45.2441" lon="0.56387">
        <ele>158.19999694824</ele>
        <time>2018-06-26T07:01:38.000Z</time>
      </trkpt>
      <trkpt lat="45.24404" lon="0.56399">
        <ele>159</ele>
        <time>2018-06-26T07:01:42.000Z</time>
      </trkpt>
      <trkpt lat="45.24398" lon="0.56405">
        <ele>159.80000305176</ele>
        <time>2018-06-26T07:01:45.000Z</time>
      </trkpt>
      <trkpt lat="45.24396" lon="0.56407">
        <ele>160.19999694824</ele>
        <time>2018-06-26T07:01:46.000Z</time>
      </trkpt>
      <trkpt lat="45.2439" lon="0.56415">
        <ele>161.39999389648</ele>
        <time>2018-06-26T07:01:50.000Z</time>
      </trkpt>
      <trkpt lat="45.24388" lon="0.56417">
        <ele>161.60000610352</ele>
        <time>2018-06-26T07:01:51.000Z</time>
      </trkpt>
      <trkpt lat="45.24382" lon="0.56423">
        <ele>162.39999389648</ele>
        <time>2018-06-26T07:01:54.000Z</time>
      </trkpt>
      <trkpt lat="45.24378" lon="0.56429">
        <ele>163.39999389648</ele>
        <time>2018-06-26T07:01:57.000Z</time>
      </trkpt>
      <trkpt lat="45.24377" lon="0.56432">
        <ele>163.60000610352</ele>
        <time>2018-06-26T07:01:58.000Z</time>
      </trkpt>
      <trkpt lat="45.2437" lon="0.56447">
        <ele>164.60000610352</ele>
        <time>2018-06-26T07:02:04.000Z</time>
      </trkpt>
      <trkpt lat="45.24363" lon="0.56467">
        <ele>166</ele>
        <time>2018-06-26T07:02:11.000Z</time>
      </trkpt>
      <trkpt lat="45.24353" lon="0.56481">
        <ele>167</ele>
        <time>2018-06-26T07:02:16.000Z</time>
      </trkpt>
      <trkpt lat="45.2435" lon="0.56486">
        <ele>167.80000305176</ele>
        <time>2018-06-26T07:02:18.000Z</time>
      </trkpt>
      <trkpt lat="45.24345" lon="0.5649">
        <ele>168.39999389648</ele>
        <time>2018-06-26T07:02:20.000Z</time>
      </trkpt>
      <trkpt lat="45.24339" lon="0.56496">
        <ele>169.39999389648</ele>
        <time>2018-06-26T07:02:24.000Z</time>
      </trkpt>
      <trkpt lat="45.24336" lon="0.56503">
        <ele>170.60000610352</ele>
        <time>2018-06-26T07:02:28.000Z</time>
      </trkpt>
      <trkpt lat="45.24336" lon="0.56506">
        <ele>170.80000305176</ele>
        <time>2018-06-26T07:02:29.000Z</time>
      </trkpt>
      <trkpt lat="45.24341" lon="0.56522">
        <ele>170.60000610352</ele>
        <time>2018-06-26T07:02:34.000Z</time>
      </trkpt>
      <trkpt lat="45.24349" lon="0.56542">
        <ele>169.60000610352</ele>
        <time>2018-06-26T07:02:38.000Z</time>
      </trkpt>
      <trkpt lat="45.24357" lon="0.56562">
        <ele>167.80000305176</ele>
        <time>2018-06-26T07:02:41.000Z</time>
      </trkpt>
      <trkpt lat="45.24362" lon="0.56575">
        <ele>166.60000610352</ele>
        <time>2018-06-26T07:02:43.000Z</time>
      </trkpt>
      <trkpt lat="45.24366" lon="0.56583">
        <ele>165.39999389648</ele>
        <time>2018-06-26T07:02:45.000Z</time>
      </trkpt>
      <trkpt lat="45.24368" lon="0.56589">
        <ele>164.60000610352</ele>
        <time>2018-06-26T07:02:47.000Z</time>
      </trkpt>
      <trkpt lat="45.2436" lon="0.56603">
        <ele>165</ele>
        <time>2018-06-26T07:02:53.000Z</time>
      </trkpt>
      <trkpt lat="45.24349" lon="0.56616">
        <ele>165</ele>
        <time>2018-06-26T07:03:00.000Z</time>
      </trkpt>
      <trkpt lat="45.2434" lon="0.56626">
        <ele>165.19999694824</ele>
        <time>2018-06-26T07:03:22.000Z</time>
      </trkpt>
      <trkpt lat="45.24338" lon="0.56628">
        <ele>165.39999389648</ele>
        <time>2018-06-26T07:03:23.000Z</time>
      </trkpt>
      <trkpt lat="45.24321" lon="0.56641">
        <ele>166.39999389648</ele>
        <time>2018-06-26T07:03:29.000Z</time>
      </trkpt>
      <trkpt lat="45.24308" lon="0.5665">
        <ele>167.19999694824</ele>
        <time>2018-06-26T07:03:35.000Z</time>
      </trkpt>
      <trkpt lat="45.24301" lon="0.56656">
        <ele>167.60000610352</ele>
        <time>2018-06-26T07:03:39.000Z</time>
      </trkpt>
      <trkpt lat="45.24296" lon="0.5666">
        <ele>167.60000610352</ele>
        <time>2018-06-26T07:03:41.000Z</time>
      </trkpt>
      <trkpt lat="45.24282" lon="0.56667">
        <ele>168.19999694824</ele>
        <time>2018-06-26T07:03:47.000Z</time>
      </trkpt>
      <trkpt lat="45.24278" lon="0.5667">
        <ele>168.60000610352</ele>
        <time>2018-06-26T07:03:49.000Z</time>
      </trkpt>
      <trkpt lat="45.24271" lon="0.56677">
        <ele>169</ele>
        <time>2018-06-26T07:03:53.000Z</time>
      </trkpt>
      <trkpt lat="45.24257" lon="0.56692">
        <ele>169.39999389648</ele>
        <time>2018-06-26T07:04:00.000Z</time>
      </trkpt>
      <trkpt lat="45.24252" lon="0.56698">
        <ele>169.80000305176</ele>
        <time>2018-06-26T07:04:02.000Z</time>
      </trkpt>
      <trkpt lat="45.24226" lon="0.56715">
        <ele>170</ele>
        <time>2018-06-26T07:04:08.000Z</time>
      </trkpt>
      <trkpt lat="45.24205" lon="0.56739">
        <ele>170.80000305176</ele>
        <time>2018-06-26T07:04:14.000Z</time>
      </trkpt>
      <trkpt lat="45.24202" lon="0.56743">
        <ele>171</ele>
        <time>2018-06-26T07:04:15.000Z</time>
      </trkpt>
      <trkpt lat="45.24182" lon="0.56768">
        <ele>171.60000610352</ele>
        <time>2018-06-26T07:04:20.000Z</time>
      </trkpt>
      <trkpt lat="45.24172" lon="0.56795">
        <ele>172.19999694824</ele>
        <time>2018-06-26T07:04:25.000Z</time>
      </trkpt>
      <trkpt lat="45.24166" lon="0.56817">
        <ele>173.19999694824</ele>
        <time>2018-06-26T07:04:30.000Z</time>
      </trkpt>
      <trkpt lat="45.24162" lon="0.56834">
        <ele>174</ele>
        <time>2018-06-26T07:04:34.000Z</time>
      </trkpt>
      <trkpt lat="45.24159" lon="0.56846">
        <ele>174.39999389648</ele>
        <time>2018-06-26T07:04:37.000Z</time>
      </trkpt>
      <trkpt lat="45.24156" lon="0.56861">
        <ele>175.60000610352</ele>
        <time>2018-06-26T07:04:41.000Z</time>
      </trkpt>
      <trkpt lat="45.24155" lon="0.56866">
        <ele>175.60000610352</ele>
        <time>2018-06-26T07:04:42.000Z</time>
      </trkpt>
      <trkpt lat="45.24148" lon="0.5688">
        <ele>176</ele>
        <time>2018-06-26T07:04:47.000Z</time>
      </trkpt>
      <trkpt lat="45.24146" lon="0.56882">
        <ele>176.19999694824</ele>
        <time>2018-06-26T07:04:48.000Z</time>
      </trkpt>
      <trkpt lat="45.24138" lon="0.56885">
        <ele>176.60000610352</ele>
        <time>2018-06-26T07:04:51.000Z</time>
      </trkpt>
      <trkpt lat="45.24114" lon="0.56888">
        <ele>176.80000305176</ele>
        <time>2018-06-26T07:04:59.000Z</time>
      </trkpt>
      <trkpt lat="45.24094" lon="0.56891">
        <ele>177.60000610352</ele>
        <time>2018-06-26T07:05:05.000Z</time>
      </trkpt>
      <trkpt lat="45.24091" lon="0.56892">
        <ele>177.60000610352</ele>
        <time>2018-06-26T07:05:06.000Z</time>
      </trkpt>
      <trkpt lat="45.24073" lon="0.56896">
        <ele>178</ele>
        <time>2018-06-26T07:05:13.000Z</time>
      </trkpt>
      <trkpt lat="45.24058" lon="0.56899">
        <ele>178.80000305176</ele>
        <time>2018-06-26T07:05:19.000Z</time>
      </trkpt>
      <trkpt lat="45.24055" lon="0.569">
        <ele>178.80000305176</ele>
        <time>2018-06-26T07:05:20.000Z</time>
      </trkpt>
      <trkpt lat="45.24036" lon="0.56907">
        <ele>179.39999389648</ele>
        <time>2018-06-26T07:05:28.000Z</time>
      </trkpt>
      <trkpt lat="45.2403" lon="0.56909">
        <ele>179.80000305176</ele>
        <time>2018-06-26T07:05:30.000Z</time>
      </trkpt>
      <trkpt lat="45.24016" lon="0.56915">
        <ele>179.80000305176</ele>
        <time>2018-06-26T07:05:35.000Z</time>
      </trkpt>
      <trkpt lat="45.2399" lon="0.56924">
        <ele>180.39999389648</ele>
        <time>2018-06-26T07:05:44.000Z</time>
      </trkpt>
      <trkpt lat="45.2398" lon="0.56926">
        <ele>180.80000305176</ele>
        <time>2018-06-26T07:05:48.000Z</time>
      </trkpt>
      <trkpt lat="45.23963" lon="0.56931">
        <ele>181.39999389648</ele>
        <time>2018-06-26T07:05:54.000Z</time>
      </trkpt>
      <trkpt lat="45.23956" lon="0.56933">
        <ele>181.80000305176</ele>
        <time>2018-06-26T07:05:57.000Z</time>
      </trkpt>
      <trkpt lat="45.23946" lon="0.56936">
        <ele>182.80000305176</ele>
        <time>2018-06-26T07:06:01.000Z</time>
      </trkpt>
      <trkpt lat="45.23941" lon="0.56937">
        <ele>183</ele>
        <time>2018-06-26T07:06:03.000Z</time>
      </trkpt>
      <trkpt lat="45.23931" lon="0.56941">
        <ele>183.60000610352</ele>
        <time>2018-06-26T07:06:08.000Z</time>
      </trkpt>
      <trkpt lat="45.23926" lon="0.56943">
        <ele>184</ele>
        <time>2018-06-26T07:06:10.000Z</time>
      </trkpt>
      <trkpt lat="45.23912" lon="0.56949">
        <ele>185</ele>
        <time>2018-06-26T07:06:16.000Z</time>
      </trkpt>
      <trkpt lat="45.239" lon="0.56955">
        <ele>186.19999694824</ele>
        <time>2018-06-26T07:06:21.000Z</time>
      </trkpt>
      <trkpt lat="45.23892" lon="0.56961">
        <ele>186.60000610352</ele>
        <time>2018-06-26T07:06:25.000Z</time>
      </trkpt>
      <trkpt lat="45.23883" lon="0.56966">
        <ele>187.39999389648</ele>
        <time>2018-06-26T07:06:29.000Z</time>
      </trkpt>
      <trkpt lat="45.23874" lon="0.56971">
        <ele>188</ele>
        <time>2018-06-26T07:06:33.000Z</time>
      </trkpt>
      <trkpt lat="45.23868" lon="0.56976">
        <ele>188.60000610352</ele>
        <time>2018-06-26T07:06:36.000Z</time>
      </trkpt>
      <trkpt lat="45.23859" lon="0.56982">
        <ele>189</ele>
        <time>2018-06-26T07:06:40.000Z</time>
      </trkpt>
      <trkpt lat="45.23857" lon="0.56983">
        <ele>189.60000610352</ele>
        <time>2018-06-26T07:06:41.000Z</time>
      </trkpt>
      <trkpt lat="45.23839" lon="0.5699">
        <ele>190.80000305176</ele>
        <time>2018-06-26T07:06:48.000Z</time>
      </trkpt>
      <trkpt lat="45.23837" lon="0.5699">
        <ele>191</ele>
        <time>2018-06-26T07:06:49.000Z</time>
      </trkpt>
      <trkpt lat="45.23821" lon="0.56992">
        <ele>191.39999389648</ele>
        <time>2018-06-26T07:06:55.000Z</time>
      </trkpt>
      <trkpt lat="45.23813" lon="0.56994">
        <ele>191.80000305176</ele>
        <time>2018-06-26T07:06:58.000Z</time>
      </trkpt>
      <trkpt lat="45.23802" lon="0.56998">
        <ele>192.60000610352</ele>
        <time>2018-06-26T07:07:03.000Z</time>
      </trkpt>
      <trkpt lat="45.23797" lon="0.57">
        <ele>193.19999694824</ele>
        <time>2018-06-26T07:07:05.000Z</time>
      </trkpt>
      <trkpt lat="45.23787" lon="0.57006">
        <ele>194</ele>
        <time>2018-06-26T07:07:10.000Z</time>
      </trkpt>
      <trkpt lat="45.23786" lon="0.57007">
        <ele>194.39999389648</ele>
        <time>2018-06-26T07:07:11.000Z</time>
      </trkpt>
      <trkpt lat="45.23778" lon="0.57012">
        <ele>195.19999694824</ele>
        <time>2018-06-26T07:07:16.000Z</time>
      </trkpt>
      <trkpt lat="45.23777" lon="0.57013">
        <ele>195.39999389648</ele>
        <time>2018-06-26T07:07:17.000Z</time>
      </trkpt>
      <trkpt lat="45.2377" lon="0.57018">
        <ele>196.39999389648</ele>
        <time>2018-06-26T07:07:22.000Z</time>
      </trkpt>
      <trkpt lat="45.23769" lon="0.57019">
        <ele>196.60000610352</ele>
        <time>2018-06-26T07:07:23.000Z</time>
      </trkpt>
      <trkpt lat="45.23758" lon="0.57024">
        <ele>197.60000610352</ele>
        <time>2018-06-26T07:07:48.000Z</time>
      </trkpt>
      <trkpt lat="45.23757" lon="0.57026">
        <ele>197.80000305176</ele>
        <time>2018-06-26T07:07:49.000Z</time>
      </trkpt>
      <trkpt lat="45.23756" lon="0.57028">
        <ele>198</ele>
        <time>2018-06-26T07:07:50.000Z</time>
      </trkpt>
      <trkpt lat="45.23751" lon="0.57031">
        <ele>198.80000305176</ele>
        <time>2018-06-26T07:07:54.000Z</time>
      </trkpt>
      <trkpt lat="45.23747" lon="0.57033">
        <ele>199</ele>
        <time>2018-06-26T07:07:56.000Z</time>
      </trkpt>
      <trkpt lat="45.2374" lon="0.57037">
        <ele>199.80000305176</ele>
        <time>2018-06-26T07:08:01.000Z</time>
      </trkpt>
      <trkpt lat="45.23734" lon="0.57041">
        <ele>200.39999389648</ele>
        <time>2018-06-26T07:08:04.000Z</time>
      </trkpt>
      <trkpt lat="45.23725" lon="0.57041">
        <ele>201</ele>
        <time>2018-06-26T07:08:08.000Z</time>
      </trkpt>
      <trkpt lat="45.2372" lon="0.5704">
        <ele>201.39999389648</ele>
        <time>2018-06-26T07:08:10.000Z</time>
      </trkpt>
      <trkpt lat="45.23709" lon="0.57032">
        <ele>202</ele>
        <time>2018-06-26T07:08:15.000Z</time>
      </trkpt>
      <trkpt lat="45.23706" lon="0.57031">
        <ele>202.19999694824</ele>
        <time>2018-06-26T07:08:16.000Z</time>
      </trkpt>
      <trkpt lat="45.23695" lon="0.57025">
        <ele>203.19999694824</ele>
        <time>2018-06-26T07:08:21.000Z</time>
      </trkpt>
      <trkpt lat="45.23687" lon="0.57019">
        <ele>203.80000305176</ele>
        <time>2018-06-26T07:08:25.000Z</time>
      </trkpt>
      <trkpt lat="45.23671" lon="0.57006">
        <ele>204.39999389648</ele>
        <time>2018-06-26T07:08:32.000Z</time>
      </trkpt>
      <trkpt lat="45.23665" lon="0.57002">
        <ele>204.60000610352</ele>
        <time>2018-06-26T07:08:34.000Z</time>
      </trkpt>
      <trkpt lat="45.23649" lon="0.57003">
        <ele>205</ele>
        <time>2018-06-26T07:08:40.000Z</time>
      </trkpt>
      <trkpt lat="45.23629" lon="0.5701">
        <ele>205.19999694824</ele>
        <time>2018-06-26T07:08:47.000Z</time>
      </trkpt>
      <trkpt lat="45.23619" lon="0.57016">
        <ele>205.39999389648</ele>
        <time>2018-06-26T07:08:51.000Z</time>
      </trkpt>
      <trkpt lat="45.23619" lon="0.5702">
        <ele>205.60000610352</ele>
        <time>2018-06-26T07:08:52.000Z</time>
      </trkpt>
      <trkpt lat="45.23624" lon="0.57039">
        <ele>206</ele>
        <time>2018-06-26T07:08:56.000Z</time>
      </trkpt>
      <trkpt lat="45.23626" lon="0.57043">
        <ele>206</ele>
        <time>2018-06-26T07:08:57.000Z</time>
      </trkpt>
      <trkpt lat="45.23638" lon="0.57072">
        <ele>206</ele>
        <time>2018-06-26T07:09:03.000Z</time>
      </trkpt>
      <trkpt lat="45.23648" lon="0.57097">
        <ele>206</ele>
        <time>2018-06-26T07:09:09.000Z</time>
      </trkpt>
      <trkpt lat="45.23649" lon="0.571">
        <ele>206</ele>
        <time>2018-06-26T07:09:10.000Z</time>
      </trkpt>
      <trkpt lat="45.23663" lon="0.5713">
        <ele>206.60000610352</ele>
        <time>2018-06-26T07:09:17.000Z</time>
      </trkpt>
      <trkpt lat="45.23664" lon="0.57134">
        <ele>206.60000610352</ele>
        <time>2018-06-26T07:09:18.000Z</time>
      </trkpt>
      <trkpt lat="45.23677" lon="0.57162">
        <ele>206.39999389648</ele>
        <time>2018-06-26T07:09:25.000Z</time>
      </trkpt>
      <trkpt lat="45.23689" lon="0.57186">
        <ele>206.19999694824</ele>
        <time>2018-06-26T07:09:31.000Z</time>
      </trkpt>
      <trkpt lat="45.2369" lon="0.5719">
        <ele>206.19999694824</ele>
        <time>2018-06-26T07:09:32.000Z</time>
      </trkpt>
      <trkpt lat="45.23687" lon="0.57197">
        <ele>206</ele>
        <time>2018-06-26T07:09:34.000Z</time>
      </trkpt>
      <trkpt lat="45.23678" lon="0.57203">
        <ele>206.39999389648</ele>
        <time>2018-06-26T07:09:37.000Z</time>
      </trkpt>
      <trkpt lat="45.23674" lon="0.57205">
        <ele>206.60000610352</ele>
        <time>2018-06-26T07:09:38.000Z</time>
      </trkpt>
      <trkpt lat="45.23663" lon="0.57213">
        <ele>206.60000610352</ele>
        <time>2018-06-26T07:09:41.000Z</time>
      </trkpt>
      <trkpt lat="45.23655" lon="0.57219">
        <ele>206.60000610352</ele>
        <time>2018-06-26T07:09:43.000Z</time>
      </trkpt>
      <trkpt lat="45.23645" lon="0.57238">
        <ele>206</ele>
        <time>2018-06-26T07:09:47.000Z</time>
      </trkpt>
      <trkpt lat="45.23644" lon="0.57256">
        <ele>206</ele>
        <time>2018-06-26T07:09:50.000Z</time>
      </trkpt>
      <trkpt lat="45.23644" lon="0.57263">
        <ele>205.80000305176</ele>
        <time>2018-06-26T07:09:51.000Z</time>
      </trkpt>
      <trkpt lat="45.23644" lon="0.57269">
        <ele>205.80000305176</ele>
        <time>2018-06-26T07:09:52.000Z</time>
      </trkpt>
      <trkpt lat="45.23642" lon="0.57275">
        <ele>205.39999389648</ele>
        <time>2018-06-26T07:09:53.000Z</time>
      </trkpt>
      <trkpt lat="45.23635" lon="0.57284">
        <ele>205</ele>
        <time>2018-06-26T07:09:55.000Z</time>
      </trkpt>
      <trkpt lat="45.23626" lon="0.5729">
        <ele>205</ele>
        <time>2018-06-26T07:09:57.000Z</time>
      </trkpt>
      <trkpt lat="45.23611" lon="0.573">
        <ele>204.39999389648</ele>
        <time>2018-06-26T07:10:01.000Z</time>
      </trkpt>
      <trkpt lat="45.23584" lon="0.57313">
        <ele>203.60000610352</ele>
        <time>2018-06-26T07:10:07.000Z</time>
      </trkpt>
      <trkpt lat="45.23574" lon="0.57316">
        <ele>203</ele>
        <time>2018-06-26T07:10:09.000Z</time>
      </trkpt>
      <trkpt lat="45.23554" lon="0.57322">
        <ele>202.39999389648</ele>
        <time>2018-06-26T07:10:14.000Z</time>
      </trkpt>
      <trkpt lat="45.23546" lon="0.57325">
        <ele>201.80000305176</ele>
        <time>2018-06-26T07:10:17.000Z</time>
      </trkpt>
      <trkpt lat="45.23542" lon="0.57327">
        <ele>201.19999694824</ele>
        <time>2018-06-26T07:10:19.000Z</time>
      </trkpt>
      <trkpt lat="45.23531" lon="0.57329">
        <ele>200.80000305176</ele>
        <time>2018-06-26T07:10:24.000Z</time>
      </trkpt>
      <trkpt lat="45.23528" lon="0.57331">
        <ele>200.80000305176</ele>
        <time>2018-06-26T07:10:25.000Z</time>
      </trkpt>
      <trkpt lat="45.23515" lon="0.57334">
        <ele>199.80000305176</ele>
        <time>2018-06-26T07:10:31.000Z</time>
      </trkpt>
      <trkpt lat="45.23512" lon="0.57334">
        <ele>199.60000610352</ele>
        <time>2018-06-26T07:10:32.000Z</time>
      </trkpt>
      <trkpt lat="45.23506" lon="0.57334">
        <ele>199</ele>
        <time>2018-06-26T07:10:36.000Z</time>
      </trkpt>
      <trkpt lat="45.23504" lon="0.57335">
        <ele>199</ele>
        <time>2018-06-26T07:10:37.000Z</time>
      </trkpt>
      <trkpt lat="45.23501" lon="0.57346">
        <ele>198.80000305176</ele>
        <time>2018-06-26T07:10:42.000Z</time>
      </trkpt>
      <trkpt lat="45.235" lon="0.57356">
        <ele>198.80000305176</ele>
        <time>2018-06-26T07:10:45.000Z</time>
      </trkpt>
      <trkpt lat="45.23502" lon="0.57367">
        <ele>198.60000610352</ele>
        <time>2018-06-26T07:10:48.000Z</time>
      </trkpt>
      <trkpt lat="45.23504" lon="0.57391">
        <ele>198.39999389648</ele>
        <time>2018-06-26T07:10:54.000Z</time>
      </trkpt>
      <trkpt lat="45.23507" lon="0.57422">
        <ele>197.60000610352</ele>
        <time>2018-06-26T07:11:00.000Z</time>
      </trkpt>
      <trkpt lat="45.23508" lon="0.5743">
        <ele>197.39999389648</ele>
        <time>2018-06-26T07:11:02.000Z</time>
      </trkpt>
      <trkpt lat="45.23511" lon="0.57441">
        <ele>196.80000305176</ele>
        <time>2018-06-26T07:11:05.000Z</time>
      </trkpt>
      <trkpt lat="45.23515" lon="0.57453">
        <ele>196.19999694824</ele>
        <time>2018-06-26T07:11:08.000Z</time>
      </trkpt>
      <trkpt lat="45.2352" lon="0.57471">
        <ele>195.39999389648</ele>
        <time>2018-06-26T07:11:11.000Z</time>
      </trkpt>
      <trkpt lat="45.23521" lon="0.57477">
        <ele>195</ele>
        <time>2018-06-26T07:11:12.000Z</time>
      </trkpt>
      <trkpt lat="45.23524" lon="0.57492">
        <ele>193.60000610352</ele>
        <time>2018-06-26T07:11:15.000Z</time>
      </trkpt>
      <trkpt lat="45.23529" lon="0.575">
        <ele>193</ele>
        <time>2018-06-26T07:11:17.000Z</time>
      </trkpt>
      <trkpt lat="45.23535" lon="0.57505">
        <ele>193</ele>
        <time>2018-06-26T07:11:20.000Z</time>
      </trkpt>
      <trkpt lat="45.23538" lon="0.57506">
        <ele>193</ele>
        <time>2018-06-26T07:11:21.000Z</time>
      </trkpt>
      <trkpt lat="45.23548" lon="0.5751">
        <ele>193.39999389648</ele>
        <time>2018-06-26T07:11:25.000Z</time>
      </trkpt>
      <trkpt lat="45.2355" lon="0.57513">
        <ele>193.39999389648</ele>
        <time>2018-06-26T07:11:26.000Z</time>
      </trkpt>
      <trkpt lat="45.23559" lon="0.57525">
        <ele>194.80000305176</ele>
        <time>2018-06-26T07:11:32.000Z</time>
      </trkpt>
      <trkpt lat="45.23561" lon="0.57528">
        <ele>195</ele>
        <time>2018-06-26T07:11:33.000Z</time>
      </trkpt>
      <trkpt lat="45.23572" lon="0.57543">
        <ele>195.80000305176</ele>
        <time>2018-06-26T07:11:37.000Z</time>
      </trkpt>
      <trkpt lat="45.23579" lon="0.57549">
        <ele>196.19999694824</ele>
        <time>2018-06-26T07:11:39.000Z</time>
      </trkpt>
      <trkpt lat="45.23586" lon="0.57558">
        <ele>196.80000305176</ele>
        <time>2018-06-26T07:11:42.000Z</time>
      </trkpt>
      <trkpt lat="45.23593" lon="0.57572">
        <ele>197.80000305176</ele>
        <time>2018-06-26T07:11:46.000Z</time>
      </trkpt>
      <trkpt lat="45.23595" lon="0.5759">
        <ele>199</ele>
        <time>2018-06-26T07:11:52.000Z</time>
      </trkpt>
      <trkpt lat="45.23595" lon="0.57594">
        <ele>199.19999694824</ele>
        <time>2018-06-26T07:11:53.000Z</time>
      </trkpt>
      <trkpt lat="45.23592" lon="0.5761">
        <ele>199.60000610352</ele>
        <time>2018-06-26T07:11:58.000Z</time>
      </trkpt>
      <trkpt lat="45.23592" lon="0.57618">
        <ele>200.19999694824</ele>
        <time>2018-06-26T07:12:00.000Z</time>
      </trkpt>
      <trkpt lat="45.23591" lon="0.57637">
        <ele>200.39999389648</ele>
        <time>2018-06-26T07:12:04.000Z</time>
      </trkpt>
      <trkpt lat="45.23593" lon="0.57661">
        <ele>200.80000305176</ele>
        <time>2018-06-26T07:12:10.000Z</time>
      </trkpt>
      <trkpt lat="45.236" lon="0.57689">
        <ele>201</ele>
        <time>2018-06-26T07:12:17.000Z</time>
      </trkpt>
      <trkpt lat="45.236" lon="0.57699">
        <ele>201</ele>
        <time>2018-06-26T07:12:19.000Z</time>
      </trkpt>
      <trkpt lat="45.23598" lon="0.57713">
        <ele>201</ele>
        <time>2018-06-26T07:12:22.000Z</time>
      </trkpt>
      <trkpt lat="45.23597" lon="0.57718">
        <ele>201</ele>
        <time>2018-06-26T07:12:23.000Z</time>
      </trkpt>
      <trkpt lat="45.23595" lon="0.57751">
        <ele>200.19999694824</ele>
        <time>2018-06-26T07:12:30.000Z</time>
      </trkpt>
      <trkpt lat="45.23588" lon="0.57779">
        <ele>199.60000610352</ele>
        <time>2018-06-26T07:12:36.000Z</time>
      </trkpt>
      <trkpt lat="45.23583" lon="0.57792">
        <ele>199</ele>
        <time>2018-06-26T07:12:39.000Z</time>
      </trkpt>
      <trkpt lat="45.23575" lon="0.57805">
        <ele>198.80000305176</ele>
        <time>2018-06-26T07:12:42.000Z</time>
      </trkpt>
      <trkpt lat="45.23568" lon="0.57813">
        <ele>198</ele>
        <time>2018-06-26T07:12:44.000Z</time>
      </trkpt>
      <trkpt lat="45.23553" lon="0.57833">
        <ele>198</ele>
        <time>2018-06-26T07:12:50.000Z</time>
      </trkpt>
      <trkpt lat="45.23539" lon="0.5785">
        <ele>197.60000610352</ele>
        <time>2018-06-26T07:12:56.000Z</time>
      </trkpt>
      <trkpt lat="45.2353" lon="0.57863">
        <ele>197</ele>
        <time>2018-06-26T07:13:00.000Z</time>
      </trkpt>
      <trkpt lat="45.23525" lon="0.57869">
        <ele>196.80000305176</ele>
        <time>2018-06-26T07:13:02.000Z</time>
      </trkpt>
      <trkpt lat="45.2351" lon="0.57889">
        <ele>196</ele>
        <time>2018-06-26T07:13:08.000Z</time>
      </trkpt>
      <trkpt lat="45.23508" lon="0.57893">
        <ele>196</ele>
        <time>2018-06-26T07:13:09.000Z</time>
      </trkpt>
      <trkpt lat="45.23502" lon="0.57902">
        <ele>194.80000305176</ele>
        <time>2018-06-26T07:13:12.000Z</time>
      </trkpt>
      <trkpt lat="45.23494" lon="0.57912">
        <ele>194.39999389648</ele>
        <time>2018-06-26T07:13:15.000Z</time>
      </trkpt>
      <trkpt lat="45.23488" lon="0.57921">
        <ele>193.80000305176</ele>
        <time>2018-06-26T07:13:18.000Z</time>
      </trkpt>
      <trkpt lat="45.23482" lon="0.57929">
        <ele>193.39999389648</ele>
        <time>2018-06-26T07:13:21.000Z</time>
      </trkpt>
      <trkpt lat="45.23467" lon="0.57946">
        <ele>192.80000305176</ele>
        <time>2018-06-26T07:13:29.000Z</time>
      </trkpt>
      <trkpt lat="45.23465" lon="0.57948">
        <ele>192.60000610352</ele>
        <time>2018-06-26T07:13:30.000Z</time>
      </trkpt>
      <trkpt lat="45.23449" lon="0.5796">
        <ele>191.80000305176</ele>
        <time>2018-06-26T07:13:37.000Z</time>
      </trkpt>
      <trkpt lat="45.23447" lon="0.57958">
        <ele>191.60000610352</ele>
        <time>2018-06-26T07:13:38.000Z</time>
      </trkpt>
      <trkpt lat="45.23445" lon="0.57952">
        <ele>191.60000610352</ele>
        <time>2018-06-26T07:13:40.000Z</time>
      </trkpt>
      <trkpt lat="45.23439" lon="0.5794">
        <ele>191.60000610352</ele>
        <time>2018-06-26T07:13:43.000Z</time>
      </trkpt>
      <trkpt lat="45.23436" lon="0.57932">
        <ele>191.80000305176</ele>
        <time>2018-06-26T07:13:45.000Z</time>
      </trkpt>
      <trkpt lat="45.23426" lon="0.57912">
        <ele>192.80000305176</ele>
        <time>2018-06-26T07:13:50.000Z</time>
      </trkpt>
      <trkpt lat="45.23421" lon="0.57904">
        <ele>193</ele>
        <time>2018-06-26T07:13:52.000Z</time>
      </trkpt>
      <trkpt lat="45.2341" lon="0.57883">
        <ele>193.80000305176</ele>
        <time>2018-06-26T07:13:57.000Z</time>
      </trkpt>
      <trkpt lat="45.23398" lon="0.57861">
        <ele>194.60000610352</ele>
        <time>2018-06-26T07:14:02.000Z</time>
      </trkpt>
      <trkpt lat="45.23381" lon="0.57822">
        <ele>193.60000610352</ele>
        <time>2018-06-26T07:14:09.000Z</time>
      </trkpt>
      <trkpt lat="45.2338" lon="0.57815">
        <ele>193.60000610352</ele>
        <time>2018-06-26T07:14:10.000Z</time>
      </trkpt>
      <trkpt lat="45.23375" lon="0.57788">
        <ele>193.19999694824</ele>
        <time>2018-06-26T07:14:14.000Z</time>
      </trkpt>
      <trkpt lat="45.23374" lon="0.57758">
        <ele>192.60000610352</ele>
        <time>2018-06-26T07:14:18.000Z</time>
      </trkpt>
      <trkpt lat="45.23373" lon="0.57742">
        <ele>192.39999389648</ele>
        <time>2018-06-26T07:14:20.000Z</time>
      </trkpt>
      <trkpt lat="45.23373" lon="0.57701">
        <ele>191.60000610352</ele>
        <time>2018-06-26T07:14:25.000Z</time>
      </trkpt>
      <trkpt lat="45.23373" lon="0.5769">
        <ele>191</ele>
        <time>2018-06-26T07:14:27.000Z</time>
      </trkpt>
      <trkpt lat="45.23374" lon="0.57686">
        <ele>190.60000610352</ele>
        <time>2018-06-26T07:14:28.000Z</time>
      </trkpt>
      <trkpt lat="45.23375" lon="0.57678">
        <ele>189.80000305176</ele>
        <time>2018-06-26T07:14:31.000Z</time>
      </trkpt>
      <trkpt lat="45.23374" lon="0.5767">
        <ele>189.80000305176</ele>
        <time>2018-06-26T07:15:39.000Z</time>
      </trkpt>
      <trkpt lat="45.23374" lon="0.57668">
        <ele>189.80000305176</ele>
        <time>2018-06-26T07:15:40.000Z</time>
      </trkpt>
      <trkpt lat="45.23374" lon="0.57663">
        <ele>189.60000610352</ele>
        <time>2018-06-26T07:15:42.000Z</time>
      </trkpt>
      <trkpt lat="45.23375" lon="0.57651">
        <ele>189.19999694824</ele>
        <time>2018-06-26T07:15:47.000Z</time>
      </trkpt>
      <trkpt lat="45.23375" lon="0.57634">
        <ele>189.19999694824</ele>
        <time>2018-06-26T07:15:52.000Z</time>
      </trkpt>
      <trkpt lat="45.23376" lon="0.57609">
        <ele>188.80000305176</ele>
        <time>2018-06-26T07:15:57.000Z</time>
      </trkpt>
      <trkpt lat="45.23376" lon="0.57602">
        <ele>188.60000610352</ele>
        <time>2018-06-26T07:15:58.000Z</time>
      </trkpt>
      <trkpt lat="45.23375" lon="0.57566">
        <ele>187.60000610352</ele>
        <time>2018-06-26T07:16:03.000Z</time>
      </trkpt>
      <trkpt lat="45.23375" lon="0.57557">
        <ele>187.39999389648</ele>
        <time>2018-06-26T07:16:04.000Z</time>
      </trkpt>
      <trkpt lat="45.2337" lon="0.57515">
        <ele>186.19999694824</ele>
        <time>2018-06-26T07:16:09.000Z</time>
      </trkpt>
      <trkpt lat="45.23362" lon="0.575">
        <ele>185.19999694824</ele>
        <time>2018-06-26T07:16:13.000Z</time>
      </trkpt>
      <trkpt lat="45.23359" lon="0.575">
        <ele>185</ele>
        <time>2018-06-26T07:16:14.000Z</time>
      </trkpt>
      <trkpt lat="45.23355" lon="0.57507">
        <ele>184.80000305176</ele>
        <time>2018-06-26T07:16:16.000Z</time>
      </trkpt>
      <trkpt lat="45.23352" lon="0.57522">
        <ele>183.60000610352</ele>
        <time>2018-06-26T07:16:19.000Z</time>
      </trkpt>
      <trkpt lat="45.23351" lon="0.57528">
        <ele>183.39999389648</ele>
        <time>2018-06-26T07:16:20.000Z</time>
      </trkpt>
      <trkpt lat="45.23348" lon="0.57539">
        <ele>182.60000610352</ele>
        <time>2018-06-26T07:16:22.000Z</time>
      </trkpt>
      <trkpt lat="45.23346" lon="0.57543">
        <ele>182.19999694824</ele>
        <time>2018-06-26T07:16:23.000Z</time>
      </trkpt>
      <trkpt lat="45.23343" lon="0.57547">
        <ele>182</ele>
        <time>2018-06-26T07:16:24.000Z</time>
      </trkpt>
      <trkpt lat="45.23332" lon="0.57558">
        <ele>181</ele>
        <time>2018-06-26T07:16:28.000Z</time>
      </trkpt>
      <trkpt lat="45.2333" lon="0.57562">
        <ele>180.80000305176</ele>
        <time>2018-06-26T07:16:29.000Z</time>
      </trkpt>
      <trkpt lat="45.23323" lon="0.57577">
        <ele>180</ele>
        <time>2018-06-26T07:16:33.000Z</time>
      </trkpt>
      <trkpt lat="45.23321" lon="0.57587">
        <ele>179.60000610352</ele>
        <time>2018-06-26T07:16:35.000Z</time>
      </trkpt>
      <trkpt lat="45.23316" lon="0.57627">
        <ele>179.39999389648</ele>
        <time>2018-06-26T07:16:43.000Z</time>
      </trkpt>
      <trkpt lat="45.23313" lon="0.57646">
        <ele>178.80000305176</ele>
        <time>2018-06-26T07:16:47.000Z</time>
      </trkpt>
      <trkpt lat="45.23311" lon="0.57656">
        <ele>178.60000610352</ele>
        <time>2018-06-26T07:16:49.000Z</time>
      </trkpt>
      <trkpt lat="45.23302" lon="0.57684">
        <ele>177.60000610352</ele>
        <time>2018-06-26T07:16:54.000Z</time>
      </trkpt>
      <trkpt lat="45.23301" lon="0.5769">
        <ele>177.60000610352</ele>
        <time>2018-06-26T07:16:55.000Z</time>
      </trkpt>
      <trkpt lat="45.23295" lon="0.57721">
        <ele>177.19999694824</ele>
        <time>2018-06-26T07:17:00.000Z</time>
      </trkpt>
      <trkpt lat="45.23292" lon="0.57734">
        <ele>176.60000610352</ele>
        <time>2018-06-26T07:17:02.000Z</time>
      </trkpt>
      <trkpt lat="45.23284" lon="0.57763">
        <ele>175.80000305176</ele>
        <time>2018-06-26T07:17:07.000Z</time>
      </trkpt>
      <trkpt lat="45.23275" lon="0.57785">
        <ele>175.60000610352</ele>
        <time>2018-06-26T07:17:11.000Z</time>
      </trkpt>
      <trkpt lat="45.23271" lon="0.57802">
        <ele>175</ele>
        <time>2018-06-26T07:17:14.000Z</time>
      </trkpt>
      <trkpt lat="45.23263" lon="0.57838">
        <ele>174.60000610352</ele>
        <time>2018-06-26T07:17:20.000Z</time>
      </trkpt>
      <trkpt lat="45.23261" lon="0.57843">
        <ele>174.39999389648</ele>
        <time>2018-06-26T07:17:21.000Z</time>
      </trkpt>
      <trkpt lat="45.23254" lon="0.57868">
        <ele>173.39999389648</ele>
        <time>2018-06-26T07:17:26.000Z</time>
      </trkpt>
      <trkpt lat="45.23252" lon="0.57874">
        <ele>173</ele>
        <time>2018-06-26T07:17:27.000Z</time>
      </trkpt>
      <trkpt lat="45.23241" lon="0.57902">
        <ele>172.80000305176</ele>
        <time>2018-06-26T07:17:32.000Z</time>
      </trkpt>
      <trkpt lat="45.23233" lon="0.57915">
        <ele>171.80000305176</ele>
        <time>2018-06-26T07:17:34.000Z</time>
      </trkpt>
      <trkpt lat="45.23221" lon="0.57938">
        <ele>171.39999389648</ele>
        <time>2018-06-26T07:17:37.000Z</time>
      </trkpt>
      <trkpt lat="45.23214" lon="0.57952">
        <ele>171</ele>
        <time>2018-06-26T07:17:39.000Z</time>
      </trkpt>
      <trkpt lat="45.23208" lon="0.57972">
        <ele>170.80000305176</ele>
        <time>2018-06-26T07:17:42.000Z</time>
      </trkpt>
      <trkpt lat="45.232" lon="0.57998">
        <ele>170.19999694824</ele>
        <time>2018-06-26T07:17:46.000Z</time>
      </trkpt>
      <trkpt lat="45.23197" lon="0.58004">
        <ele>170.19999694824</ele>
        <time>2018-06-26T07:17:47.000Z</time>
      </trkpt>
      <trkpt lat="45.23182" lon="0.58037">
        <ele>169.60000610352</ele>
        <time>2018-06-26T07:17:52.000Z</time>
      </trkpt>
      <trkpt lat="45.23177" lon="0.58049">
        <ele>169</ele>
        <time>2018-06-26T07:17:54.000Z</time>
      </trkpt>
      <trkpt lat="45.23174" lon="0.58054">
        <ele>168.80000305176</ele>
        <time>2018-06-26T07:17:55.000Z</time>
      </trkpt>
      <trkpt lat="45.23171" lon="0.58059">
        <ele>168.60000610352</ele>
        <time>2018-06-26T07:17:56.000Z</time>
      </trkpt>
      <trkpt lat="45.23165" lon="0.58067">
        <ele>168.19999694824</ele>
        <time>2018-06-26T07:17:58.000Z</time>
      </trkpt>
      <trkpt lat="45.23162" lon="0.58071">
        <ele>168.19999694824</ele>
        <time>2018-06-26T07:17:59.000Z</time>
      </trkpt>
      <trkpt lat="45.23149" lon="0.58094">
        <ele>167.80000305176</ele>
        <time>2018-06-26T07:18:03.000Z</time>
      </trkpt>
      <trkpt lat="45.23131" lon="0.58123">
        <ele>167.80000305176</ele>
        <time>2018-06-26T07:18:09.000Z</time>
      </trkpt>
      <trkpt lat="45.23126" lon="0.58134">
        <ele>167.39999389648</ele>
        <time>2018-06-26T07:18:11.000Z</time>
      </trkpt>
      <trkpt lat="45.23124" lon="0.5814">
        <ele>167.19999694824</ele>
        <time>2018-06-26T07:18:12.000Z</time>
      </trkpt>
      <trkpt lat="45.2312" lon="0.58158">
        <ele>166.80000305176</ele>
        <time>2018-06-26T07:18:14.000Z</time>
      </trkpt>
      <trkpt lat="45.23115" lon="0.58182">
        <ele>166.19999694824</ele>
        <time>2018-06-26T07:18:17.000Z</time>
      </trkpt>
      <trkpt lat="45.23112" lon="0.58196">
        <ele>165.39999389648</ele>
        <time>2018-06-26T07:18:19.000Z</time>
      </trkpt>
      <trkpt lat="45.23111" lon="0.58202">
        <ele>165.19999694824</ele>
        <time>2018-06-26T07:18:20.000Z</time>
      </trkpt>
      <trkpt lat="45.23109" lon="0.58208">
        <ele>165</ele>
        <time>2018-06-26T07:18:21.000Z</time>
      </trkpt>
      <trkpt lat="45.23101" lon="0.58219">
        <ele>165.19999694824</ele>
        <time>2018-06-26T07:18:24.000Z</time>
      </trkpt>
      <trkpt lat="45.23095" lon="0.58225">
        <ele>165.19999694824</ele>
        <time>2018-06-26T07:18:26.000Z</time>
      </trkpt>
      <trkpt lat="45.23081" lon="0.58236">
        <ele>165.39999389648</ele>
        <time>2018-06-26T07:18:30.000Z</time>
      </trkpt>
      <trkpt lat="45.23059" lon="0.58254">
        <ele>163.80000305176</ele>
        <time>2018-06-26T07:18:36.000Z</time>
      </trkpt>
      <trkpt lat="45.23032" lon="0.5828">
        <ele>162.60000610352</ele>
        <time>2018-06-26T07:18:42.000Z</time>
      </trkpt>
      <trkpt lat="45.23014" lon="0.58303">
        <ele>162.39999389648</ele>
        <time>2018-06-26T07:18:47.000Z</time>
      </trkpt>
      <trkpt lat="45.23003" lon="0.58322">
        <ele>162.39999389648</ele>
        <time>2018-06-26T07:18:51.000Z</time>
      </trkpt>
      <trkpt lat="45.23002" lon="0.58329">
        <ele>162.19999694824</ele>
        <time>2018-06-26T07:18:52.000Z</time>
      </trkpt>
      <trkpt lat="45.22989" lon="0.58362">
        <ele>161.60000610352</ele>
        <time>2018-06-26T07:18:57.000Z</time>
      </trkpt>
      <trkpt lat="45.22986" lon="0.58368">
        <ele>161.39999389648</ele>
        <time>2018-06-26T07:18:58.000Z</time>
      </trkpt>
      <trkpt lat="45.22976" lon="0.58384">
        <ele>161.19999694824</ele>
        <time>2018-06-26T07:19:01.000Z</time>
      </trkpt>
      <trkpt lat="45.22967" lon="0.58402">
        <ele>161.19999694824</ele>
        <time>2018-06-26T07:19:04.000Z</time>
      </trkpt>
      <trkpt lat="45.22962" lon="0.58414">
        <ele>161</ele>
        <time>2018-06-26T07:19:06.000Z</time>
      </trkpt>
      <trkpt lat="45.22958" lon="0.58427">
        <ele>160.19999694824</ele>
        <time>2018-06-26T07:19:08.000Z</time>
      </trkpt>
      <trkpt lat="45.22956" lon="0.58434">
        <ele>160.39999389648</ele>
        <time>2018-06-26T07:19:09.000Z</time>
      </trkpt>
      <trkpt lat="45.22952" lon="0.5844">
        <ele>160.39999389648</ele>
        <time>2018-06-26T07:19:10.000Z</time>
      </trkpt>
      <trkpt lat="45.22937" lon="0.5846">
        <ele>160.19999694824</ele>
        <time>2018-06-26T07:19:14.000Z</time>
      </trkpt>
      <trkpt lat="45.22916" lon="0.58483">
        <ele>159.39999389648</ele>
        <time>2018-06-26T07:19:20.000Z</time>
      </trkpt>
      <trkpt lat="45.22912" lon="0.58485">
        <ele>159.19999694824</ele>
        <time>2018-06-26T07:19:21.000Z</time>
      </trkpt>
      <trkpt lat="45.229" lon="0.58495">
        <ele>157.80000305176</ele>
        <time>2018-06-26T07:19:25.000Z</time>
      </trkpt>
      <trkpt lat="45.22897" lon="0.58497">
        <ele>157.60000610352</ele>
        <time>2018-06-26T07:19:26.000Z</time>
      </trkpt>
      <trkpt lat="45.22891" lon="0.58503">
        <ele>156.80000305176</ele>
        <time>2018-06-26T07:19:30.000Z</time>
      </trkpt>
      <trkpt lat="45.22893" lon="0.58514">
        <ele>156.80000305176</ele>
        <time>2018-06-26T07:19:39.000Z</time>
      </trkpt>
      <trkpt lat="45.22903" lon="0.58513">
        <ele>157.39999389648</ele>
        <time>2018-06-26T07:19:44.000Z</time>
      </trkpt>
      <trkpt lat="45.22907" lon="0.58515">
        <ele>157.39999389648</ele>
        <time>2018-06-26T07:19:46.000Z</time>
      </trkpt>
      <trkpt lat="45.22917" lon="0.58521">
        <ele>157.80000305176</ele>
        <time>2018-06-26T07:19:51.000Z</time>
      </trkpt>
      <trkpt lat="45.22924" lon="0.58522">
        <ele>158.80000305176</ele>
        <time>2018-06-26T07:19:54.000Z</time>
      </trkpt>
      <trkpt lat="45.2293" lon="0.58523">
        <ele>159.60000610352</ele>
        <time>2018-06-26T07:19:57.000Z</time>
      </trkpt>
      <trkpt lat="45.22937" lon="0.58526">
        <ele>160</ele>
        <time>2018-06-26T07:20:00.000Z</time>
      </trkpt>
      <trkpt lat="45.2294" lon="0.58528">
        <ele>160.19999694824</ele>
        <time>2018-06-26T07:20:01.000Z</time>
      </trkpt>
      <trkpt lat="45.22949" lon="0.58537">
        <ele>161</ele>
        <time>2018-06-26T07:20:04.000Z</time>
      </trkpt>
      <trkpt lat="45.22952" lon="0.5854">
        <ele>161.19999694824</ele>
        <time>2018-06-26T07:20:05.000Z</time>
      </trkpt>
      <trkpt lat="45.22961" lon="0.5855">
        <ele>162.39999389648</ele>
        <time>2018-06-26T07:20:10.000Z</time>
      </trkpt>
      <trkpt lat="45.22965" lon="0.58559">
        <ele>163.80000305176</ele>
        <time>2018-06-26T07:20:15.000Z</time>
      </trkpt>
      <trkpt lat="45.22972" lon="0.58572">
        <ele>165.19999694824</ele>
        <time>2018-06-26T07:20:21.000Z</time>
      </trkpt>
      <trkpt lat="45.22977" lon="0.58584">
        <ele>165.80000305176</ele>
        <time>2018-06-26T07:20:25.000Z</time>
      </trkpt>
      <trkpt lat="45.2298" lon="0.58591">
        <ele>166.19999694824</ele>
        <time>2018-06-26T07:20:28.000Z</time>
      </trkpt>
      <trkpt lat="45.22984" lon="0.58598">
        <ele>166.80000305176</ele>
        <time>2018-06-26T07:20:31.000Z</time>
      </trkpt>
      <trkpt lat="45.22986" lon="0.58603">
        <ele>167.39999389648</ele>
        <time>2018-06-26T07:20:33.000Z</time>
      </trkpt>
      <trkpt lat="45.22989" lon="0.58617">
        <ele>167.80000305176</ele>
        <time>2018-06-26T07:20:38.000Z</time>
      </trkpt>
      <trkpt lat="45.2299" lon="0.58625">
        <ele>168.39999389648</ele>
        <time>2018-06-26T07:20:41.000Z</time>
      </trkpt>
      <trkpt lat="45.22991" lon="0.58633">
        <ele>169.60000610352</ele>
        <time>2018-06-26T07:20:45.000Z</time>
      </trkpt>
      <trkpt lat="45.22991" lon="0.58635">
        <ele>169.80000305176</ele>
        <time>2018-06-26T07:20:46.000Z</time>
      </trkpt>
      <trkpt lat="45.22993" lon="0.5864">
        <ele>170.39999389648</ele>
        <time>2018-06-26T07:20:49.000Z</time>
      </trkpt>
      <trkpt lat="45.22994" lon="0.58641">
        <ele>170.60000610352</ele>
        <time>2018-06-26T07:20:50.000Z</time>
      </trkpt>
      <trkpt lat="45.22996" lon="0.58643">
        <ele>171</ele>
        <time>2018-06-26T07:20:52.000Z</time>
      </trkpt>
      <trkpt lat="45.22998" lon="0.58645">
        <ele>171.60000610352</ele>
        <time>2018-06-26T07:20:54.000Z</time>
      </trkpt>
      <trkpt lat="45.23002" lon="0.58648">
        <ele>172.39999389648</ele>
        <time>2018-06-26T07:20:58.000Z</time>
      </trkpt>
      <trkpt lat="45.23004" lon="0.58649">
        <ele>172.60000610352</ele>
        <time>2018-06-26T07:21:00.000Z</time>
      </trkpt>
      <trkpt lat="45.23008" lon="0.58654">
        <ele>173.80000305176</ele>
        <time>2018-06-26T07:21:04.000Z</time>
      </trkpt>
      <trkpt lat="45.23009" lon="0.58655">
        <ele>174.19999694824</ele>
        <time>2018-06-26T07:21:05.000Z</time>
      </trkpt>
      <trkpt lat="45.23013" lon="0.58657">
        <ele>175</ele>
        <time>2018-06-26T07:21:08.000Z</time>
      </trkpt>
      <trkpt lat="45.23022" lon="0.5866">
        <ele>175.39999389648</ele>
        <time>2018-06-26T07:21:13.000Z</time>
      </trkpt>
      <trkpt lat="45.23028" lon="0.58663">
        <ele>176</ele>
        <time>2018-06-26T07:21:16.000Z</time>
      </trkpt>
      <trkpt lat="45.23037" lon="0.58665">
        <ele>176.60000610352</ele>
        <time>2018-06-26T07:21:20.000Z</time>
      </trkpt>
      <trkpt lat="45.23043" lon="0.58665">
        <ele>177.19999694824</ele>
        <time>2018-06-26T07:21:24.000Z</time>
      </trkpt>
      <trkpt lat="45.23047" lon="0.58665">
        <ele>177.60000610352</ele>
        <time>2018-06-26T07:21:27.000Z</time>
      </trkpt>
      <trkpt lat="45.23052" lon="0.58667">
        <ele>178.39999389648</ele>
        <time>2018-06-26T07:21:31.000Z</time>
      </trkpt>
      <trkpt lat="45.23054" lon="0.5867">
        <ele>178.80000305176</ele>
        <time>2018-06-26T07:21:33.000Z</time>
      </trkpt>
      <trkpt lat="45.23057" lon="0.58676">
        <ele>179.60000610352</ele>
        <time>2018-06-26T07:21:37.000Z</time>
      </trkpt>
      <trkpt lat="45.23058" lon="0.58678">
        <ele>179.80000305176</ele>
        <time>2018-06-26T07:21:39.000Z</time>
      </trkpt>
      <trkpt lat="45.2306" lon="0.58683">
        <ele>180.60000610352</ele>
        <time>2018-06-26T07:21:42.000Z</time>
      </trkpt>
      <trkpt lat="45.23063" lon="0.5869">
        <ele>181.39999389648</ele>
        <time>2018-06-26T07:21:46.000Z</time>
      </trkpt>
      <trkpt lat="45.23066" lon="0.58692">
        <ele>181.80000305176</ele>
        <time>2018-06-26T07:21:48.000Z</time>
      </trkpt>
      <trkpt lat="45.23068" lon="0.58696">
        <ele>182.19999694824</ele>
        <time>2018-06-26T07:21:50.000Z</time>
      </trkpt>
      <trkpt lat="45.23069" lon="0.58699">
        <ele>182.60000610352</ele>
        <time>2018-06-26T07:21:52.000Z</time>
      </trkpt>
      <trkpt lat="45.2307" lon="0.58701">
        <ele>183</ele>
        <time>2018-06-26T07:21:53.000Z</time>
      </trkpt>
      <trkpt lat="45.23073" lon="0.58707">
        <ele>184</ele>
        <time>2018-06-26T07:21:56.000Z</time>
      </trkpt>
      <trkpt lat="45.23075" lon="0.58712">
        <ele>184.60000610352</ele>
        <time>2018-06-26T07:21:58.000Z</time>
      </trkpt>
      <trkpt lat="45.23078" lon="0.58713">
        <ele>185</ele>
        <time>2018-06-26T07:22:00.000Z</time>
      </trkpt>
      <trkpt lat="45.2308" lon="0.58714">
        <ele>185.19999694824</ele>
        <time>2018-06-26T07:22:01.000Z</time>
      </trkpt>
      <trkpt lat="45.23143" lon="0.5882">
        <ele>194.19999694824</ele>
        <time>2018-06-26T07:23:37.000Z</time>
      </trkpt>
      <trkpt lat="45.23145" lon="0.58825">
        <ele>194.39999389648</ele>
        <time>2018-06-26T07:23:39.000Z</time>
      </trkpt>
      <trkpt lat="45.23145" lon="0.58846">
        <ele>194.80000305176</ele>
        <time>2018-06-26T07:23:46.000Z</time>
      </trkpt>
      <trkpt lat="45.23113" lon="0.58893">
        <ele>193.80000305176</ele>
        <time>2018-06-26T07:24:56.000Z</time>
      </trkpt>
      <trkpt lat="45.23111" lon="0.58894">
        <ele>193.60000610352</ele>
        <time>2018-06-26T07:24:58.000Z</time>
      </trkpt>
      <trkpt lat="45.23099" lon="0.58892">
        <ele>193.39999389648</ele>
        <time>2018-06-26T07:25:04.000Z</time>
      </trkpt>
      <trkpt lat="45.23097" lon="0.58892">
        <ele>193.19999694824</ele>
        <time>2018-06-26T07:25:05.000Z</time>
      </trkpt>
      <trkpt lat="45.23084" lon="0.58892">
        <ele>192.60000610352</ele>
        <time>2018-06-26T07:25:11.000Z</time>
      </trkpt>
      <trkpt lat="45.23069" lon="0.58899">
        <ele>192</ele>
        <time>2018-06-26T07:25:15.000Z</time>
      </trkpt>
      <trkpt lat="45.23065" lon="0.589">
        <ele>192</ele>
        <time>2018-06-26T07:25:16.000Z</time>
      </trkpt>
      <trkpt lat="45.23043" lon="0.58901">
        <ele>191.19999694824</ele>
        <time>2018-06-26T07:25:20.000Z</time>
      </trkpt>
      <trkpt lat="45.23038" lon="0.589">
        <ele>191</ele>
        <time>2018-06-26T07:25:21.000Z</time>
      </trkpt>
      <trkpt lat="45.23019" lon="0.58892">
        <ele>190.60000610352</ele>
        <time>2018-06-26T07:25:25.000Z</time>
      </trkpt>
      <trkpt lat="45.23015" lon="0.58889">
        <ele>190.19999694824</ele>
        <time>2018-06-26T07:25:26.000Z</time>
      </trkpt>
      <trkpt lat="45.2301" lon="0.58887">
        <ele>190</ele>
        <time>2018-06-26T07:25:27.000Z</time>
      </trkpt>
      <trkpt lat="45.2299" lon="0.58879">
        <ele>189.39999389648</ele>
        <time>2018-06-26T07:25:31.000Z</time>
      </trkpt>
      <trkpt lat="45.2298" lon="0.58874">
        <ele>189</ele>
        <time>2018-06-26T07:25:33.000Z</time>
      </trkpt>
      <trkpt lat="45.22968" lon="0.58869">
        <ele>187.80000305176</ele>
        <time>2018-06-26T07:25:36.000Z</time>
      </trkpt>
      <trkpt lat="45.22964" lon="0.58868">
        <ele>187.60000610352</ele>
        <time>2018-06-26T07:25:37.000Z</time>
      </trkpt>
      <trkpt lat="45.22945" lon="0.5886">
        <ele>187</ele>
        <time>2018-06-26T07:25:43.000Z</time>
      </trkpt>
      <trkpt lat="45.22933" lon="0.58852">
        <ele>187.19999694824</ele>
        <time>2018-06-26T07:25:48.000Z</time>
      </trkpt>
      <trkpt lat="45.2291" lon="0.58841">
        <ele>187.60000610352</ele>
        <time>2018-06-26T07:28:15.000Z</time>
      </trkpt>
      <trkpt lat="45.22908" lon="0.58841">
        <ele>187.60000610352</ele>
        <time>2018-06-26T07:28:16.000Z</time>
      </trkpt>
      <trkpt lat="45.22892" lon="0.58841">
        <ele>187.60000610352</ele>
        <time>2018-06-26T07:28:22.000Z</time>
      </trkpt>
      <trkpt lat="45.22876" lon="0.58842">
        <ele>188.19999694824</ele>
        <time>2018-06-26T07:28:28.000Z</time>
      </trkpt>
      <trkpt lat="45.22858" lon="0.58848">
        <ele>188.19999694824</ele>
        <time>2018-06-26T07:28:34.000Z</time>
      </trkpt>
      <trkpt lat="45.22841" lon="0.58855">
        <ele>187.80000305176</ele>
        <time>2018-06-26T07:28:40.000Z</time>
      </trkpt>
      <trkpt lat="45.22831" lon="0.58867">
        <ele>187.60000610352</ele>
        <time>2018-06-26T07:28:46.000Z</time>
      </trkpt>
      <trkpt lat="45.22816" lon="0.58878">
        <ele>187.60000610352</ele>
        <time>2018-06-26T07:28:52.000Z</time>
      </trkpt>
      <trkpt lat="45.228" lon="0.58895">
        <ele>186.39999389648</ele>
        <time>2018-06-26T07:28:58.000Z</time>
      </trkpt>
      <trkpt lat="45.22784" lon="0.58913">
        <ele>185</ele>
        <time>2018-06-26T07:29:25.000Z</time>
      </trkpt>
      <trkpt lat="45.22771" lon="0.58923">
        <ele>184.80000305176</ele>
        <time>2018-06-26T07:29:30.000Z</time>
      </trkpt>
      <trkpt lat="45.22746" lon="0.5894">
        <ele>183.80000305176</ele>
        <time>2018-06-26T07:29:37.000Z</time>
      </trkpt>
      <trkpt lat="45.2272" lon="0.58955">
        <ele>182.80000305176</ele>
        <time>2018-06-26T07:29:44.000Z</time>
      </trkpt>
      <trkpt lat="45.22711" lon="0.58958">
        <ele>182.39999389648</ele>
        <time>2018-06-26T07:29:46.000Z</time>
      </trkpt>
      <trkpt lat="45.22699" lon="0.58965">
        <ele>182</ele>
        <time>2018-06-26T07:29:49.000Z</time>
      </trkpt>
      <trkpt lat="45.22694" lon="0.58968">
        <ele>181.80000305176</ele>
        <time>2018-06-26T07:29:50.000Z</time>
      </trkpt>
      <trkpt lat="45.2269" lon="0.58972">
        <ele>181.60000610352</ele>
        <time>2018-06-26T07:29:51.000Z</time>
      </trkpt>
      <trkpt lat="45.2268" lon="0.58981">
        <ele>180.60000610352</ele>
        <time>2018-06-26T07:29:54.000Z</time>
      </trkpt>
      <trkpt lat="45.22676" lon="0.58984">
        <ele>180.19999694824</ele>
        <time>2018-06-26T07:29:55.000Z</time>
      </trkpt>
      <trkpt lat="45.22669" lon="0.58988">
        <ele>179.19999694824</ele>
        <time>2018-06-26T07:29:57.000Z</time>
      </trkpt>
      <trkpt lat="45.2266" lon="0.58994">
        <ele>178.60000610352</ele>
        <time>2018-06-26T07:29:59.000Z</time>
      </trkpt>
      <trkpt lat="45.22656" lon="0.58998">
        <ele>178.19999694824</ele>
        <time>2018-06-26T07:30:00.000Z</time>
      </trkpt>
      <trkpt lat="45.22652" lon="0.59001">
        <ele>177.39999389648</ele>
        <time>2018-06-26T07:30:01.000Z</time>
      </trkpt>
      <trkpt lat="45.22644" lon="0.59006">
        <ele>175.80000305176</ele>
        <time>2018-06-26T07:30:03.000Z</time>
      </trkpt>
      <trkpt lat="45.22638" lon="0.5901">
        <ele>174.39999389648</ele>
        <time>2018-06-26T07:30:05.000Z</time>
      </trkpt>
      <trkpt lat="45.22628" lon="0.59013">
        <ele>173.19999694824</ele>
        <time>2018-06-26T07:30:08.000Z</time>
      </trkpt>
      <trkpt lat="45.22621" lon="0.59015">
        <ele>172</ele>
        <time>2018-06-26T07:30:10.000Z</time>
      </trkpt>
      <trkpt lat="45.22613" lon="0.5902">
        <ele>170.80000305176</ele>
        <time>2018-06-26T07:30:12.000Z</time>
      </trkpt>
      <trkpt lat="45.22605" lon="0.59023">
        <ele>169.39999389648</ele>
        <time>2018-06-26T07:30:14.000Z</time>
      </trkpt>
      <trkpt lat="45.22597" lon="0.59027">
        <ele>168</ele>
        <time>2018-06-26T07:30:16.000Z</time>
      </trkpt>
      <trkpt lat="45.22592" lon="0.59028">
        <ele>167.19999694824</ele>
        <time>2018-06-26T07:30:17.000Z</time>
      </trkpt>
      <trkpt lat="45.22588" lon="0.59031">
        <ele>166.60000610352</ele>
        <time>2018-06-26T07:30:18.000Z</time>
      </trkpt>
      <trkpt lat="45.22579" lon="0.59037">
        <ele>164.19999694824</ele>
        <time>2018-06-26T07:30:20.000Z</time>
      </trkpt>
      <trkpt lat="45.22571" lon="0.59042">
        <ele>162.60000610352</ele>
        <time>2018-06-26T07:30:22.000Z</time>
      </trkpt>
      <trkpt lat="45.22559" lon="0.59046">
        <ele>161</ele>
        <time>2018-06-26T07:30:25.000Z</time>
      </trkpt>
      <trkpt lat="45.22553" lon="0.5905">
        <ele>159</ele>
        <time>2018-06-26T07:30:27.000Z</time>
      </trkpt>
      <trkpt lat="45.22547" lon="0.59054">
        <ele>157.39999389648</ele>
        <time>2018-06-26T07:30:29.000Z</time>
      </trkpt>
      <trkpt lat="45.22541" lon="0.5906">
        <ele>156.19999694824</ele>
        <time>2018-06-26T07:30:31.000Z</time>
      </trkpt>
      <trkpt lat="45.22533" lon="0.59067">
        <ele>154.80000305176</ele>
        <time>2018-06-26T07:30:33.000Z</time>
      </trkpt>
      <trkpt lat="45.22528" lon="0.59072">
        <ele>153.19999694824</ele>
        <time>2018-06-26T07:30:35.000Z</time>
      </trkpt>
      <trkpt lat="45.22525" lon="0.59078">
        <ele>152</ele>
        <time>2018-06-26T07:30:37.000Z</time>
      </trkpt>
      <trkpt lat="45.2252" lon="0.5909">
        <ele>150.60000610352</ele>
        <time>2018-06-26T07:30:40.000Z</time>
      </trkpt>
      <trkpt lat="45.22518" lon="0.59098">
        <ele>150.19999694824</ele>
        <time>2018-06-26T07:30:42.000Z</time>
      </trkpt>
      <trkpt lat="45.22518" lon="0.59105">
        <ele>149.60000610352</ele>
        <time>2018-06-26T07:30:44.000Z</time>
      </trkpt>
      <trkpt lat="45.22519" lon="0.5911">
        <ele>150</ele>
        <time>2018-06-26T07:30:46.000Z</time>
      </trkpt>
      <trkpt lat="45.2252" lon="0.59121">
        <ele>150.60000610352</ele>
        <time>2018-06-26T07:30:50.000Z</time>
      </trkpt>
      <trkpt lat="45.2252" lon="0.59126">
        <ele>151</ele>
        <time>2018-06-26T07:30:52.000Z</time>
      </trkpt>
      <trkpt lat="45.22521" lon="0.59128">
        <ele>151.39999389648</ele>
        <time>2018-06-26T07:30:53.000Z</time>
      </trkpt>
      <trkpt lat="45.22522" lon="0.5913">
        <ele>151.80000305176</ele>
        <time>2018-06-26T07:30:54.000Z</time>
      </trkpt>
      <trkpt lat="45.22525" lon="0.59137">
        <ele>152.60000610352</ele>
        <time>2018-06-26T07:30:57.000Z</time>
      </trkpt>
      <trkpt lat="45.22526" lon="0.5914">
        <ele>152.80000305176</ele>
        <time>2018-06-26T07:30:58.000Z</time>
      </trkpt>
      <trkpt lat="45.22529" lon="0.59148">
        <ele>153.80000305176</ele>
        <time>2018-06-26T07:31:01.000Z</time>
      </trkpt>
      <trkpt lat="45.22533" lon="0.59157">
        <ele>155</ele>
        <time>2018-06-26T07:31:05.000Z</time>
      </trkpt>
      <trkpt lat="45.22535" lon="0.59163">
        <ele>156.19999694824</ele>
        <time>2018-06-26T07:31:08.000Z</time>
      </trkpt>
      <trkpt lat="45.22538" lon="0.59169">
        <ele>157.39999389648</ele>
        <time>2018-06-26T07:31:12.000Z</time>
      </trkpt>
      <trkpt lat="45.22539" lon="0.59171">
        <ele>157.80000305176</ele>
        <time>2018-06-26T07:31:13.000Z</time>
      </trkpt>
      <trkpt lat="45.2254" lon="0.59174">
        <ele>158.39999389648</ele>
        <time>2018-06-26T07:31:15.000Z</time>
      </trkpt>
      <trkpt lat="45.22543" lon="0.59181">
        <ele>159.60000610352</ele>
        <time>2018-06-26T07:31:19.000Z</time>
      </trkpt>
      <trkpt lat="45.22544" lon="0.59185">
        <ele>160.39999389648</ele>
        <time>2018-06-26T07:31:21.000Z</time>
      </trkpt>
      <trkpt lat="45.22545" lon="0.59187">
        <ele>160.80000305176</ele>
        <time>2018-06-26T07:31:22.000Z</time>
      </trkpt>
      <trkpt lat="45.22548" lon="0.59198">
        <ele>161.80000305176</ele>
        <time>2018-06-26T07:31:26.000Z</time>
      </trkpt>
      <trkpt lat="45.2258" lon="0.59325">
        <ele>179.80000305176</ele>
        <time>2018-06-26T07:35:27.000Z</time>
      </trkpt>
      <trkpt lat="45.22577" lon="0.59322">
        <ele>179.80000305176</ele>
        <time>2018-06-26T07:35:29.000Z</time>
      </trkpt>
      <trkpt lat="45.2257" lon="0.59317">
        <ele>179.60000610352</ele>
        <time>2018-06-26T07:35:32.000Z</time>
      </trkpt>
      <trkpt lat="45.22564" lon="0.59315">
        <ele>179.39999389648</ele>
        <time>2018-06-26T07:35:34.000Z</time>
      </trkpt>
      <trkpt lat="45.22547" lon="0.59301">
        <ele>179</ele>
        <time>2018-06-26T07:35:40.000Z</time>
      </trkpt>
      <trkpt lat="45.22535" lon="0.59291">
        <ele>178.60000610352</ele>
        <time>2018-06-26T07:35:43.000Z</time>
      </trkpt>
      <trkpt lat="45.22527" lon="0.59285">
        <ele>178.39999389648</ele>
        <time>2018-06-26T07:35:45.000Z</time>
      </trkpt>
      <trkpt lat="45.22523" lon="0.59281">
        <ele>178.19999694824</ele>
        <time>2018-06-26T07:35:46.000Z</time>
      </trkpt>
      <trkpt lat="45.22509" lon="0.59269">
        <ele>177.60000610352</ele>
        <time>2018-06-26T07:35:49.000Z</time>
      </trkpt>
      <trkpt lat="45.22492" lon="0.59253">
        <ele>176.39999389648</ele>
        <time>2018-06-26T07:35:52.000Z</time>
      </trkpt>
      <trkpt lat="45.22471" lon="0.59234">
        <ele>175.80000305176</ele>
        <time>2018-06-26T07:35:55.000Z</time>
      </trkpt>
      <trkpt lat="45.22463" lon="0.59229">
        <ele>175.39999389648</ele>
        <time>2018-06-26T07:35:56.000Z</time>
      </trkpt>
      <trkpt lat="45.22454" lon="0.59225">
        <ele>173.80000305176</ele>
        <time>2018-06-26T07:35:57.000Z</time>
      </trkpt>
      <trkpt lat="45.22446" lon="0.59221">
        <ele>172.39999389648</ele>
        <time>2018-06-26T07:35:58.000Z</time>
      </trkpt>
      <trkpt lat="45.22437" lon="0.59219">
        <ele>171.19999694824</ele>
        <time>2018-06-26T07:35:59.000Z</time>
      </trkpt>
      <trkpt lat="45.22427" lon="0.59217">
        <ele>170.39999389648</ele>
        <time>2018-06-26T07:36:00.000Z</time>
      </trkpt>
      <trkpt lat="45.22417" lon="0.59216">
        <ele>169.80000305176</ele>
        <time>2018-06-26T07:36:01.000Z</time>
      </trkpt>
      <trkpt lat="45.22396" lon="0.59218">
        <ele>168.60000610352</ele>
        <time>2018-06-26T07:36:03.000Z</time>
      </trkpt>
      <trkpt lat="45.22375" lon="0.59227">
        <ele>166.39999389648</ele>
        <time>2018-06-26T07:36:05.000Z</time>
      </trkpt>
      <trkpt lat="45.22364" lon="0.59234">
        <ele>165</ele>
        <time>2018-06-26T07:36:06.000Z</time>
      </trkpt>
      <trkpt lat="45.22353" lon="0.59243">
        <ele>163.80000305176</ele>
        <time>2018-06-26T07:36:07.000Z</time>
      </trkpt>
      <trkpt lat="45.22342" lon="0.59252">
        <ele>162.60000610352</ele>
        <time>2018-06-26T07:36:08.000Z</time>
      </trkpt>
      <trkpt lat="45.22331" lon="0.59259">
        <ele>161.60000610352</ele>
        <time>2018-06-26T07:36:09.000Z</time>
      </trkpt>
      <trkpt lat="45.2232" lon="0.59267">
        <ele>160.60000610352</ele>
        <time>2018-06-26T07:36:10.000Z</time>
      </trkpt>
      <trkpt lat="45.22311" lon="0.59276">
        <ele>159.60000610352</ele>
        <time>2018-06-26T07:36:11.000Z</time>
      </trkpt>
      <trkpt lat="45.22302" lon="0.59286">
        <ele>158.39999389648</ele>
        <time>2018-06-26T07:36:12.000Z</time>
      </trkpt>
      <trkpt lat="45.22293" lon="0.59294">
        <ele>157</ele>
        <time>2018-06-26T07:36:13.000Z</time>
      </trkpt>
      <trkpt lat="45.22283" lon="0.59298">
        <ele>155.39999389648</ele>
        <time>2018-06-26T07:36:14.000Z</time>
      </trkpt>
      <trkpt lat="45.22273" lon="0.593">
        <ele>154</ele>
        <time>2018-06-26T07:36:15.000Z</time>
      </trkpt>
      <trkpt lat="45.22264" lon="0.59299">
        <ele>152.80000305176</ele>
        <time>2018-06-26T07:36:16.000Z</time>
      </trkpt>
      <trkpt lat="45.22257" lon="0.59296">
        <ele>152</ele>
        <time>2018-06-26T07:36:17.000Z</time>
      </trkpt>
      <trkpt lat="45.2225" lon="0.59292">
        <ele>151.39999389648</ele>
        <time>2018-06-26T07:36:18.000Z</time>
      </trkpt>
      <trkpt lat="45.22239" lon="0.59281">
        <ele>150.80000305176</ele>
        <time>2018-06-26T07:36:20.000Z</time>
      </trkpt>
      <trkpt lat="45.22236" lon="0.59275">
        <ele>150.60000610352</ele>
        <time>2018-06-26T07:36:21.000Z</time>
      </trkpt>
      <trkpt lat="45.22233" lon="0.59272">
        <ele>150</ele>
        <time>2018-06-26T07:36:22.000Z</time>
      </trkpt>
      <trkpt lat="45.22231" lon="0.5927">
        <ele>149.80000305176</ele>
        <time>2018-06-26T07:36:23.000Z</time>
      </trkpt>
      <trkpt lat="45.22226" lon="0.59267">
        <ele>149.80000305176</ele>
        <time>2018-06-26T07:36:36.000Z</time>
      </trkpt>
      <trkpt lat="45.22221" lon="0.59269">
        <ele>149.60000610352</ele>
        <time>2018-06-26T07:36:38.000Z</time>
      </trkpt>
      <trkpt lat="45.22213" lon="0.59275">
        <ele>149.80000305176</ele>
        <time>2018-06-26T07:36:41.000Z</time>
      </trkpt>
      <trkpt lat="45.22202" lon="0.59276">
        <ele>149.39999389648</ele>
        <time>2018-06-26T07:36:45.000Z</time>
      </trkpt>
      <trkpt lat="45.22192" lon="0.59269">
        <ele>150.60000610352</ele>
        <time>2018-06-26T07:36:52.000Z</time>
      </trkpt>
      <trkpt lat="45.22154" lon="0.59252">
        <ele>158</ele>
        <time>2018-06-26T07:37:32.000Z</time>
      </trkpt>
      <trkpt lat="45.2215" lon="0.59251">
        <ele>158.80000305176</ele>
        <time>2018-06-26T07:37:35.000Z</time>
      </trkpt>
      <trkpt lat="45.22149" lon="0.59251">
        <ele>159</ele>
        <time>2018-06-26T07:37:36.000Z</time>
      </trkpt>
      <trkpt lat="45.22141" lon="0.59249">
        <ele>159.60000610352</ele>
        <time>2018-06-26T07:37:41.000Z</time>
      </trkpt>
      <trkpt lat="45.22134" lon="0.59246">
        <ele>160</ele>
        <time>2018-06-26T07:37:45.000Z</time>
      </trkpt>
      <trkpt lat="45.22127" lon="0.59245">
        <ele>160.60000610352</ele>
        <time>2018-06-26T07:37:48.000Z</time>
      </trkpt>
      <trkpt lat="45.2212" lon="0.59243">
        <ele>161.19999694824</ele>
        <time>2018-06-26T07:37:51.000Z</time>
      </trkpt>
      <trkpt lat="45.22111" lon="0.59241">
        <ele>162</ele>
        <time>2018-06-26T07:37:55.000Z</time>
      </trkpt>
      <trkpt lat="45.22108" lon="0.59241">
        <ele>162.39999389648</ele>
        <time>2018-06-26T07:37:57.000Z</time>
      </trkpt>
      <trkpt lat="45.221" lon="0.59239">
        <ele>163.19999694824</ele>
        <time>2018-06-26T07:38:02.000Z</time>
      </trkpt>
      <trkpt lat="45.22098" lon="0.59239">
        <ele>163.60000610352</ele>
        <time>2018-06-26T07:38:03.000Z</time>
      </trkpt>
      <trkpt lat="45.22088" lon="0.59236">
        <ele>164.80000305176</ele>
        <time>2018-06-26T07:38:09.000Z</time>
      </trkpt>
      <trkpt lat="45.22084" lon="0.59235">
        <ele>165.19999694824</ele>
        <time>2018-06-26T07:38:11.000Z</time>
      </trkpt>
      <trkpt lat="45.22077" lon="0.59233">
        <ele>165.80000305176</ele>
        <time>2018-06-26T07:38:15.000Z</time>
      </trkpt>
      <trkpt lat="45.22072" lon="0.59232">
        <ele>166.39999389648</ele>
        <time>2018-06-26T07:38:18.000Z</time>
      </trkpt>
      <trkpt lat="45.22068" lon="0.59231">
        <ele>166.80000305176</ele>
        <time>2018-06-26T07:38:20.000Z</time>
      </trkpt>
      <trkpt lat="45.22059" lon="0.59228">
        <ele>167.80000305176</ele>
        <time>2018-06-26T07:38:25.000Z</time>
      </trkpt>
      <trkpt lat="45.22057" lon="0.59228">
        <ele>167.80000305176</ele>
        <time>2018-06-26T07:38:26.000Z</time>
      </trkpt>
      <trkpt lat="45.22044" lon="0.59226">
        <ele>168.80000305176</ele>
        <time>2018-06-26T07:38:32.000Z</time>
      </trkpt>
      <trkpt lat="45.22042" lon="0.59226">
        <ele>169</ele>
        <time>2018-06-26T07:38:33.000Z</time>
      </trkpt>
      <trkpt lat="45.22033" lon="0.59224">
        <ele>169.39999389648</ele>
        <time>2018-06-26T07:38:37.000Z</time>
      </trkpt>
      <trkpt lat="45.22024" lon="0.59222">
        <ele>170</ele>
        <time>2018-06-26T07:38:41.000Z</time>
      </trkpt>
      <trkpt lat="45.22015" lon="0.59222">
        <ele>170.60000610352</ele>
        <time>2018-06-26T07:38:45.000Z</time>
      </trkpt>
      <trkpt lat="45.22008" lon="0.59221">
        <ele>171</ele>
        <time>2018-06-26T07:38:48.000Z</time>
      </trkpt>
      <trkpt lat="45.21997" lon="0.5922">
        <ele>171.39999389648</ele>
        <time>2018-06-26T07:38:53.000Z</time>
      </trkpt>
      <trkpt lat="45.21983" lon="0.5922">
        <ele>172.19999694824</ele>
        <time>2018-06-26T07:38:59.000Z</time>
      </trkpt>
      <trkpt lat="45.21964" lon="0.59219">
        <ele>172.60000610352</ele>
        <time>2018-06-26T07:39:06.000Z</time>
      </trkpt>
      <trkpt lat="45.21953" lon="0.59218">
        <ele>173.19999694824</ele>
        <time>2018-06-26T07:39:11.000Z</time>
      </trkpt>
      <trkpt lat="45.21947" lon="0.59216">
        <ele>174.19999694824</ele>
        <time>2018-06-26T07:39:14.000Z</time>
      </trkpt>
      <trkpt lat="45.21941" lon="0.59212">
        <ele>175</ele>
        <time>2018-06-26T07:39:17.000Z</time>
      </trkpt>
      <trkpt lat="45.21939" lon="0.59211">
        <ele>175.19999694824</ele>
        <time>2018-06-26T07:39:18.000Z</time>
      </trkpt>
      <trkpt lat="45.21929" lon="0.59206">
        <ele>175.80000305176</ele>
        <time>2018-06-26T07:39:23.000Z</time>
      </trkpt>
      <trkpt lat="45.21923" lon="0.59203">
        <ele>176.19999694824</ele>
        <time>2018-06-26T07:39:26.000Z</time>
      </trkpt>
      <trkpt lat="45.21916" lon="0.59197">
        <ele>176.80000305176</ele>
        <time>2018-06-26T07:39:29.000Z</time>
      </trkpt>
      <trkpt lat="45.21906" lon="0.5919">
        <ele>177.39999389648</ele>
        <time>2018-06-26T07:39:33.000Z</time>
      </trkpt>
      <trkpt lat="45.219" lon="0.59188">
        <ele>177.60000610352</ele>
        <time>2018-06-26T07:39:35.000Z</time>
      </trkpt>
      <trkpt lat="45.21886" lon="0.59181">
        <ele>178.39999389648</ele>
        <time>2018-06-26T07:39:40.000Z</time>
      </trkpt>
      <trkpt lat="45.21883" lon="0.5918">
        <ele>178.39999389648</ele>
        <time>2018-06-26T07:39:41.000Z</time>
      </trkpt>
      <trkpt lat="45.21868" lon="0.59174">
        <ele>179</ele>
        <time>2018-06-26T07:39:47.000Z</time>
      </trkpt>
      <trkpt lat="45.21851" lon="0.59166">
        <ele>179.39999389648</ele>
        <time>2018-06-26T07:40:30.000Z</time>
      </trkpt>
      <trkpt lat="45.21849" lon="0.59164">
        <ele>179.39999389648</ele>
        <time>2018-06-26T07:40:31.000Z</time>
      </trkpt>
      <trkpt lat="45.21843" lon="0.59162">
        <ele>179.60000610352</ele>
        <time>2018-06-26T07:40:35.000Z</time>
      </trkpt>
      <trkpt lat="45.21829" lon="0.59154">
        <ele>180.19999694824</ele>
        <time>2018-06-26T07:40:41.000Z</time>
      </trkpt>
      <trkpt lat="45.2182" lon="0.59146">
        <ele>180.60000610352</ele>
        <time>2018-06-26T07:40:45.000Z</time>
      </trkpt>
      <trkpt lat="45.21814" lon="0.59139">
        <ele>181</ele>
        <time>2018-06-26T07:40:48.000Z</time>
      </trkpt>
      <trkpt lat="45.21798" lon="0.59116">
        <ele>181.19999694824</ele>
        <time>2018-06-26T07:40:55.000Z</time>
      </trkpt>
      <trkpt lat="45.21784" lon="0.59098">
        <ele>181.19999694824</ele>
        <time>2018-06-26T07:41:00.000Z</time>
      </trkpt>
      <trkpt lat="45.2177" lon="0.59077">
        <ele>181.19999694824</ele>
        <time>2018-06-26T07:41:06.000Z</time>
      </trkpt>
      <trkpt lat="45.21754" lon="0.59061">
        <ele>181</ele>
        <time>2018-06-26T07:41:12.000Z</time>
      </trkpt>
      <trkpt lat="45.21738" lon="0.59047">
        <ele>181</ele>
        <time>2018-06-26T07:41:18.000Z</time>
      </trkpt>
      <trkpt lat="45.21737" lon="0.59046">
        <ele>181</ele>
        <time>2018-06-26T07:41:19.000Z</time>
      </trkpt>
      <trkpt lat="45.21732" lon="0.59048">
        <ele>181</ele>
        <time>2018-06-26T07:41:23.000Z</time>
      </trkpt>
      <trkpt lat="45.21724" lon="0.59055">
        <ele>181</ele>
        <time>2018-06-26T07:41:28.000Z</time>
      </trkpt>
      <trkpt lat="45.21722" lon="0.59057">
        <ele>181</ele>
        <time>2018-06-26T07:41:29.000Z</time>
      </trkpt>
      <trkpt lat="45.21703" lon="0.59071">
        <ele>180.60000610352</ele>
        <time>2018-06-26T07:41:37.000Z</time>
      </trkpt>
      <trkpt lat="45.21677" lon="0.5909">
        <ele>179.80000305176</ele>
        <time>2018-06-26T07:41:44.000Z</time>
      </trkpt>
      <trkpt lat="45.21658" lon="0.59105">
        <ele>179.39999389648</ele>
        <time>2018-06-26T07:41:48.000Z</time>
      </trkpt>
      <trkpt lat="45.21647" lon="0.59113">
        <ele>178.80000305176</ele>
        <time>2018-06-26T07:41:50.000Z</time>
      </trkpt>
      <trkpt lat="45.21642" lon="0.59119">
        <ele>178.19999694824</ele>
        <time>2018-06-26T07:41:51.000Z</time>
      </trkpt>
      <trkpt lat="45.2163" lon="0.59129">
        <ele>176.60000610352</ele>
        <time>2018-06-26T07:41:53.000Z</time>
      </trkpt>
      <trkpt lat="45.21612" lon="0.59148">
        <ele>175.39999389648</ele>
        <time>2018-06-26T07:41:56.000Z</time>
      </trkpt>
      <trkpt lat="45.21593" lon="0.59168">
        <ele>174</ele>
        <time>2018-06-26T07:41:59.000Z</time>
      </trkpt>
      <trkpt lat="45.21579" lon="0.5918">
        <ele>172.60000610352</ele>
        <time>2018-06-26T07:42:01.000Z</time>
      </trkpt>
      <trkpt lat="45.21572" lon="0.59186">
        <ele>172</ele>
        <time>2018-06-26T07:42:02.000Z</time>
      </trkpt>
      <trkpt lat="45.21565" lon="0.59193">
        <ele>171.19999694824</ele>
        <time>2018-06-26T07:42:03.000Z</time>
      </trkpt>
      <trkpt lat="45.21558" lon="0.59199">
        <ele>170.19999694824</ele>
        <time>2018-06-26T07:42:04.000Z</time>
      </trkpt>
      <trkpt lat="45.21544" lon="0.59215">
        <ele>169</ele>
        <time>2018-06-26T07:42:06.000Z</time>
      </trkpt>
      <trkpt lat="45.21532" lon="0.59232">
        <ele>168.39999389648</ele>
        <time>2018-06-26T07:42:08.000Z</time>
      </trkpt>
      <trkpt lat="45.21526" lon="0.59242">
        <ele>167.80000305176</ele>
        <time>2018-06-26T07:42:09.000Z</time>
      </trkpt>
      <trkpt lat="45.21514" lon="0.59259">
        <ele>166.39999389648</ele>
        <time>2018-06-26T07:42:11.000Z</time>
      </trkpt>
      <trkpt lat="45.21493" lon="0.59281">
        <ele>164.80000305176</ele>
        <time>2018-06-26T07:42:14.000Z</time>
      </trkpt>
      <trkpt lat="45.21471" lon="0.59299">
        <ele>163.39999389648</ele>
        <time>2018-06-26T07:42:17.000Z</time>
      </trkpt>
      <trkpt lat="45.21457" lon="0.5931">
        <ele>162.39999389648</ele>
        <time>2018-06-26T07:42:19.000Z</time>
      </trkpt>
      <trkpt lat="45.21444" lon="0.59323">
        <ele>161.19999694824</ele>
        <time>2018-06-26T07:42:21.000Z</time>
      </trkpt>
      <trkpt lat="45.21438" lon="0.59331">
        <ele>160</ele>
        <time>2018-06-26T07:42:22.000Z</time>
      </trkpt>
      <trkpt lat="45.21433" lon="0.59341">
        <ele>159.19999694824</ele>
        <time>2018-06-26T07:42:23.000Z</time>
      </trkpt>
      <trkpt lat="45.21427" lon="0.59351">
        <ele>158.60000610352</ele>
        <time>2018-06-26T07:42:24.000Z</time>
      </trkpt>
      <trkpt lat="45.21417" lon="0.59372">
        <ele>157.60000610352</ele>
        <time>2018-06-26T07:42:26.000Z</time>
      </trkpt>
      <trkpt lat="45.21406" lon="0.59395">
        <ele>156.19999694824</ele>
        <time>2018-06-26T07:42:28.000Z</time>
      </trkpt>
      <trkpt lat="45.21394" lon="0.59417">
        <ele>155</ele>
        <time>2018-06-26T07:42:30.000Z</time>
      </trkpt>
      <trkpt lat="45.21383" lon="0.59439">
        <ele>153.39999389648</ele>
        <time>2018-06-26T07:42:32.000Z</time>
      </trkpt>
      <trkpt lat="45.2137" lon="0.59459">
        <ele>152</ele>
        <time>2018-06-26T07:42:34.000Z</time>
      </trkpt>
      <trkpt lat="45.21363" lon="0.59468">
        <ele>151.60000610352</ele>
        <time>2018-06-26T07:42:35.000Z</time>
      </trkpt>
      <trkpt lat="45.21355" lon="0.59476">
        <ele>151</ele>
        <time>2018-06-26T07:42:36.000Z</time>
      </trkpt>
      <trkpt lat="45.21339" lon="0.59488">
        <ele>149.80000305176</ele>
        <time>2018-06-26T07:42:38.000Z</time>
      </trkpt>
      <trkpt lat="45.2133" lon="0.59492">
        <ele>149.39999389648</ele>
        <time>2018-06-26T07:42:39.000Z</time>
      </trkpt>
      <trkpt lat="45.21312" lon="0.59497">
        <ele>148.39999389648</ele>
        <time>2018-06-26T07:42:41.000Z</time>
      </trkpt>
      <trkpt lat="45.21303" lon="0.59496">
        <ele>147.39999389648</ele>
        <time>2018-06-26T07:42:42.000Z</time>
      </trkpt>
      <trkpt lat="45.21294" lon="0.59496">
        <ele>146.19999694824</ele>
        <time>2018-06-26T07:42:43.000Z</time>
      </trkpt>
      <trkpt lat="45.21277" lon="0.59495">
        <ele>144.19999694824</ele>
        <time>2018-06-26T07:42:45.000Z</time>
      </trkpt>
      <trkpt lat="45.21268" lon="0.59495">
        <ele>141.80000305176</ele>
        <time>2018-06-26T07:42:46.000Z</time>
      </trkpt>
      <trkpt lat="45.21255" lon="0.59496">
        <ele>140.60000610352</ele>
        <time>2018-06-26T07:42:48.000Z</time>
      </trkpt>
      <trkpt lat="45.21242" lon="0.59502">
        <ele>138.80000305176</ele>
        <time>2018-06-26T07:42:50.000Z</time>
      </trkpt>
      <trkpt lat="45.21237" lon="0.59507">
        <ele>138</ele>
        <time>2018-06-26T07:42:51.000Z</time>
      </trkpt>
      <trkpt lat="45.21233" lon="0.59513">
        <ele>137.60000610352</ele>
        <time>2018-06-26T07:42:52.000Z</time>
      </trkpt>
      <trkpt lat="45.21229" lon="0.59519">
        <ele>137.39999389648</ele>
        <time>2018-06-26T07:42:53.000Z</time>
      </trkpt>
      <trkpt lat="45.21217" lon="0.59537">
        <ele>137.19999694824</ele>
        <time>2018-06-26T07:42:56.000Z</time>
      </trkpt>
      <trkpt lat="45.21193" lon="0.59557">
        <ele>137</ele>
        <time>2018-06-26T07:43:01.000Z</time>
      </trkpt>
      <trkpt lat="45.21175" lon="0.59571">
        <ele>136.80000305176</ele>
        <time>2018-06-26T07:43:05.000Z</time>
      </trkpt>
      <trkpt lat="45.2117" lon="0.59575">
        <ele>136.60000610352</ele>
        <time>2018-06-26T07:43:06.000Z</time>
      </trkpt>
      <trkpt lat="45.21164" lon="0.59578">
        <ele>136.60000610352</ele>
        <time>2018-06-26T07:43:07.000Z</time>
      </trkpt>
      <trkpt lat="45.21132" lon="0.59593">
        <ele>135.80000305176</ele>
        <time>2018-06-26T07:43:12.000Z</time>
      </trkpt>
      <trkpt lat="45.21121" lon="0.59599">
        <ele>135.19999694824</ele>
        <time>2018-06-26T07:43:14.000Z</time>
      </trkpt>
      <trkpt lat="45.21104" lon="0.59609">
        <ele>135</ele>
        <time>2018-06-26T07:43:17.000Z</time>
      </trkpt>
      <trkpt lat="45.21093" lon="0.59615">
        <ele>134.80000305176</ele>
        <time>2018-06-26T07:43:19.000Z</time>
      </trkpt>
      <trkpt lat="45.21084" lon="0.59623">
        <ele>134.39999389648</ele>
        <time>2018-06-26T07:43:21.000Z</time>
      </trkpt>
      <trkpt lat="45.21076" lon="0.59633">
        <ele>134.39999389648</ele>
        <time>2018-06-26T07:43:23.000Z</time>
      </trkpt>
      <trkpt lat="45.21063" lon="0.59646">
        <ele>134.39999389648</ele>
        <time>2018-06-26T07:43:26.000Z</time>
      </trkpt>
      <trkpt lat="45.21059" lon="0.59651">
        <ele>134.19999694824</ele>
        <time>2018-06-26T07:43:27.000Z</time>
      </trkpt>
      <trkpt lat="45.21046" lon="0.59662">
        <ele>134.19999694824</ele>
        <time>2018-06-26T07:43:30.000Z</time>
      </trkpt>
      <trkpt lat="45.21039" lon="0.5967">
        <ele>134.19999694824</ele>
        <time>2018-06-26T07:43:32.000Z</time>
      </trkpt>
      <trkpt lat="45.21036" lon="0.59674">
        <ele>134.19999694824</ele>
        <time>2018-06-26T07:43:33.000Z</time>
      </trkpt>
      <trkpt lat="45.21024" lon="0.59682">
        <ele>133.80000305176</ele>
        <time>2018-06-26T07:43:36.000Z</time>
      </trkpt>
      <trkpt lat="45.21018" lon="0.59685">
        <ele>133.80000305176</ele>
        <time>2018-06-26T07:43:37.000Z</time>
      </trkpt>
      <trkpt lat="45.20997" lon="0.59691">
        <ele>133</ele>
        <time>2018-06-26T07:43:40.000Z</time>
      </trkpt>
      <trkpt lat="45.2099" lon="0.59691">
        <ele>132.80000305176</ele>
        <time>2018-06-26T07:43:41.000Z</time>
      </trkpt>
      <trkpt lat="45.20982" lon="0.59691">
        <ele>132.39999389648</ele>
        <time>2018-06-26T07:43:42.000Z</time>
      </trkpt>
      <trkpt lat="45.20969" lon="0.59693">
        <ele>131.80000305176</ele>
        <time>2018-06-26T07:43:44.000Z</time>
      </trkpt>
      <trkpt lat="45.20963" lon="0.59696">
        <ele>131.39999389648</ele>
        <time>2018-06-26T07:43:45.000Z</time>
      </trkpt>
      <trkpt lat="45.20951" lon="0.59702">
        <ele>130.80000305176</ele>
        <time>2018-06-26T07:43:47.000Z</time>
      </trkpt>
      <trkpt lat="45.2094" lon="0.59709">
        <ele>130.60000610352</ele>
        <time>2018-06-26T07:43:49.000Z</time>
      </trkpt>
      <trkpt lat="45.20928" lon="0.59714">
        <ele>130.60000610352</ele>
        <time>2018-06-26T07:43:51.000Z</time>
      </trkpt>
      <trkpt lat="45.20904" lon="0.59725">
        <ele>130</ele>
        <time>2018-06-26T07:43:56.000Z</time>
      </trkpt>
      <trkpt lat="45.20897" lon="0.59725">
        <ele>129.60000610352</ele>
        <time>2018-06-26T07:43:58.000Z</time>
      </trkpt>
      <trkpt lat="45.20894" lon="0.59723">
        <ele>129.60000610352</ele>
        <time>2018-06-26T07:43:59.000Z</time>
      </trkpt>
      <trkpt lat="45.20887" lon="0.59719">
        <ele>129.39999389648</ele>
        <time>2018-06-26T07:44:02.000Z</time>
      </trkpt>
      <trkpt lat="45.20881" lon="0.59719">
        <ele>129.60000610352</ele>
        <time>2018-06-26T07:44:04.000Z</time>
      </trkpt>
      <trkpt lat="45.20874" lon="0.59719">
        <ele>130</ele>
        <time>2018-06-26T07:44:07.000Z</time>
      </trkpt>
      <trkpt lat="45.20868" lon="0.59719">
        <ele>130.80000305176</ele>
        <time>2018-06-26T07:44:10.000Z</time>
      </trkpt>
      <trkpt lat="45.20838" lon="0.59707">
        <ele>134.80000305176</ele>
        <time>2018-06-26T07:44:26.000Z</time>
      </trkpt>
      <trkpt lat="45.20826" lon="0.59703">
        <ele>135.19999694824</ele>
        <time>2018-06-26T07:44:32.000Z</time>
      </trkpt>
      <trkpt lat="45.20816" lon="0.59702">
        <ele>135.80000305176</ele>
        <time>2018-06-26T07:44:35.000Z</time>
      </trkpt>
      <trkpt lat="45.20807" lon="0.597">
        <ele>136.39999389648</ele>
        <time>2018-06-26T07:44:38.000Z</time>
      </trkpt>
      <trkpt lat="45.20789" lon="0.59697">
        <ele>136.60000610352</ele>
        <time>2018-06-26T07:44:44.000Z</time>
      </trkpt>
      <trkpt lat="45.20787" lon="0.59696">
        <ele>136.60000610352</ele>
        <time>2018-06-26T07:44:45.000Z</time>
      </trkpt>
      <trkpt lat="45.20784" lon="0.59695">
        <ele>136.80000305176</ele>
        <time>2018-06-26T07:44:46.000Z</time>
      </trkpt>
      <trkpt lat="45.20776" lon="0.59689">
        <ele>137.39999389648</ele>
        <time>2018-06-26T07:44:51.000Z</time>
      </trkpt>
      <trkpt lat="45.20766" lon="0.59681">
        <ele>138</ele>
        <time>2018-06-26T07:44:57.000Z</time>
      </trkpt>
      <trkpt lat="45.20762" lon="0.59679">
        <ele>138.19999694824</ele>
        <time>2018-06-26T07:44:58.000Z</time>
      </trkpt>
      <trkpt lat="45.20751" lon="0.59674">
        <ele>138.80000305176</ele>
        <time>2018-06-26T07:45:04.000Z</time>
      </trkpt>
      <trkpt lat="45.20725" lon="0.59648">
        <ele>140.80000305176</ele>
        <time>2018-06-26T07:45:21.000Z</time>
      </trkpt>
      <trkpt lat="45.20723" lon="0.59645">
        <ele>140.80000305176</ele>
        <time>2018-06-26T07:45:22.000Z</time>
      </trkpt>
      <trkpt lat="45.20713" lon="0.5963">
        <ele>141.39999389648</ele>
        <time>2018-06-26T07:45:29.000Z</time>
      </trkpt>
      <trkpt lat="45.20674" lon="0.5955">
        <ele>145.39999389648</ele>
        <time>2018-06-26T07:48:52.000Z</time>
      </trkpt>
      <trkpt lat="45.20672" lon="0.59547">
        <ele>145.60000610352</ele>
        <time>2018-06-26T07:48:54.000Z</time>
      </trkpt>
      <trkpt lat="45.20667" lon="0.59535">
        <ele>146.19999694824</ele>
        <time>2018-06-26T07:49:01.000Z</time>
      </trkpt>
      <trkpt lat="45.20665" lon="0.59531">
        <ele>146.19999694824</ele>
        <time>2018-06-26T07:49:03.000Z</time>
      </trkpt>
      <trkpt lat="45.20662" lon="0.59527">
        <ele>146.60000610352</ele>
        <time>2018-06-26T07:49:05.000Z</time>
      </trkpt>
      <trkpt lat="45.2066" lon="0.59524">
        <ele>146.80000305176</ele>
        <time>2018-06-26T07:49:07.000Z</time>
      </trkpt>
      <trkpt lat="45.20657" lon="0.59521">
        <ele>146.80000305176</ele>
        <time>2018-06-26T07:49:09.000Z</time>
      </trkpt>
      <trkpt lat="45.2065" lon="0.59512">
        <ele>147.39999389648</ele>
        <time>2018-06-26T07:49:12.000Z</time>
      </trkpt>
      <trkpt lat="45.20647" lon="0.59506">
        <ele>147.60000610352</ele>
        <time>2018-06-26T07:49:14.000Z</time>
      </trkpt>
      <trkpt lat="45.2064" lon="0.59497">
        <ele>148</ele>
        <time>2018-06-26T07:49:18.000Z</time>
      </trkpt>
      <trkpt lat="45.20634" lon="0.59487">
        <ele>148.80000305176</ele>
        <time>2018-06-26T07:49:24.000Z</time>
      </trkpt>
      <trkpt lat="45.20631" lon="0.59484">
        <ele>149</ele>
        <time>2018-06-26T07:49:26.000Z</time>
      </trkpt>
      <trkpt lat="45.20625" lon="0.59474">
        <ele>149.80000305176</ele>
        <time>2018-06-26T07:49:31.000Z</time>
      </trkpt>
      <trkpt lat="45.20623" lon="0.5947">
        <ele>150</ele>
        <time>2018-06-26T07:49:33.000Z</time>
      </trkpt>
      <trkpt lat="45.20616" lon="0.59456">
        <ele>151</ele>
        <time>2018-06-26T07:49:39.000Z</time>
      </trkpt>
      <trkpt lat="45.20613" lon="0.59452">
        <ele>151.19999694824</ele>
        <time>2018-06-26T07:49:41.000Z</time>
      </trkpt>
      <trkpt lat="45.20609" lon="0.59434">
        <ele>151.60000610352</ele>
        <time>2018-06-26T07:49:48.000Z</time>
      </trkpt>
      <trkpt lat="45.20603" lon="0.59418">
        <ele>152</ele>
        <time>2018-06-26T07:49:54.000Z</time>
      </trkpt>
      <trkpt lat="45.20601" lon="0.59402">
        <ele>152.60000610352</ele>
        <time>2018-06-26T07:50:00.000Z</time>
      </trkpt>
      <trkpt lat="45.20598" lon="0.59389">
        <ele>153.19999694824</ele>
        <time>2018-06-26T07:50:05.000Z</time>
      </trkpt>
      <trkpt lat="45.20597" lon="0.59387">
        <ele>153.39999389648</ele>
        <time>2018-06-26T07:50:06.000Z</time>
      </trkpt>
      <trkpt lat="45.20592" lon="0.59364">
        <ele>154.19999694824</ele>
        <time>2018-06-26T07:50:12.000Z</time>
      </trkpt>
      <trkpt lat="45.20565" lon="0.59315">
        <ele>158.39999389648</ele>
        <time>2018-06-26T07:50:35.000Z</time>
      </trkpt>
      <trkpt lat="45.20554" lon="0.59297">
        <ele>159.60000610352</ele>
        <time>2018-06-26T07:50:40.000Z</time>
      </trkpt>
      <trkpt lat="45.20551" lon="0.59291">
        <ele>159.80000305176</ele>
        <time>2018-06-26T07:50:42.000Z</time>
      </trkpt>
      <trkpt lat="45.20546" lon="0.59276">
        <ele>160.80000305176</ele>
        <time>2018-06-26T07:50:47.000Z</time>
      </trkpt>
      <trkpt lat="45.20544" lon="0.59271">
        <ele>161.19999694824</ele>
        <time>2018-06-26T07:50:49.000Z</time>
      </trkpt>
      <trkpt lat="45.20542" lon="0.5926">
        <ele>162</ele>
        <time>2018-06-26T07:50:54.000Z</time>
      </trkpt>
      <trkpt lat="45.20542" lon="0.59258">
        <ele>162</ele>
        <time>2018-06-26T07:50:55.000Z</time>
      </trkpt>
      <trkpt lat="45.2054" lon="0.59242">
        <ele>163</ele>
        <time>2018-06-26T07:51:02.000Z</time>
      </trkpt>
      <trkpt lat="45.20537" lon="0.59224">
        <ele>164</ele>
        <time>2018-06-26T07:51:09.000Z</time>
      </trkpt>
      <trkpt lat="45.20537" lon="0.59225">
        <ele>164.19999694824</ele>
        <time>2018-06-26T07:51:10.000Z</time>
      </trkpt>
      <trkpt lat="45.20534" lon="0.59209">
        <ele>165.19999694824</ele>
        <time>2018-06-26T07:51:15.000Z</time>
      </trkpt>
      <trkpt lat="45.20533" lon="0.59203">
        <ele>165.39999389648</ele>
        <time>2018-06-26T07:51:17.000Z</time>
      </trkpt>
      <trkpt lat="45.20529" lon="0.59177">
        <ele>166</ele>
        <time>2018-06-26T07:51:26.000Z</time>
      </trkpt>
      <trkpt lat="45.20529" lon="0.59174">
        <ele>166.19999694824</ele>
        <time>2018-06-26T07:51:27.000Z</time>
      </trkpt>
      <trkpt lat="45.20526" lon="0.59159">
        <ele>166.80000305176</ele>
        <time>2018-06-26T07:51:33.000Z</time>
      </trkpt>
      <trkpt lat="45.20522" lon="0.59144">
        <ele>167.19999694824</ele>
        <time>2018-06-26T07:51:38.000Z</time>
      </trkpt>
      <trkpt lat="45.2052" lon="0.59137">
        <ele>167.19999694824</ele>
        <time>2018-06-26T07:51:40.000Z</time>
      </trkpt>
      <trkpt lat="45.20516" lon="0.59122">
        <ele>167.60000610352</ele>
        <time>2018-06-26T07:51:45.000Z</time>
      </trkpt>
      <trkpt lat="45.20511" lon="0.59099">
        <ele>167.80000305176</ele>
        <time>2018-06-26T07:51:51.000Z</time>
      </trkpt>
      <trkpt lat="45.20503" lon="0.59068">
        <ele>168</ele>
        <time>2018-06-26T07:51:58.000Z</time>
      </trkpt>
      <trkpt lat="45.20502" lon="0.59063">
        <ele>168.39999389648</ele>
        <time>2018-06-26T07:51:59.000Z</time>
      </trkpt>
      <trkpt lat="45.20498" lon="0.59035">
        <ele>168.60000610352</ele>
        <time>2018-06-26T07:52:05.000Z</time>
      </trkpt>
      <trkpt lat="45.20494" lon="0.59015">
        <ele>169.39999389648</ele>
        <time>2018-06-26T07:52:10.000Z</time>
      </trkpt>
      <trkpt lat="45.20492" lon="0.59008">
        <ele>169.60000610352</ele>
        <time>2018-06-26T07:52:12.000Z</time>
      </trkpt>
      <trkpt lat="45.20488" lon="0.58989">
        <ele>170.60000610352</ele>
        <time>2018-06-26T07:52:18.000Z</time>
      </trkpt>
      <trkpt lat="45.2048" lon="0.58966">
        <ele>171.60000610352</ele>
        <time>2018-06-26T07:52:25.000Z</time>
      </trkpt>
      <trkpt lat="45.20479" lon="0.58962">
        <ele>171.60000610352</ele>
        <time>2018-06-26T07:52:26.000Z</time>
      </trkpt>
      <trkpt lat="45.20475" lon="0.58942">
        <ele>172.39999389648</ele>
        <time>2018-06-26T07:52:32.000Z</time>
      </trkpt>
      <trkpt lat="45.20473" lon="0.58941">
        <ele>172.39999389648</ele>
        <time>2018-06-26T07:52:33.000Z</time>
      </trkpt>
      <trkpt lat="45.20471" lon="0.58939">
        <ele>172.60000610352</ele>
        <time>2018-06-26T07:52:34.000Z</time>
      </trkpt>
      <trkpt lat="45.20454" lon="0.58927">
        <ele>173</ele>
        <time>2018-06-26T07:52:40.000Z</time>
      </trkpt>
      <trkpt lat="45.20448" lon="0.58922">
        <ele>173.60000610352</ele>
        <time>2018-06-26T07:52:42.000Z</time>
      </trkpt>
      <trkpt lat="45.20434" lon="0.58913">
        <ele>174.60000610352</ele>
        <time>2018-06-26T07:52:47.000Z</time>
      </trkpt>
      <trkpt lat="45.20431" lon="0.58911">
        <ele>174.80000305176</ele>
        <time>2018-06-26T07:52:48.000Z</time>
      </trkpt>
      <trkpt lat="45.20408" lon="0.58897">
        <ele>175.19999694824</ele>
        <time>2018-06-26T07:52:56.000Z</time>
      </trkpt>
      <trkpt lat="45.20391" lon="0.58887">
        <ele>175.39999389648</ele>
        <time>2018-06-26T07:53:02.000Z</time>
      </trkpt>
      <trkpt lat="45.20387" lon="0.58869">
        <ele>175.60000610352</ele>
        <time>2018-06-26T07:53:06.000Z</time>
      </trkpt>
      <trkpt lat="45.20387" lon="0.58865">
        <ele>175.80000305176</ele>
        <time>2018-06-26T07:53:07.000Z</time>
      </trkpt>
      <trkpt lat="45.20387" lon="0.58843">
        <ele>176.80000305176</ele>
        <time>2018-06-26T07:53:12.000Z</time>
      </trkpt>
      <trkpt lat="45.20387" lon="0.58819">
        <ele>177.80000305176</ele>
        <time>2018-06-26T07:53:17.000Z</time>
      </trkpt>
      <trkpt lat="45.20386" lon="0.58801">
        <ele>178.19999694824</ele>
        <time>2018-06-26T07:53:21.000Z</time>
      </trkpt>
      <trkpt lat="45.20383" lon="0.58763">
        <ele>178.80000305176</ele>
        <time>2018-06-26T07:53:29.000Z</time>
      </trkpt>
      <trkpt lat="45.20382" lon="0.58758">
        <ele>179</ele>
        <time>2018-06-26T07:53:30.000Z</time>
      </trkpt>
      <trkpt lat="45.20377" lon="0.58723">
        <ele>179.80000305176</ele>
        <time>2018-06-26T07:53:37.000Z</time>
      </trkpt>
      <trkpt lat="45.20375" lon="0.58708">
        <ele>180</ele>
        <time>2018-06-26T07:53:40.000Z</time>
      </trkpt>
      <trkpt lat="45.20373" lon="0.58688">
        <ele>180.39999389648</ele>
        <time>2018-06-26T07:53:44.000Z</time>
      </trkpt>
      <trkpt lat="45.2037" lon="0.58668">
        <ele>181</ele>
        <time>2018-06-26T07:53:48.000Z</time>
      </trkpt>
      <trkpt lat="45.20369" lon="0.58653">
        <ele>181.19999694824</ele>
        <time>2018-06-26T07:53:51.000Z</time>
      </trkpt>
      <trkpt lat="45.20365" lon="0.58624">
        <ele>182</ele>
        <time>2018-06-26T07:53:57.000Z</time>
      </trkpt>
      <trkpt lat="45.20365" lon="0.58619">
        <ele>182.19999694824</ele>
        <time>2018-06-26T07:53:58.000Z</time>
      </trkpt>
      <trkpt lat="45.20361" lon="0.5858">
        <ele>182.80000305176</ele>
        <time>2018-06-26T07:54:06.000Z</time>
      </trkpt>
      <trkpt lat="45.2036" lon="0.58571">
        <ele>183</ele>
        <time>2018-06-26T07:54:08.000Z</time>
      </trkpt>
      <trkpt lat="45.20355" lon="0.58553">
        <ele>183.80000305176</ele>
        <time>2018-06-26T07:54:12.000Z</time>
      </trkpt>
      <trkpt lat="45.20345" lon="0.58542">
        <ele>184.19999694824</ele>
        <time>2018-06-26T07:54:16.000Z</time>
      </trkpt>
      <trkpt lat="45.20337" lon="0.58536">
        <ele>184.60000610352</ele>
        <time>2018-06-26T07:54:20.000Z</time>
      </trkpt>
      <trkpt lat="45.20316" lon="0.5853">
        <ele>185</ele>
        <time>2018-06-26T07:54:26.000Z</time>
      </trkpt>
      <trkpt lat="45.20309" lon="0.58528">
        <ele>185.19999694824</ele>
        <time>2018-06-26T07:54:28.000Z</time>
      </trkpt>
      <trkpt lat="45.20292" lon="0.58522">
        <ele>185.60000610352</ele>
        <time>2018-06-26T07:54:33.000Z</time>
      </trkpt>
      <trkpt lat="45.20273" lon="0.58513">
        <ele>184.60000610352</ele>
        <time>2018-06-26T07:54:38.000Z</time>
      </trkpt>
      <trkpt lat="45.20268" lon="0.58512">
        <ele>184.39999389648</ele>
        <time>2018-06-26T07:54:39.000Z</time>
      </trkpt>
      <trkpt lat="45.20264" lon="0.5851">
        <ele>184.19999694824</ele>
        <time>2018-06-26T07:54:40.000Z</time>
      </trkpt>
      <trkpt lat="45.20259" lon="0.58507">
        <ele>184</ele>
        <time>2018-06-26T07:54:41.000Z</time>
      </trkpt>
      <trkpt lat="45.20239" lon="0.58498">
        <ele>183.19999694824</ele>
        <time>2018-06-26T07:54:45.000Z</time>
      </trkpt>
      <trkpt lat="45.20223" lon="0.58489">
        <ele>182.80000305176</ele>
        <time>2018-06-26T07:54:48.000Z</time>
      </trkpt>
      <trkpt lat="45.20202" lon="0.58473">
        <ele>182.60000610352</ele>
        <time>2018-06-26T07:54:52.000Z</time>
      </trkpt>
      <trkpt lat="45.20186" lon="0.5846">
        <ele>181.80000305176</ele>
        <time>2018-06-26T07:54:55.000Z</time>
      </trkpt>
      <trkpt lat="45.2016" lon="0.58448">
        <ele>181</ele>
        <time>2018-06-26T07:54:59.000Z</time>
      </trkpt>
      <trkpt lat="45.20154" lon="0.58447">
        <ele>180.80000305176</ele>
        <time>2018-06-26T07:55:00.000Z</time>
      </trkpt>
      <trkpt lat="45.20125" lon="0.58444">
        <ele>179.39999389648</ele>
        <time>2018-06-26T07:55:04.000Z</time>
      </trkpt>
      <trkpt lat="45.20095" lon="0.58445">
        <ele>178.39999389648</ele>
        <time>2018-06-26T07:55:08.000Z</time>
      </trkpt>
      <trkpt lat="45.20071" lon="0.58446">
        <ele>177.39999389648</ele>
        <time>2018-06-26T07:55:11.000Z</time>
      </trkpt>
      <trkpt lat="45.20063" lon="0.58446">
        <ele>176.19999694824</ele>
        <time>2018-06-26T07:55:12.000Z</time>
      </trkpt>
      <trkpt lat="45.20039" lon="0.58448">
        <ele>175.19999694824</ele>
        <time>2018-06-26T07:55:15.000Z</time>
      </trkpt>
      <trkpt lat="45.20015" lon="0.58453">
        <ele>174</ele>
        <time>2018-06-26T07:55:18.000Z</time>
      </trkpt>
      <trkpt lat="45.19991" lon="0.58461">
        <ele>172.80000305176</ele>
        <time>2018-06-26T07:55:21.000Z</time>
      </trkpt>
      <trkpt lat="45.1997" lon="0.5847">
        <ele>172.19999694824</ele>
        <time>2018-06-26T07:55:24.000Z</time>
      </trkpt>
      <trkpt lat="45.19951" lon="0.58475">
        <ele>171.80000305176</ele>
        <time>2018-06-26T07:55:27.000Z</time>
      </trkpt>
      <trkpt lat="45.19946" lon="0.58475">
        <ele>171.60000610352</ele>
        <time>2018-06-26T07:55:28.000Z</time>
      </trkpt>
      <trkpt lat="45.1994" lon="0.58474">
        <ele>171.39999389648</ele>
        <time>2018-06-26T07:55:29.000Z</time>
      </trkpt>
      <trkpt lat="45.19923" lon="0.58463">
        <ele>171.60000610352</ele>
        <time>2018-06-26T07:55:33.000Z</time>
      </trkpt>
      <trkpt lat="45.19902" lon="0.58439">
        <ele>171.80000305176</ele>
        <time>2018-06-26T07:55:39.000Z</time>
      </trkpt>
      <trkpt lat="45.19873" lon="0.58407">
        <ele>172.19999694824</ele>
        <time>2018-06-26T07:55:47.000Z</time>
      </trkpt>
      <trkpt lat="45.19852" lon="0.58372">
        <ele>172.19999694824</ele>
        <time>2018-06-26T07:55:53.000Z</time>
      </trkpt>
      <trkpt lat="45.1985" lon="0.58365">
        <ele>172</ele>
        <time>2018-06-26T07:55:54.000Z</time>
      </trkpt>
      <trkpt lat="45.19843" lon="0.58342">
        <ele>170.60000610352</ele>
        <time>2018-06-26T07:55:57.000Z</time>
      </trkpt>
      <trkpt lat="45.19842" lon="0.58334">
        <ele>170.19999694824</ele>
        <time>2018-06-26T07:55:58.000Z</time>
      </trkpt>
      <trkpt lat="45.19838" lon="0.58317">
        <ele>169.60000610352</ele>
        <time>2018-06-26T07:56:00.000Z</time>
      </trkpt>
      <trkpt lat="45.19832" lon="0.58265">
        <ele>168.60000610352</ele>
        <time>2018-06-26T07:56:06.000Z</time>
      </trkpt>
      <trkpt lat="45.1983" lon="0.58227">
        <ele>167.60000610352</ele>
        <time>2018-06-26T07:56:10.000Z</time>
      </trkpt>
      <trkpt lat="45.19826" lon="0.58198">
        <ele>166.60000610352</ele>
        <time>2018-06-26T07:56:13.000Z</time>
      </trkpt>
      <trkpt lat="45.19814" lon="0.58163">
        <ele>165.60000610352</ele>
        <time>2018-06-26T07:56:17.000Z</time>
      </trkpt>
      <trkpt lat="45.19794" lon="0.58132">
        <ele>167.39999389648</ele>
        <time>2018-06-26T07:56:22.000Z</time>
      </trkpt>
      <trkpt lat="45.19787" lon="0.58124">
        <ele>167.80000305176</ele>
        <time>2018-06-26T07:56:24.000Z</time>
      </trkpt>
      <trkpt lat="45.19775" lon="0.58109">
        <ele>168.60000610352</ele>
        <time>2018-06-26T07:56:28.000Z</time>
      </trkpt>
      <trkpt lat="45.19772" lon="0.58105">
        <ele>169</ele>
        <time>2018-06-26T07:56:29.000Z</time>
      </trkpt>
      <trkpt lat="45.19763" lon="0.58085">
        <ele>170</ele>
        <time>2018-06-26T07:56:34.000Z</time>
      </trkpt>
      <trkpt lat="45.19758" lon="0.58073">
        <ele>166</ele>
      </trkpt>
      <trkpt lat="45.19748" lon="0.58081">
        <ele>171.80000305176</ele>
        <time>2018-06-26T07:58:16.000Z</time>
      </trkpt>
      <trkpt lat="45.19732" lon="0.58086">
        <ele>171</ele>
        <time>2018-06-26T07:58:20.000Z</time>
      </trkpt>
      <trkpt lat="45.19715" lon="0.58089">
        <ele>170.19999694824</ele>
        <time>2018-06-26T07:58:24.000Z</time>
      </trkpt>
      <trkpt lat="45.19696" lon="0.58094">
        <ele>169.60000610352</ele>
        <time>2018-06-26T07:58:28.000Z</time>
      </trkpt>
      <trkpt lat="45.19687" lon="0.58096">
        <ele>169.19999694824</ele>
        <time>2018-06-26T07:58:30.000Z</time>
      </trkpt>
      <trkpt lat="45.19657" lon="0.58102">
        <ele>169</ele>
        <time>2018-06-26T07:58:36.000Z</time>
      </trkpt>
      <trkpt lat="45.19636" lon="0.58105">
        <ele>168</ele>
        <time>2018-06-26T07:58:40.000Z</time>
      </trkpt>
      <trkpt lat="45.19621" lon="0.58109">
        <ele>167.80000305176</ele>
        <time>2018-06-26T07:58:43.000Z</time>
      </trkpt>
      <trkpt lat="45.19591" lon="0.58117">
        <ele>167.19999694824</ele>
        <time>2018-06-26T07:58:49.000Z</time>
      </trkpt>
      <trkpt lat="45.19587" lon="0.58119">
        <ele>167.19999694824</ele>
        <time>2018-06-26T07:58:50.000Z</time>
      </trkpt>
      <trkpt lat="45.19578" lon="0.58125">
        <ele>167.60000610352</ele>
        <time>2018-06-26T07:58:52.000Z</time>
      </trkpt>
      <trkpt lat="45.19566" lon="0.58136">
        <ele>167.60000610352</ele>
        <time>2018-06-26T07:58:55.000Z</time>
      </trkpt>
      <trkpt lat="45.19537" lon="0.58169">
        <ele>168</ele>
        <time>2018-06-26T07:59:03.000Z</time>
      </trkpt>
      <trkpt lat="45.19504" lon="0.58205">
        <ele>168.19999694824</ele>
        <time>2018-06-26T07:59:12.000Z</time>
      </trkpt>
      <trkpt lat="45.19501" lon="0.58209">
        <ele>168.19999694824</ele>
        <time>2018-06-26T07:59:13.000Z</time>
      </trkpt>
      <trkpt lat="45.19491" lon="0.58226">
        <ele>168.19999694824</ele>
        <time>2018-06-26T07:59:17.000Z</time>
      </trkpt>
      <trkpt lat="45.19485" lon="0.58241">
        <ele>167.80000305176</ele>
        <time>2018-06-26T07:59:20.000Z</time>
      </trkpt>
      <trkpt lat="45.19482" lon="0.58251">
        <ele>167.60000610352</ele>
        <time>2018-06-26T07:59:22.000Z</time>
      </trkpt>
      <trkpt lat="45.19475" lon="0.58272">
        <ele>166.80000305176</ele>
        <time>2018-06-26T07:59:26.000Z</time>
      </trkpt>
      <trkpt lat="45.19468" lon="0.58295">
        <ele>166.39999389648</ele>
        <time>2018-06-26T07:59:31.000Z</time>
      </trkpt>
      <trkpt lat="45.19462" lon="0.58315">
        <ele>165.80000305176</ele>
        <time>2018-06-26T07:59:35.000Z</time>
      </trkpt>
      <trkpt lat="45.19458" lon="0.58331">
        <ele>165.60000610352</ele>
        <time>2018-06-26T07:59:38.000Z</time>
      </trkpt>
      <trkpt lat="45.1945" lon="0.58365">
        <ele>165.39999389648</ele>
        <time>2018-06-26T07:59:44.000Z</time>
      </trkpt>
      <trkpt lat="45.19443" lon="0.584">
        <ele>164.80000305176</ele>
        <time>2018-06-26T07:59:51.000Z</time>
      </trkpt>
      <trkpt lat="45.19433" lon="0.58444">
        <ele>165.39999389648</ele>
        <time>2018-06-26T08:00:00.000Z</time>
      </trkpt>
      <trkpt lat="45.19425" lon="0.58478">
        <ele>165.60000610352</ele>
        <time>2018-06-26T08:00:07.000Z</time>
      </trkpt>
      <trkpt lat="45.19414" lon="0.58505">
        <ele>165.39999389648</ele>
        <time>2018-06-26T08:00:13.000Z</time>
      </trkpt>
      <trkpt lat="45.19391" lon="0.58525">
        <ele>165.80000305176</ele>
        <time>2018-06-26T08:00:18.000Z</time>
      </trkpt>
      <trkpt lat="45.19371" lon="0.58527">
        <ele>165.80000305176</ele>
        <time>2018-06-26T08:00:24.000Z</time>
      </trkpt>
      <trkpt lat="45.19361" lon="0.58526">
        <ele>166</ele>
        <time>2018-06-26T08:00:30.000Z</time>
      </trkpt>
      <trkpt lat="45.19361" lon="0.58517">
        <ele>166</ele>
        <time>2018-06-26T08:01:05.000Z</time>
      </trkpt>
      <trkpt lat="45.1936" lon="0.58513">
        <ele>166.19999694824</ele>
        <time>2018-06-26T08:01:06.000Z</time>
      </trkpt>
      <trkpt lat="45.1936" lon="0.58499">
        <ele>165.80000305176</ele>
        <time>2018-06-26T08:01:10.000Z</time>
      </trkpt>
      <trkpt lat="45.1936" lon="0.58495">
        <ele>166</ele>
        <time>2018-06-26T08:01:11.000Z</time>
      </trkpt>
      <trkpt lat="45.19358" lon="0.58468">
        <ele>166</ele>
        <time>2018-06-26T08:01:17.000Z</time>
      </trkpt>
      <trkpt lat="45.19362" lon="0.58422">
        <ele>165</ele>
        <time>2018-06-26T08:01:25.000Z</time>
      </trkpt>
      <trkpt lat="45.19364" lon="0.58408">
        <ele>164.60000610352</ele>
        <time>2018-06-26T08:01:27.000Z</time>
      </trkpt>
      <trkpt lat="45.19368" lon="0.58384">
        <ele>163.39999389648</ele>
        <time>2018-06-26T08:01:30.000Z</time>
      </trkpt>
      <trkpt lat="45.19369" lon="0.58375">
        <ele>163</ele>
        <time>2018-06-26T08:01:31.000Z</time>
      </trkpt>
      <trkpt lat="45.19373" lon="0.58345">
        <ele>162.19999694824</ele>
        <time>2018-06-26T08:01:34.000Z</time>
      </trkpt>
      <trkpt lat="45.19377" lon="0.58325">
        <ele>161.60000610352</ele>
        <time>2018-06-26T08:01:36.000Z</time>
      </trkpt>
      <trkpt lat="45.19379" lon="0.58315">
        <ele>161</ele>
        <time>2018-06-26T08:01:37.000Z</time>
      </trkpt>
      <trkpt lat="45.19393" lon="0.58258">
        <ele>159.80000305176</ele>
        <time>2018-06-26T08:01:43.000Z</time>
      </trkpt>
      <trkpt lat="45.19398" lon="0.58208">
        <ele>159.19999694824</ele>
        <time>2018-06-26T08:01:49.000Z</time>
      </trkpt>
      <trkpt lat="45.19406" lon="0.58151">
        <ele>159</ele>
        <time>2018-06-26T08:01:57.000Z</time>
      </trkpt>
      <trkpt lat="45.19407" lon="0.58142">
        <ele>158.80000305176</ele>
        <time>2018-06-26T08:01:58.000Z</time>
      </trkpt>
      <trkpt lat="45.19411" lon="0.58107">
        <ele>157.60000610352</ele>
        <time>2018-06-26T08:02:02.000Z</time>
      </trkpt>
      <trkpt lat="45.19415" lon="0.58068">
        <ele>156.19999694824</ele>
        <time>2018-06-26T08:02:06.000Z</time>
      </trkpt>
      <trkpt lat="45.19417" lon="0.58047">
        <ele>155.39999389648</ele>
        <time>2018-06-26T08:02:08.000Z</time>
      </trkpt>
      <trkpt lat="45.19418" lon="0.58036">
        <ele>155.19999694824</ele>
        <time>2018-06-26T08:02:09.000Z</time>
      </trkpt>
      <trkpt lat="45.19421" lon="0.58004">
        <ele>154</ele>
        <time>2018-06-26T08:02:12.000Z</time>
      </trkpt>
      <trkpt lat="45.19428" lon="0.57972">
        <ele>153</ele>
        <time>2018-06-26T08:02:15.000Z</time>
      </trkpt>
      <trkpt lat="45.19429" lon="0.57961">
        <ele>152.60000610352</ele>
        <time>2018-06-26T08:02:16.000Z</time>
      </trkpt>
      <trkpt lat="45.19431" lon="0.5794">
        <ele>151.39999389648</ele>
        <time>2018-06-26T08:02:18.000Z</time>
      </trkpt>
      <trkpt lat="45.19431" lon="0.57917">
        <ele>149.80000305176</ele>
        <time>2018-06-26T08:02:20.000Z</time>
      </trkpt>
      <trkpt lat="45.1943" lon="0.57905">
        <ele>149.19999694824</ele>
        <time>2018-06-26T08:02:21.000Z</time>
      </trkpt>
      <trkpt lat="45.19429" lon="0.57893">
        <ele>148.39999389648</ele>
        <time>2018-06-26T08:02:22.000Z</time>
      </trkpt>
      <trkpt lat="45.19427" lon="0.57866">
        <ele>147</ele>
        <time>2018-06-26T08:02:24.000Z</time>
      </trkpt>
      <trkpt lat="45.19423" lon="0.57851">
        <ele>145</ele>
        <time>2018-06-26T08:02:25.000Z</time>
      </trkpt>
      <trkpt lat="45.19419" lon="0.5782">
        <ele>143.19999694824</ele>
        <time>2018-06-26T08:02:27.000Z</time>
      </trkpt>
      <trkpt lat="45.19418" lon="0.57804">
        <ele>142.39999389648</ele>
        <time>2018-06-26T08:02:28.000Z</time>
      </trkpt>
      <trkpt lat="45.19418" lon="0.57788">
        <ele>141.60000610352</ele>
        <time>2018-06-26T08:02:29.000Z</time>
      </trkpt>
      <trkpt lat="45.19419" lon="0.57772">
        <ele>140.39999389648</ele>
        <time>2018-06-26T08:02:30.000Z</time>
      </trkpt>
      <trkpt lat="45.19419" lon="0.57756">
        <ele>139.39999389648</ele>
        <time>2018-06-26T08:02:31.000Z</time>
      </trkpt>
      <trkpt lat="45.19419" lon="0.57739">
        <ele>138</ele>
        <time>2018-06-26T08:02:32.000Z</time>
      </trkpt>
      <trkpt lat="45.19418" lon="0.57721">
        <ele>136.60000610352</ele>
        <time>2018-06-26T08:02:33.000Z</time>
      </trkpt>
      <trkpt lat="45.19417" lon="0.57702">
        <ele>135.19999694824</ele>
        <time>2018-06-26T08:02:34.000Z</time>
      </trkpt>
      <trkpt lat="45.19416" lon="0.57683">
        <ele>133.80000305176</ele>
        <time>2018-06-26T08:02:35.000Z</time>
      </trkpt>
      <trkpt lat="45.19416" lon="0.57666">
        <ele>132</ele>
        <time>2018-06-26T08:02:36.000Z</time>
      </trkpt>
      <trkpt lat="45.19413" lon="0.57648">
        <ele>130</ele>
        <time>2018-06-26T08:02:37.000Z</time>
      </trkpt>
      <trkpt lat="45.19411" lon="0.57631">
        <ele>127.80000305176</ele>
        <time>2018-06-26T08:02:38.000Z</time>
      </trkpt>
      <trkpt lat="45.1941" lon="0.57613">
        <ele>125.80000305176</ele>
        <time>2018-06-26T08:02:39.000Z</time>
      </trkpt>
      <trkpt lat="45.19407" lon="0.57595">
        <ele>124</ele>
        <time>2018-06-26T08:02:40.000Z</time>
      </trkpt>
      <trkpt lat="45.19402" lon="0.57578">
        <ele>122</ele>
        <time>2018-06-26T08:02:41.000Z</time>
      </trkpt>
      <trkpt lat="45.19399" lon="0.57564">
        <ele>119.80000305176</ele>
        <time>2018-06-26T08:02:42.000Z</time>
      </trkpt>
      <trkpt lat="45.19396" lon="0.5755">
        <ele>117.59999847412</ele>
        <time>2018-06-26T08:02:43.000Z</time>
      </trkpt>
      <trkpt lat="45.19395" lon="0.57538">
        <ele>115.59999847412</ele>
        <time>2018-06-26T08:02:44.000Z</time>
      </trkpt>
      <trkpt lat="45.19395" lon="0.57529">
        <ele>114</ele>
        <time>2018-06-26T08:02:45.000Z</time>
      </trkpt>
      <trkpt lat="45.19395" lon="0.57523">
        <ele>112.80000305176</ele>
        <time>2018-06-26T08:02:46.000Z</time>
      </trkpt>
      <trkpt lat="45.19395" lon="0.57519">
        <ele>111.40000152588</ele>
        <time>2018-06-26T08:02:47.000Z</time>
      </trkpt>
      <trkpt lat="45.19395" lon="0.57515">
        <ele>110.40000152588</ele>
        <time>2018-06-26T08:02:48.000Z</time>
      </trkpt>
      <trkpt lat="45.19393" lon="0.57511">
        <ele>109.59999847412</ele>
        <time>2018-06-26T08:02:49.000Z</time>
      </trkpt>
      <trkpt lat="45.19391" lon="0.57507">
        <ele>109.40000152588</ele>
        <time>2018-06-26T08:02:50.000Z</time>
      </trkpt>
      <trkpt lat="45.19387" lon="0.57503">
        <ele>109.19999694824</ele>
        <time>2018-06-26T08:02:51.000Z</time>
      </trkpt>
      <trkpt lat="45.19376" lon="0.57487">
        <ele>108.40000152588</ele>
        <time>2018-06-26T08:02:54.000Z</time>
      </trkpt>
      <trkpt lat="45.19373" lon="0.5748">
        <ele>108.19999694824</ele>
        <time>2018-06-26T08:02:55.000Z</time>
      </trkpt>
      <trkpt lat="45.19369" lon="0.57458">
        <ele>107.40000152588</ele>
        <time>2018-06-26T08:02:58.000Z</time>
      </trkpt>
      <trkpt lat="45.19368" lon="0.57451">
        <ele>107.40000152588</ele>
        <time>2018-06-26T08:02:59.000Z</time>
      </trkpt>
      <trkpt lat="45.19372" lon="0.57431">
        <ele>107</ele>
        <time>2018-06-26T08:03:02.000Z</time>
      </trkpt>
      <trkpt lat="45.19377" lon="0.57427">
        <ele>107</ele>
        <time>2018-06-26T08:03:03.000Z</time>
      </trkpt>
      <trkpt lat="45.1939" lon="0.57421">
        <ele>106.19999694824</ele>
        <time>2018-06-26T08:03:06.000Z</time>
      </trkpt>
      <trkpt lat="45.19394" lon="0.57411">
        <ele>106.40000152588</ele>
        <time>2018-06-26T08:03:08.000Z</time>
      </trkpt>
      <trkpt lat="45.19396" lon="0.57407">
        <ele>106.59999847412</ele>
        <time>2018-06-26T08:03:09.000Z</time>
      </trkpt>
      <trkpt lat="45.19401" lon="0.57385">
        <ele>108.19999694824</ele>
        <time>2018-06-26T08:03:14.000Z</time>
      </trkpt>
      <trkpt lat="45.19397" lon="0.5735">
        <ele>108.59999847412</ele>
        <time>2018-06-26T08:03:19.000Z</time>
      </trkpt>
      <trkpt lat="45.19397" lon="0.57294">
        <ele>108.80000305176</ele>
        <time>2018-06-26T08:03:27.000Z</time>
      </trkpt>
      <trkpt lat="45.19399" lon="0.57282">
        <ele>108.80000305176</ele>
        <time>2018-06-26T08:03:29.000Z</time>
      </trkpt>
      <trkpt lat="45.19402" lon="0.57265">
        <ele>108.59999847412</ele>
        <time>2018-06-26T08:03:32.000Z</time>
      </trkpt>
      <trkpt lat="45.1941" lon="0.57223">
        <ele>109</ele>
        <time>2018-06-26T08:03:39.000Z</time>
      </trkpt>
      <trkpt lat="45.19411" lon="0.57212">
        <ele>109.19999694824</ele>
        <time>2018-06-26T08:03:41.000Z</time>
      </trkpt>
      <trkpt lat="45.19411" lon="0.57186">
        <ele>109.19999694824</ele>
        <time>2018-06-26T08:03:46.000Z</time>
      </trkpt>
      <trkpt lat="45.19408" lon="0.57154">
        <ele>109.40000152588</ele>
        <time>2018-06-26T08:03:52.000Z</time>
      </trkpt>
      <trkpt lat="45.19408" lon="0.57134">
        <ele>109</ele>
        <time>2018-06-26T08:03:55.000Z</time>
      </trkpt>
      <trkpt lat="45.19406" lon="0.57121">
        <ele>109.19999694824</ele>
        <time>2018-06-26T08:03:57.000Z</time>
      </trkpt>
      <trkpt lat="45.19404" lon="0.57092">
        <ele>109</ele>
        <time>2018-06-26T08:04:02.000Z</time>
      </trkpt>
      <trkpt lat="45.19403" lon="0.57085">
        <ele>109</ele>
        <time>2018-06-26T08:04:03.000Z</time>
      </trkpt>
      <trkpt lat="45.194" lon="0.57051">
        <ele>108.80000305176</ele>
        <time>2018-06-26T08:04:08.000Z</time>
      </trkpt>
      <trkpt lat="45.19398" lon="0.57007">
        <ele>109.59999847412</ele>
        <time>2018-06-26T08:04:15.000Z</time>
      </trkpt>
      <trkpt lat="45.19401" lon="0.56967">
        <ele>110.19999694824</ele>
        <time>2018-06-26T08:04:22.000Z</time>
      </trkpt>
      <trkpt lat="45.19404" lon="0.56951">
        <ele>111.19999694824</ele>
        <time>2018-06-26T08:04:26.000Z</time>
      </trkpt>
      <trkpt lat="45.19407" lon="0.56943">
        <ele>111.80000305176</ele>
        <time>2018-06-26T08:04:28.000Z</time>
      </trkpt>
      <trkpt lat="45.19411" lon="0.56933">
        <ele>112.40000152588</ele>
        <time>2018-06-26T08:04:31.000Z</time>
      </trkpt>
      <trkpt lat="45.19415" lon="0.56923">
        <ele>112.80000305176</ele>
        <time>2018-06-26T08:04:34.000Z</time>
      </trkpt>
      <trkpt lat="45.19427" lon="0.56898">
        <ele>112.80000305176</ele>
        <time>2018-06-26T08:04:40.000Z</time>
      </trkpt>
      <trkpt lat="45.19429" lon="0.56867">
        <ele>112.59999847412</ele>
        <time>2018-06-26T08:04:45.000Z</time>
      </trkpt>
      <trkpt lat="45.1943" lon="0.56823">
        <ele>111.80000305176</ele>
        <time>2018-06-26T08:04:53.000Z</time>
      </trkpt>
      <trkpt lat="45.19426" lon="0.56792">
        <ele>111.40000152588</ele>
        <time>2018-06-26T08:04:59.000Z</time>
      </trkpt>
      <trkpt lat="45.19426" lon="0.56787">
        <ele>111.40000152588</ele>
        <time>2018-06-26T08:05:00.000Z</time>
      </trkpt>
      <trkpt lat="45.19426" lon="0.56761">
        <ele>111.80000305176</ele>
        <time>2018-06-26T08:05:06.000Z</time>
      </trkpt>
      <trkpt lat="45.19433" lon="0.56751">
        <ele>111.80000305176</ele>
        <time>2018-06-26T08:05:10.000Z</time>
      </trkpt>
      <trkpt lat="45.19442" lon="0.56737">
        <ele>112.40000152588</ele>
        <time>2018-06-26T08:05:14.000Z</time>
      </trkpt>
      <trkpt lat="45.19444" lon="0.56733">
        <ele>112.80000305176</ele>
        <time>2018-06-26T08:05:15.000Z</time>
      </trkpt>
      <trkpt lat="45.19451" lon="0.56722">
        <ele>113.80000305176</ele>
        <time>2018-06-26T08:05:19.000Z</time>
      </trkpt>
      <trkpt lat="45.19453" lon="0.56721">
        <ele>113.80000305176</ele>
        <time>2018-06-26T08:05:20.000Z</time>
      </trkpt>
      <trkpt lat="45.19458" lon="0.56715">
        <ele>114.80000305176</ele>
        <time>2018-06-26T08:05:23.000Z</time>
      </trkpt>
      <trkpt lat="45.19461" lon="0.5671">
        <ele>115</ele>
        <time>2018-06-26T08:05:25.000Z</time>
      </trkpt>
      <trkpt lat="45.19467" lon="0.56702">
        <ele>115.80000305176</ele>
        <time>2018-06-26T08:05:28.000Z</time>
      </trkpt>
      <trkpt lat="45.19472" lon="0.56694">
        <ele>116.80000305176</ele>
        <time>2018-06-26T08:05:31.000Z</time>
      </trkpt>
      <trkpt lat="45.19474" lon="0.56687">
        <ele>117</ele>
        <time>2018-06-26T08:05:33.000Z</time>
      </trkpt>
      <trkpt lat="45.19478" lon="0.56672">
        <ele>118</ele>
        <time>2018-06-26T08:05:37.000Z</time>
      </trkpt>
      <trkpt lat="45.19479" lon="0.56657">
        <ele>119</ele>
        <time>2018-06-26T08:05:41.000Z</time>
      </trkpt>
      <trkpt lat="45.19479" lon="0.56653">
        <ele>119.19999694824</ele>
        <time>2018-06-26T08:05:42.000Z</time>
      </trkpt>
      <trkpt lat="45.19477" lon="0.56627">
        <ele>119.19999694824</ele>
        <time>2018-06-26T08:05:48.000Z</time>
      </trkpt>
      <trkpt lat="45.19477" lon="0.56593">
        <ele>119.59999847412</ele>
        <time>2018-06-26T08:05:56.000Z</time>
      </trkpt>
      <trkpt lat="45.19477" lon="0.56562">
        <ele>120.40000152588</ele>
        <time>2018-06-26T08:06:04.000Z</time>
      </trkpt>
      <trkpt lat="45.19469" lon="0.56541">
        <ele>121.19999694824</ele>
        <time>2018-06-26T08:06:11.000Z</time>
      </trkpt>
      <trkpt lat="45.19468" lon="0.56538">
        <ele>121.40000152588</ele>
        <time>2018-06-26T08:06:12.000Z</time>
      </trkpt>
      <trkpt lat="45.19461" lon="0.56519">
        <ele>122</ele>
        <time>2018-06-26T08:06:18.000Z</time>
      </trkpt>
      <trkpt lat="45.19458" lon="0.56513">
        <ele>122.59999847412</ele>
        <time>2018-06-26T08:06:20.000Z</time>
      </trkpt>
      <trkpt lat="45.19454" lon="0.56501">
        <ele>123.19999694824</ele>
        <time>2018-06-26T08:06:24.000Z</time>
      </trkpt>
      <trkpt lat="45.19452" lon="0.56497">
        <ele>123.80000305176</ele>
        <time>2018-06-26T08:06:26.000Z</time>
      </trkpt>
      <trkpt lat="45.19447" lon="0.56484">
        <ele>124.59999847412</ele>
        <time>2018-06-26T08:06:31.000Z</time>
      </trkpt>
      <trkpt lat="45.19446" lon="0.56482">
        <ele>124.80000305176</ele>
        <time>2018-06-26T08:06:32.000Z</time>
      </trkpt>
      <trkpt lat="45.19438" lon="0.56472">
        <ele>125.80000305176</ele>
        <time>2018-06-26T08:06:37.000Z</time>
      </trkpt>
      <trkpt lat="45.19435" lon="0.56468">
        <ele>126.40000152588</ele>
        <time>2018-06-26T08:06:39.000Z</time>
      </trkpt>
      <trkpt lat="45.19431" lon="0.56461">
        <ele>127</ele>
        <time>2018-06-26T08:06:42.000Z</time>
      </trkpt>
      <trkpt lat="45.19423" lon="0.56451">
        <ele>127.59999847412</ele>
        <time>2018-06-26T08:06:46.000Z</time>
      </trkpt>
      <trkpt lat="45.19418" lon="0.56442">
        <ele>128.39999389648</ele>
        <time>2018-06-26T08:06:49.000Z</time>
      </trkpt>
      <trkpt lat="45.19412" lon="0.56433">
        <ele>129.19999694824</ele>
        <time>2018-06-26T08:06:53.000Z</time>
      </trkpt>
      <trkpt lat="45.19411" lon="0.5643">
        <ele>129.39999389648</ele>
        <time>2018-06-26T08:06:54.000Z</time>
      </trkpt>
      <trkpt lat="45.19404" lon="0.56417">
        <ele>130.60000610352</ele>
        <time>2018-06-26T08:06:59.000Z</time>
      </trkpt>
      <trkpt lat="45.19403" lon="0.56414">
        <ele>130.80000305176</ele>
        <time>2018-06-26T08:07:00.000Z</time>
      </trkpt>
      <trkpt lat="45.19401" lon="0.56404">
        <ele>131.60000610352</ele>
        <time>2018-06-26T08:07:03.000Z</time>
      </trkpt>
      <trkpt lat="45.19402" lon="0.56396">
        <ele>132.39999389648</ele>
        <time>2018-06-26T08:07:06.000Z</time>
      </trkpt>
      <trkpt lat="45.19403" lon="0.56393">
        <ele>132.60000610352</ele>
        <time>2018-06-26T08:07:07.000Z</time>
      </trkpt>
      <trkpt lat="45.19406" lon="0.56377">
        <ele>133.39999389648</ele>
        <time>2018-06-26T08:07:12.000Z</time>
      </trkpt>
      <trkpt lat="45.19407" lon="0.56374">
        <ele>133.80000305176</ele>
        <time>2018-06-26T08:07:13.000Z</time>
      </trkpt>
      <trkpt lat="45.19412" lon="0.5636">
        <ele>134.60000610352</ele>
        <time>2018-06-26T08:07:18.000Z</time>
      </trkpt>
      <trkpt lat="45.19418" lon="0.56344">
        <ele>134.80000305176</ele>
        <time>2018-06-26T08:07:23.000Z</time>
      </trkpt>
      <trkpt lat="45.1942" lon="0.56336">
        <ele>135</ele>
        <time>2018-06-26T08:07:25.000Z</time>
      </trkpt>
      <trkpt lat="45.19431" lon="0.56305">
        <ele>135.39999389648</ele>
        <time>2018-06-26T08:07:33.000Z</time>
      </trkpt>
      <trkpt lat="45.19444" lon="0.56278">
        <ele>134.80000305176</ele>
        <time>2018-06-26T08:07:39.000Z</time>
      </trkpt>
      <trkpt lat="45.19457" lon="0.56247">
        <ele>133.80000305176</ele>
        <time>2018-06-26T08:07:45.000Z</time>
      </trkpt>
      <trkpt lat="45.19458" lon="0.56241">
        <ele>133.80000305176</ele>
        <time>2018-06-26T08:07:46.000Z</time>
      </trkpt>
      <trkpt lat="45.1946" lon="0.56215">
        <ele>133.39999389648</ele>
        <time>2018-06-26T08:07:50.000Z</time>
      </trkpt>
      <trkpt lat="45.19459" lon="0.56203">
        <ele>133.19999694824</ele>
        <time>2018-06-26T08:07:52.000Z</time>
      </trkpt>
      <trkpt lat="45.1946" lon="0.56177">
        <ele>132.80000305176</ele>
        <time>2018-06-26T08:07:56.000Z</time>
      </trkpt>
      <trkpt lat="45.19461" lon="0.56159">
        <ele>132.19999694824</ele>
        <time>2018-06-26T08:07:59.000Z</time>
      </trkpt>
      <trkpt lat="45.19463" lon="0.56099">
        <ele>132.80000305176</ele>
        <time>2018-06-26T08:08:09.000Z</time>
      </trkpt>
      <trkpt lat="45.19459" lon="0.56053">
        <ele>133.19999694824</ele>
        <time>2018-06-26T08:08:17.000Z</time>
      </trkpt>
      <trkpt lat="45.19452" lon="0.56007">
        <ele>132.19999694824</ele>
        <time>2018-06-26T08:08:25.000Z</time>
      </trkpt>
      <trkpt lat="45.1945" lon="0.55976">
        <ele>132.39999389648</ele>
        <time>2018-06-26T08:08:31.000Z</time>
      </trkpt>
      <trkpt lat="45.19448" lon="0.55971">
        <ele>132.39999389648</ele>
        <time>2018-06-26T08:08:33.000Z</time>
      </trkpt>
      <trkpt lat="45.19444" lon="0.5597">
        <ele>132.39999389648</ele>
        <time>2018-06-26T08:08:35.000Z</time>
      </trkpt>
      <trkpt lat="45.19438" lon="0.55975">
        <ele>133.60000610352</ele>
        <time>2018-06-26T08:08:39.000Z</time>
      </trkpt>
      <trkpt lat="45.1943" lon="0.5598">
        <ele>133.80000305176</ele>
        <time>2018-06-26T08:08:42.000Z</time>
      </trkpt>
      <trkpt lat="45.19419" lon="0.55983">
        <ele>134.19999694824</ele>
        <time>2018-06-26T08:08:46.000Z</time>
      </trkpt>
      <trkpt lat="45.19412" lon="0.55984">
        <ele>134.80000305176</ele>
        <time>2018-06-26T08:08:49.000Z</time>
      </trkpt>
      <trkpt lat="45.194" lon="0.55985">
        <ele>135.80000305176</ele>
        <time>2018-06-26T08:08:54.000Z</time>
      </trkpt>
      <trkpt lat="45.19397" lon="0.55986">
        <ele>136</ele>
        <time>2018-06-26T08:08:55.000Z</time>
      </trkpt>
      <trkpt lat="45.19383" lon="0.55988">
        <ele>137</ele>
        <time>2018-06-26T08:09:01.000Z</time>
      </trkpt>
      <trkpt lat="45.1938" lon="0.55988">
        <ele>137.19999694824</ele>
        <time>2018-06-26T08:09:02.000Z</time>
      </trkpt>
      <trkpt lat="45.19367" lon="0.5599">
        <ele>138.19999694824</ele>
        <time>2018-06-26T08:09:08.000Z</time>
      </trkpt>
      <trkpt lat="45.19356" lon="0.5599">
        <ele>139.39999389648</ele>
        <time>2018-06-26T08:09:13.000Z</time>
      </trkpt>
      <trkpt lat="45.19348" lon="0.55989">
        <ele>140.19999694824</ele>
        <time>2018-06-26T08:09:17.000Z</time>
      </trkpt>
      <trkpt lat="45.19343" lon="0.5599">
        <ele>140.60000610352</ele>
        <time>2018-06-26T08:09:19.000Z</time>
      </trkpt>
      <trkpt lat="45.19333" lon="0.5599">
        <ele>141.80000305176</ele>
        <time>2018-06-26T08:09:24.000Z</time>
      </trkpt>
      <trkpt lat="45.19331" lon="0.55989">
        <ele>142</ele>
        <time>2018-06-26T08:09:25.000Z</time>
      </trkpt>
      <trkpt lat="45.19323" lon="0.55989">
        <ele>142.80000305176</ele>
        <time>2018-06-26T08:09:29.000Z</time>
      </trkpt>
      <trkpt lat="45.19316" lon="0.55988">
        <ele>143.80000305176</ele>
        <time>2018-06-26T08:09:33.000Z</time>
      </trkpt>
      <trkpt lat="45.19312" lon="0.55988">
        <ele>144.19999694824</ele>
        <time>2018-06-26T08:09:35.000Z</time>
      </trkpt>
      <trkpt lat="45.19307" lon="0.55985">
        <ele>145</ele>
        <time>2018-06-26T08:09:39.000Z</time>
      </trkpt>
      <trkpt lat="45.19303" lon="0.55984">
        <ele>145.60000610352</ele>
        <time>2018-06-26T08:09:41.000Z</time>
      </trkpt>
      <trkpt lat="45.193" lon="0.55982">
        <ele>146.19999694824</ele>
        <time>2018-06-26T08:09:43.000Z</time>
      </trkpt>
      <trkpt lat="45.19293" lon="0.55979">
        <ele>147.19999694824</ele>
        <time>2018-06-26T08:09:47.000Z</time>
      </trkpt>
      <trkpt lat="45.19288" lon="0.55976">
        <ele>148.19999694824</ele>
        <time>2018-06-26T08:09:50.000Z</time>
      </trkpt>
      <trkpt lat="45.19287" lon="0.55975">
        <ele>148.39999389648</ele>
        <time>2018-06-26T08:09:51.000Z</time>
      </trkpt>
      <trkpt lat="45.1928" lon="0.55972">
        <ele>149.60000610352</ele>
        <time>2018-06-26T08:09:55.000Z</time>
      </trkpt>
      <trkpt lat="45.19278" lon="0.5597">
        <ele>150</ele>
        <time>2018-06-26T08:09:57.000Z</time>
      </trkpt>
      <trkpt lat="45.19276" lon="0.55969">
        <ele>150.19999694824</ele>
        <time>2018-06-26T08:09:58.000Z</time>
      </trkpt>
      <trkpt lat="45.19273" lon="0.55966">
        <ele>150.80000305176</ele>
        <time>2018-06-26T08:10:00.000Z</time>
      </trkpt>
      <trkpt lat="45.19269" lon="0.55963">
        <ele>151.80000305176</ele>
        <time>2018-06-26T08:10:03.000Z</time>
      </trkpt>
      <trkpt lat="45.19267" lon="0.55962">
        <ele>152</ele>
        <time>2018-06-26T08:10:04.000Z</time>
      </trkpt>
      <trkpt lat="45.19261" lon="0.55958">
        <ele>153</ele>
        <time>2018-06-26T08:10:08.000Z</time>
      </trkpt>
      <trkpt lat="45.19255" lon="0.55952">
        <ele>154</ele>
        <time>2018-06-26T08:10:12.000Z</time>
      </trkpt>
      <trkpt lat="45.19244" lon="0.55946">
        <ele>155.19999694824</ele>
        <time>2018-06-26T08:10:18.000Z</time>
      </trkpt>
      <trkpt lat="45.1924" lon="0.55944">
        <ele>155.60000610352</ele>
        <time>2018-06-26T08:10:20.000Z</time>
      </trkpt>
      <trkpt lat="45.19233" lon="0.55941">
        <ele>156.39999389648</ele>
        <time>2018-06-26T08:10:24.000Z</time>
      </trkpt>
      <trkpt lat="45.19226" lon="0.55938">
        <ele>157.39999389648</ele>
        <time>2018-06-26T08:10:28.000Z</time>
      </trkpt>
      <trkpt lat="45.19224" lon="0.55937">
        <ele>157.60000610352</ele>
        <time>2018-06-26T08:10:29.000Z</time>
      </trkpt>
      <trkpt lat="45.19215" lon="0.55933">
        <ele>158.60000610352</ele>
        <time>2018-06-26T08:10:34.000Z</time>
      </trkpt>
      <trkpt lat="45.19209" lon="0.5593">
        <ele>159.39999389648</ele>
        <time>2018-06-26T08:10:37.000Z</time>
      </trkpt>
      <trkpt lat="45.19206" lon="0.55929">
        <ele>159.80000305176</ele>
        <time>2018-06-26T08:10:39.000Z</time>
      </trkpt>
      <trkpt lat="45.19199" lon="0.55926">
        <ele>161</ele>
        <time>2018-06-26T08:10:43.000Z</time>
      </trkpt>
      <trkpt lat="45.1919" lon="0.55924">
        <ele>161.80000305176</ele>
        <time>2018-06-26T08:10:48.000Z</time>
      </trkpt>
      <trkpt lat="45.19188" lon="0.55924">
        <ele>162.19999694824</ele>
        <time>2018-06-26T08:10:49.000Z</time>
      </trkpt>
      <trkpt lat="45.19179" lon="0.55923">
        <ele>163.39999389648</ele>
        <time>2018-06-26T08:10:54.000Z</time>
      </trkpt>
      <trkpt lat="45.19177" lon="0.55922">
        <ele>163.60000610352</ele>
        <time>2018-06-26T08:10:55.000Z</time>
      </trkpt>
      <trkpt lat="45.19176" lon="0.55922">
        <ele>164</ele>
        <time>2018-06-26T08:10:56.000Z</time>
      </trkpt>
      <trkpt lat="45.19172" lon="0.55922">
        <ele>164.60000610352</ele>
        <time>2018-06-26T08:10:58.000Z</time>
      </trkpt>
      <trkpt lat="45.19166" lon="0.55922">
        <ele>165.60000610352</ele>
        <time>2018-06-26T08:11:02.000Z</time>
      </trkpt>
      <trkpt lat="45.19162" lon="0.55923">
        <ele>166.19999694824</ele>
        <time>2018-06-26T08:11:04.000Z</time>
      </trkpt>
      <trkpt lat="45.19159" lon="0.55923">
        <ele>166.80000305176</ele>
        <time>2018-06-26T08:11:06.000Z</time>
      </trkpt>
      <trkpt lat="45.19152" lon="0.55922">
        <ele>167.80000305176</ele>
        <time>2018-06-26T08:11:10.000Z</time>
      </trkpt>
      <trkpt lat="45.19146" lon="0.55921">
        <ele>169</ele>
        <time>2018-06-26T08:11:14.000Z</time>
      </trkpt>
      <trkpt lat="45.19141" lon="0.5592">
        <ele>169.60000610352</ele>
        <time>2018-06-26T08:11:17.000Z</time>
      </trkpt>
      <trkpt lat="45.19136" lon="0.55918">
        <ele>170.19999694824</ele>
        <time>2018-06-26T08:11:20.000Z</time>
      </trkpt>
      <trkpt lat="45.19131" lon="0.55917">
        <ele>170.80000305176</ele>
        <time>2018-06-26T08:11:23.000Z</time>
      </trkpt>
      <trkpt lat="45.19127" lon="0.55917">
        <ele>171.19999694824</ele>
        <time>2018-06-26T08:11:25.000Z</time>
      </trkpt>
      <trkpt lat="45.19121" lon="0.55917">
        <ele>172.39999389648</ele>
        <time>2018-06-26T08:11:29.000Z</time>
      </trkpt>
      <trkpt lat="45.19119" lon="0.55916">
        <ele>172.60000610352</ele>
        <time>2018-06-26T08:11:30.000Z</time>
      </trkpt>
      <trkpt lat="45.1911" lon="0.55916">
        <ele>173.60000610352</ele>
        <time>2018-06-26T08:11:35.000Z</time>
      </trkpt>
      <trkpt lat="45.19109" lon="0.55917">
        <ele>173.80000305176</ele>
        <time>2018-06-26T08:11:36.000Z</time>
      </trkpt>
      <trkpt lat="45.19103" lon="0.55918">
        <ele>174.60000610352</ele>
        <time>2018-06-26T08:11:39.000Z</time>
      </trkpt>
      <trkpt lat="45.19101" lon="0.55918">
        <ele>174.80000305176</ele>
        <time>2018-06-26T08:11:40.000Z</time>
      </trkpt>
      <trkpt lat="45.19095" lon="0.55919">
        <ele>175.60000610352</ele>
        <time>2018-06-26T08:11:43.000Z</time>
      </trkpt>
      <trkpt lat="45.19091" lon="0.5592">
        <ele>175.80000305176</ele>
        <time>2018-06-26T08:11:45.000Z</time>
      </trkpt>
      <trkpt lat="45.1908" lon="0.55922">
        <ele>176.60000610352</ele>
        <time>2018-06-26T08:11:50.000Z</time>
      </trkpt>
      <trkpt lat="45.19076" lon="0.55922">
        <ele>176.80000305176</ele>
        <time>2018-06-26T08:11:52.000Z</time>
      </trkpt>
      <trkpt lat="45.19061" lon="0.55925">
        <ele>177.39999389648</ele>
        <time>2018-06-26T08:11:57.000Z</time>
      </trkpt>
      <trkpt lat="45.19047" lon="0.55924">
        <ele>177</ele>
        <time>2018-06-26T08:12:01.000Z</time>
      </trkpt>
      <trkpt lat="45.19036" lon="0.5592">
        <ele>176.39999389648</ele>
        <time>2018-06-26T08:12:04.000Z</time>
      </trkpt>
      <trkpt lat="45.19033" lon="0.55917">
        <ele>176.39999389648</ele>
        <time>2018-06-26T08:12:05.000Z</time>
      </trkpt>
      <trkpt lat="45.19028" lon="0.55902">
        <ele>176</ele>
        <time>2018-06-26T08:12:08.000Z</time>
      </trkpt>
      <trkpt lat="45.19027" lon="0.55898">
        <ele>176.19999694824</ele>
        <time>2018-06-26T08:12:09.000Z</time>
      </trkpt>
      <trkpt lat="45.19023" lon="0.55885">
        <ele>176.60000610352</ele>
        <time>2018-06-26T08:12:13.000Z</time>
      </trkpt>
      <trkpt lat="45.19013" lon="0.55863">
        <ele>177.39999389648</ele>
        <time>2018-06-26T08:12:19.000Z</time>
      </trkpt>
      <trkpt lat="45.19007" lon="0.55848">
        <ele>177.80000305176</ele>
        <time>2018-06-26T08:12:23.000Z</time>
      </trkpt>
      <trkpt lat="45.19001" lon="0.55832">
        <ele>178.39999389648</ele>
        <time>2018-06-26T08:12:27.000Z</time>
      </trkpt>
      <trkpt lat="45.18995" lon="0.55816">
        <ele>179</ele>
        <time>2018-06-26T08:12:31.000Z</time>
      </trkpt>
      <trkpt lat="45.18989" lon="0.55804">
        <ele>179.39999389648</ele>
        <time>2018-06-26T08:12:34.000Z</time>
      </trkpt>
      <trkpt lat="45.18979" lon="0.55784">
        <ele>180.19999694824</ele>
        <time>2018-06-26T08:12:39.000Z</time>
      </trkpt>
      <trkpt lat="45.1897" lon="0.55768">
        <ele>180.60000610352</ele>
        <time>2018-06-26T08:12:43.000Z</time>
      </trkpt>
      <trkpt lat="45.18954" lon="0.55731">
        <ele>181</ele>
        <time>2018-06-26T08:12:51.000Z</time>
      </trkpt>
      <trkpt lat="45.18952" lon="0.55726">
        <ele>181.19999694824</ele>
        <time>2018-06-26T08:12:52.000Z</time>
      </trkpt>
      <trkpt lat="45.18943" lon="0.55692">
        <ele>182</ele>
        <time>2018-06-26T08:12:59.000Z</time>
      </trkpt>
      <trkpt lat="45.18942" lon="0.55686">
        <ele>182.39999389648</ele>
        <time>2018-06-26T08:13:00.000Z</time>
      </trkpt>
      <trkpt lat="45.18937" lon="0.55659">
        <ele>182.39999389648</ele>
        <time>2018-06-26T08:13:05.000Z</time>
      </trkpt>
      <trkpt lat="45.18936" lon="0.55621">
        <ele>183.19999694824</ele>
        <time>2018-06-26T08:13:12.000Z</time>
      </trkpt>
      <trkpt lat="45.18936" lon="0.5561">
        <ele>183.39999389648</ele>
        <time>2018-06-26T08:13:14.000Z</time>
      </trkpt>
      <trkpt lat="45.18941" lon="0.55578">
        <ele>183.80000305176</ele>
        <time>2018-06-26T08:13:20.000Z</time>
      </trkpt>
      <trkpt lat="45.18944" lon="0.55557">
        <ele>184.60000610352</ele>
        <time>2018-06-26T08:13:24.000Z</time>
      </trkpt>
      <trkpt lat="45.18948" lon="0.55532">
        <ele>185.60000610352</ele>
        <time>2018-06-26T08:13:29.000Z</time>
      </trkpt>
      <trkpt lat="45.18949" lon="0.55527">
        <ele>185.80000305176</ele>
        <time>2018-06-26T08:13:30.000Z</time>
      </trkpt>
      <trkpt lat="45.18951" lon="0.55508">
        <ele>186.80000305176</ele>
        <time>2018-06-26T08:13:34.000Z</time>
      </trkpt>
      <trkpt lat="45.18952" lon="0.55489">
        <ele>187.60000610352</ele>
        <time>2018-06-26T08:13:38.000Z</time>
      </trkpt>
      <trkpt lat="45.18952" lon="0.55484">
        <ele>188.60000610352</ele>
        <time>2018-06-26T08:13:39.000Z</time>
      </trkpt>
      <trkpt lat="45.18951" lon="0.5545">
        <ele>188.60000610352</ele>
        <time>2018-06-26T08:13:46.000Z</time>
      </trkpt>
      <trkpt lat="45.1895" lon="0.55432">
        <ele>188.19999694824</ele>
        <time>2018-06-26T08:13:49.000Z</time>
      </trkpt>
      <trkpt lat="45.1895" lon="0.55414">
        <ele>187.60000610352</ele>
        <time>2018-06-26T08:13:52.000Z</time>
      </trkpt>
      <trkpt lat="45.1895" lon="0.55395">
        <ele>186.39999389648</ele>
        <time>2018-06-26T08:13:55.000Z</time>
      </trkpt>
      <trkpt lat="45.18951" lon="0.5538">
        <ele>186.39999389648</ele>
        <time>2018-06-26T08:13:57.000Z</time>
      </trkpt>
      <trkpt lat="45.18952" lon="0.55373">
        <ele>186.19999694824</ele>
        <time>2018-06-26T08:13:58.000Z</time>
      </trkpt>
      <trkpt lat="45.18953" lon="0.55358">
        <ele>185.19999694824</ele>
        <time>2018-06-26T08:14:00.000Z</time>
      </trkpt>
      <trkpt lat="45.18955" lon="0.55334">
        <ele>184</ele>
        <time>2018-06-26T08:14:03.000Z</time>
      </trkpt>
      <trkpt lat="45.18954" lon="0.55326">
        <ele>184</ele>
        <time>2018-06-26T08:14:04.000Z</time>
      </trkpt>
      <trkpt lat="45.18943" lon="0.55291">
        <ele>183</ele>
        <time>2018-06-26T08:14:08.000Z</time>
      </trkpt>
      <trkpt lat="45.18935" lon="0.55271">
        <ele>181.80000305176</ele>
        <time>2018-06-26T08:14:11.000Z</time>
      </trkpt>
      <trkpt lat="45.18934" lon="0.55266">
        <ele>181.60000610352</ele>
        <time>2018-06-26T08:14:12.000Z</time>
      </trkpt>
      <trkpt lat="45.18934" lon="0.5526">
        <ele>181.39999389648</ele>
        <time>2018-06-26T08:14:13.000Z</time>
      </trkpt>
      <trkpt lat="45.18938" lon="0.55244">
        <ele>180.80000305176</ele>
        <time>2018-06-26T08:14:16.000Z</time>
      </trkpt>
      <trkpt lat="45.1894" lon="0.5524">
        <ele>180.80000305176</ele>
        <time>2018-06-26T08:14:17.000Z</time>
      </trkpt>
      <trkpt lat="45.18942" lon="0.55237">
        <ele>181</ele>
        <time>2018-06-26T08:14:18.000Z</time>
      </trkpt>
      <trkpt lat="45.18957" lon="0.55209">
        <ele>181.80000305176</ele>
        <time>2018-06-26T08:14:24.000Z</time>
      </trkpt>
      <trkpt lat="45.18962" lon="0.55199">
        <ele>182</ele>
        <time>2018-06-26T08:14:26.000Z</time>
      </trkpt>
      <trkpt lat="45.18972" lon="0.55179">
        <ele>183</ele>
        <time>2018-06-26T08:14:31.000Z</time>
      </trkpt>
      <trkpt lat="45.18979" lon="0.5516">
        <ele>184</ele>
        <time>2018-06-26T08:14:36.000Z</time>
      </trkpt>
      <trkpt lat="45.1898" lon="0.55155">
        <ele>184.19999694824</ele>
        <time>2018-06-26T08:14:37.000Z</time>
      </trkpt>
      <trkpt lat="45.1899" lon="0.55136">
        <ele>185.19999694824</ele>
        <time>2018-06-26T08:14:43.000Z</time>
      </trkpt>
      <trkpt lat="45.18995" lon="0.55125">
        <ele>186.39999389648</ele>
        <time>2018-06-26T08:14:48.000Z</time>
      </trkpt>
      <trkpt lat="45.18995" lon="0.55121">
        <ele>186.80000305176</ele>
        <time>2018-06-26T08:14:50.000Z</time>
      </trkpt>
      <trkpt lat="45.18995" lon="0.55118">
        <ele>187</ele>
        <time>2018-06-26T08:14:51.000Z</time>
      </trkpt>
      <trkpt lat="45.18996" lon="0.55111">
        <ele>187.60000610352</ele>
        <time>2018-06-26T08:14:54.000Z</time>
      </trkpt>
      <trkpt lat="45.18997" lon="0.55105">
        <ele>188.80000305176</ele>
        <time>2018-06-26T08:14:58.000Z</time>
      </trkpt>
      <trkpt lat="45.18999" lon="0.55099">
        <ele>189.39999389648</ele>
        <time>2018-06-26T08:15:01.000Z</time>
      </trkpt>
      <trkpt lat="45.19" lon="0.55096">
        <ele>190</ele>
        <time>2018-06-26T08:15:03.000Z</time>
      </trkpt>
      <trkpt lat="45.19003" lon="0.55089">
        <ele>191</ele>
        <time>2018-06-26T08:15:07.000Z</time>
      </trkpt>
      <trkpt lat="45.19005" lon="0.55084">
        <ele>192</ele>
        <time>2018-06-26T08:15:10.000Z</time>
      </trkpt>
      <trkpt lat="45.19005" lon="0.55082">
        <ele>192.19999694824</ele>
        <time>2018-06-26T08:15:11.000Z</time>
      </trkpt>
      <trkpt lat="45.19007" lon="0.55076">
        <ele>193.60000610352</ele>
        <time>2018-06-26T08:15:14.000Z</time>
      </trkpt>
      <trkpt lat="45.19009" lon="0.55071">
        <ele>194.19999694824</ele>
        <time>2018-06-26T08:15:17.000Z</time>
      </trkpt>
      <trkpt lat="45.19011" lon="0.55069">
        <ele>194.60000610352</ele>
        <time>2018-06-26T08:15:18.000Z</time>
      </trkpt>
      <trkpt lat="45.19013" lon="0.55063">
        <ele>195.80000305176</ele>
        <time>2018-06-26T08:15:21.000Z</time>
      </trkpt>
      <trkpt lat="45.19013" lon="0.55061">
        <ele>196</ele>
        <time>2018-06-26T08:15:22.000Z</time>
      </trkpt>
      <trkpt lat="45.19016" lon="0.55054">
        <ele>197.19999694824</ele>
        <time>2018-06-26T08:15:26.000Z</time>
      </trkpt>
      <trkpt lat="45.19017" lon="0.55052">
        <ele>197.39999389648</ele>
        <time>2018-06-26T08:15:27.000Z</time>
      </trkpt>
      <trkpt lat="45.19019" lon="0.55047">
        <ele>198</ele>
        <time>2018-06-26T08:15:29.000Z</time>
      </trkpt>
      <trkpt lat="45.19019" lon="0.55045">
        <ele>198.19999694824</ele>
        <time>2018-06-26T08:15:30.000Z</time>
      </trkpt>
      <trkpt lat="45.19021" lon="0.55038">
        <ele>198.60000610352</ele>
        <time>2018-06-26T08:15:33.000Z</time>
      </trkpt>
      <trkpt lat="45.1902" lon="0.55034">
        <ele>199.19999694824</ele>
        <time>2018-06-26T08:15:35.000Z</time>
      </trkpt>
      <trkpt lat="45.19021" lon="0.55032">
        <ele>199.60000610352</ele>
        <time>2018-06-26T08:15:36.000Z</time>
      </trkpt>
      <trkpt lat="45.19022" lon="0.55027">
        <ele>200.39999389648</ele>
        <time>2018-06-26T08:15:39.000Z</time>
      </trkpt>
      <trkpt lat="45.19023" lon="0.55025">
        <ele>200.80000305176</ele>
        <time>2018-06-26T08:15:40.000Z</time>
      </trkpt>
      <trkpt lat="45.19026" lon="0.55015">
        <ele>201.60000610352</ele>
        <time>2018-06-26T08:15:45.000Z</time>
      </trkpt>
      <trkpt lat="45.19026" lon="0.55013">
        <ele>201.80000305176</ele>
        <time>2018-06-26T08:15:46.000Z</time>
      </trkpt>
      <trkpt lat="45.19028" lon="0.55002">
        <ele>202.80000305176</ele>
        <time>2018-06-26T08:15:51.000Z</time>
      </trkpt>
      <trkpt lat="45.1903" lon="0.55">
        <ele>203</ele>
        <time>2018-06-26T08:15:52.000Z</time>
      </trkpt>
      <trkpt lat="45.1903" lon="0.54998">
        <ele>203.19999694824</ele>
        <time>2018-06-26T08:15:53.000Z</time>
      </trkpt>
      <trkpt lat="45.19033" lon="0.54986">
        <ele>204</ele>
        <time>2018-06-26T08:15:59.000Z</time>
      </trkpt>
      <trkpt lat="45.19033" lon="0.54984">
        <ele>204.19999694824</ele>
        <time>2018-06-26T08:16:00.000Z</time>
      </trkpt>
      <trkpt lat="45.19036" lon="0.54975">
        <ele>205.19999694824</ele>
        <time>2018-06-26T08:16:04.000Z</time>
      </trkpt>
      <trkpt lat="45.19038" lon="0.54971">
        <ele>205.60000610352</ele>
        <time>2018-06-26T08:16:06.000Z</time>
      </trkpt>
      <trkpt lat="45.19044" lon="0.54954">
        <ele>206.39999389648</ele>
        <time>2018-06-26T08:16:12.000Z</time>
      </trkpt>
      <trkpt lat="45.19045" lon="0.54951">
        <ele>206.39999389648</ele>
        <time>2018-06-26T08:16:13.000Z</time>
      </trkpt>
      <trkpt lat="45.19048" lon="0.5494">
        <ele>207.60000610352</ele>
        <time>2018-06-26T08:16:17.000Z</time>
      </trkpt>
      <trkpt lat="45.19051" lon="0.54929">
        <ele>208.19999694824</ele>
        <time>2018-06-26T08:16:21.000Z</time>
      </trkpt>
      <trkpt lat="45.19052" lon="0.54924">
        <ele>208.60000610352</ele>
        <time>2018-06-26T08:16:23.000Z</time>
      </trkpt>
      <trkpt lat="45.19053" lon="0.54918">
        <ele>209</ele>
        <time>2018-06-26T08:16:25.000Z</time>
      </trkpt>
      <trkpt lat="45.19055" lon="0.54913">
        <ele>209.39999389648</ele>
        <time>2018-06-26T08:16:27.000Z</time>
      </trkpt>
      <trkpt lat="45.19057" lon="0.54906">
        <ele>209.80000305176</ele>
        <time>2018-06-26T08:16:29.000Z</time>
      </trkpt>
      <trkpt lat="45.19059" lon="0.54889">
        <ele>210.19999694824</ele>
        <time>2018-06-26T08:16:34.000Z</time>
      </trkpt>
      <trkpt lat="45.19061" lon="0.54863">
        <ele>210.39999389648</ele>
        <time>2018-06-26T08:16:41.000Z</time>
      </trkpt>
      <trkpt lat="45.19062" lon="0.54843">
        <ele>210.39999389648</ele>
        <time>2018-06-26T08:16:46.000Z</time>
      </trkpt>
      <trkpt lat="45.19062" lon="0.54831">
        <ele>210.80000305176</ele>
        <time>2018-06-26T08:16:49.000Z</time>
      </trkpt>
      <trkpt lat="45.19064" lon="0.54817">
        <ele>210.80000305176</ele>
        <time>2018-06-26T08:16:52.000Z</time>
      </trkpt>
      <trkpt lat="45.19066" lon="0.54797">
        <ele>211.19999694824</ele>
        <time>2018-06-26T08:16:58.000Z</time>
      </trkpt>
      <trkpt lat="45.19068" lon="0.54772">
        <ele>211.60000610352</ele>
        <time>2018-06-26T08:17:05.000Z</time>
      </trkpt>
      <trkpt lat="45.19068" lon="0.54761">
        <ele>211.80000305176</ele>
        <time>2018-06-26T08:17:08.000Z</time>
      </trkpt>
      <trkpt lat="45.19068" lon="0.54745">
        <ele>212</ele>
        <time>2018-06-26T08:17:12.000Z</time>
      </trkpt>
      <trkpt lat="45.19072" lon="0.54716">
        <ele>212.19999694824</ele>
        <time>2018-06-26T08:17:18.000Z</time>
      </trkpt>
      <trkpt lat="45.19073" lon="0.54693">
        <ele>212.39999389648</ele>
        <time>2018-06-26T08:17:23.000Z</time>
      </trkpt>
      <trkpt lat="45.19074" lon="0.54674">
        <ele>212</ele>
        <time>2018-06-26T08:17:28.000Z</time>
      </trkpt>
      <trkpt lat="45.19075" lon="0.54655">
        <ele>212</ele>
        <time>2018-06-26T08:17:33.000Z</time>
      </trkpt>
      <trkpt lat="45.19085" lon="0.54635">
        <ele>211.39999389648</ele>
        <time>2018-06-26T08:17:38.000Z</time>
      </trkpt>
      <trkpt lat="45.19095" lon="0.54623">
        <ele>210.60000610352</ele>
        <time>2018-06-26T08:17:41.000Z</time>
      </trkpt>
      <trkpt lat="45.19104" lon="0.5461">
        <ele>210.19999694824</ele>
        <time>2018-06-26T08:17:44.000Z</time>
      </trkpt>
      <trkpt lat="45.1911" lon="0.546">
        <ele>209.39999389648</ele>
        <time>2018-06-26T08:17:46.000Z</time>
      </trkpt>
      <trkpt lat="45.19119" lon="0.54582">
        <ele>208.19999694824</ele>
        <time>2018-06-26T08:17:49.000Z</time>
      </trkpt>
      <trkpt lat="45.19128" lon="0.54569">
        <ele>207.39999389648</ele>
        <time>2018-06-26T08:17:51.000Z</time>
      </trkpt>
      <trkpt lat="45.19134" lon="0.54563">
        <ele>206.80000305176</ele>
        <time>2018-06-26T08:17:52.000Z</time>
      </trkpt>
      <trkpt lat="45.1914" lon="0.54556">
        <ele>206.39999389648</ele>
        <time>2018-06-26T08:17:53.000Z</time>
      </trkpt>
      <trkpt lat="45.19146" lon="0.54548">
        <ele>205.60000610352</ele>
        <time>2018-06-26T08:17:54.000Z</time>
      </trkpt>
      <trkpt lat="45.19158" lon="0.54532">
        <ele>204</ele>
        <time>2018-06-26T08:17:56.000Z</time>
      </trkpt>
      <trkpt lat="45.19176" lon="0.54506">
        <ele>202.80000305176</ele>
        <time>2018-06-26T08:17:59.000Z</time>
      </trkpt>
      <trkpt lat="45.19184" lon="0.54491">
        <ele>201</ele>
        <time>2018-06-26T08:18:01.000Z</time>
      </trkpt>
      <trkpt lat="45.19186" lon="0.54486">
        <ele>199.39999389648</ele>
        <time>2018-06-26T08:18:02.000Z</time>
      </trkpt>
      <trkpt lat="45.1919" lon="0.54477">
        <ele>198.19999694824</ele>
        <time>2018-06-26T08:18:04.000Z</time>
      </trkpt>
      <trkpt lat="45.1919" lon="0.54471">
        <ele>197.39999389648</ele>
        <time>2018-06-26T08:18:06.000Z</time>
      </trkpt>
      <trkpt lat="45.19191" lon="0.54468">
        <ele>197.19999694824</ele>
        <time>2018-06-26T08:18:07.000Z</time>
      </trkpt>
      <trkpt lat="45.19193" lon="0.54455">
        <ele>196.60000610352</ele>
        <time>2018-06-26T08:18:10.000Z</time>
      </trkpt>
      <trkpt lat="45.19196" lon="0.54446">
        <ele>195.80000305176</ele>
        <time>2018-06-26T08:18:12.000Z</time>
      </trkpt>
      <trkpt lat="45.19198" lon="0.54438">
        <ele>195.39999389648</ele>
        <time>2018-06-26T08:18:14.000Z</time>
      </trkpt>
      <trkpt lat="45.19208" lon="0.54403">
        <ele>194.80000305176</ele>
        <time>2018-06-26T08:18:20.000Z</time>
      </trkpt>
      <trkpt lat="45.19216" lon="0.54371">
        <ele>193.60000610352</ele>
        <time>2018-06-26T08:18:25.000Z</time>
      </trkpt>
      <trkpt lat="45.19223" lon="0.54353">
        <ele>193.19999694824</ele>
        <time>2018-06-26T08:18:28.000Z</time>
      </trkpt>
      <trkpt lat="45.19234" lon="0.54331">
        <ele>192.39999389648</ele>
        <time>2018-06-26T08:18:32.000Z</time>
      </trkpt>
      <trkpt lat="45.19241" lon="0.54319">
        <ele>192.39999389648</ele>
        <time>2018-06-26T08:18:34.000Z</time>
      </trkpt>
      <trkpt lat="45.19266" lon="0.54276">
        <ele>191.39999389648</ele>
        <time>2018-06-26T08:18:41.000Z</time>
      </trkpt>
      <trkpt lat="45.19298" lon="0.54222">
        <ele>190.19999694824</ele>
        <time>2018-06-26T08:18:49.000Z</time>
      </trkpt>
      <trkpt lat="45.19302" lon="0.54216">
        <ele>190</ele>
        <time>2018-06-26T08:18:50.000Z</time>
      </trkpt>
      <trkpt lat="45.19335" lon="0.54176">
        <ele>189.80000305176</ele>
        <time>2018-06-26T08:18:57.000Z</time>
      </trkpt>
      <trkpt lat="45.19371" lon="0.5415">
        <ele>189.60000610352</ele>
        <time>2018-06-26T08:19:04.000Z</time>
      </trkpt>
      <trkpt lat="45.19401" lon="0.54128">
        <ele>190.60000610352</ele>
        <time>2018-06-26T08:19:10.000Z</time>
      </trkpt>
      <trkpt lat="45.19432" lon="0.54105">
        <ele>191.39999389648</ele>
        <time>2018-06-26T08:19:17.000Z</time>
      </trkpt>
      <trkpt lat="45.19436" lon="0.54101">
        <ele>191.39999389648</ele>
        <time>2018-06-26T08:19:18.000Z</time>
      </trkpt>
      <trkpt lat="45.19455" lon="0.54083">
        <ele>192.39999389648</ele>
        <time>2018-06-26T08:19:23.000Z</time>
      </trkpt>
      <trkpt lat="45.19466" lon="0.54071">
        <ele>192.80000305176</ele>
        <time>2018-06-26T08:19:26.000Z</time>
      </trkpt>
      <trkpt lat="45.19486" lon="0.54045">
        <ele>193.80000305176</ele>
        <time>2018-06-26T08:19:32.000Z</time>
      </trkpt>
      <trkpt lat="45.19489" lon="0.5404">
        <ele>194</ele>
        <time>2018-06-26T08:19:33.000Z</time>
      </trkpt>
      <trkpt lat="45.19505" lon="0.54012">
        <ele>194.39999389648</ele>
        <time>2018-06-26T08:19:39.000Z</time>
      </trkpt>
      <trkpt lat="45.19516" lon="0.53986">
        <ele>194.80000305176</ele>
        <time>2018-06-26T08:19:44.000Z</time>
      </trkpt>
      <trkpt lat="45.19522" lon="0.53971">
        <ele>195.60000610352</ele>
        <time>2018-06-26T08:19:47.000Z</time>
      </trkpt>
      <trkpt lat="45.19523" lon="0.53966">
        <ele>195.80000305176</ele>
        <time>2018-06-26T08:19:48.000Z</time>
      </trkpt>
      <trkpt lat="45.19529" lon="0.5394">
        <ele>197</ele>
        <time>2018-06-26T08:19:53.000Z</time>
      </trkpt>
      <trkpt lat="45.1953" lon="0.53926">
        <ele>197.60000610352</ele>
        <time>2018-06-26T08:19:56.000Z</time>
      </trkpt>
      <trkpt lat="45.19531" lon="0.53911">
        <ele>198.19999694824</ele>
        <time>2018-06-26T08:19:59.000Z</time>
      </trkpt>
      <trkpt lat="45.19531" lon="0.53892">
        <ele>199.19999694824</ele>
        <time>2018-06-26T08:20:03.000Z</time>
      </trkpt>
      <trkpt lat="45.19529" lon="0.53872">
        <ele>200.39999389648</ele>
        <time>2018-06-26T08:20:08.000Z</time>
      </trkpt>
      <trkpt lat="45.19527" lon="0.53861">
        <ele>201</ele>
        <time>2018-06-26T08:20:10.000Z</time>
      </trkpt>
      <trkpt lat="45.19524" lon="0.53844">
        <ele>201.60000610352</ele>
        <time>2018-06-26T08:20:13.000Z</time>
      </trkpt>
      <trkpt lat="45.1952" lon="0.53821">
        <ele>202.60000610352</ele>
        <time>2018-06-26T08:20:17.000Z</time>
      </trkpt>
      <trkpt lat="45.19516" lon="0.53797">
        <ele>203.80000305176</ele>
        <time>2018-06-26T08:20:21.000Z</time>
      </trkpt>
      <trkpt lat="45.19511" lon="0.53768">
        <ele>205</ele>
        <time>2018-06-26T08:20:26.000Z</time>
      </trkpt>
      <trkpt lat="45.1951" lon="0.53762">
        <ele>205.19999694824</ele>
        <time>2018-06-26T08:20:27.000Z</time>
      </trkpt>
      <trkpt lat="45.19508" lon="0.53745">
        <ele>206.19999694824</ele>
        <time>2018-06-26T08:20:30.000Z</time>
      </trkpt>
      <trkpt lat="45.19509" lon="0.53728">
        <ele>207.19999694824</ele>
        <time>2018-06-26T08:20:33.000Z</time>
      </trkpt>
      <trkpt lat="45.1951" lon="0.53723">
        <ele>207.39999389648</ele>
        <time>2018-06-26T08:20:34.000Z</time>
      </trkpt>
      <trkpt lat="45.19516" lon="0.53702">
        <ele>208.60000610352</ele>
        <time>2018-06-26T08:20:38.000Z</time>
      </trkpt>
      <trkpt lat="45.19519" lon="0.53697">
        <ele>209</ele>
        <time>2018-06-26T08:20:39.000Z</time>
      </trkpt>
      <trkpt lat="45.19527" lon="0.53686">
        <ele>209.80000305176</ele>
        <time>2018-06-26T08:20:42.000Z</time>
      </trkpt>
      <trkpt lat="45.19536" lon="0.53677">
        <ele>210.19999694824</ele>
        <time>2018-06-26T08:20:45.000Z</time>
      </trkpt>
      <trkpt lat="45.19543" lon="0.53672">
        <ele>211</ele>
        <time>2018-06-26T08:20:47.000Z</time>
      </trkpt>
      <trkpt lat="45.19552" lon="0.53664">
        <ele>212.19999694824</ele>
        <time>2018-06-26T08:20:50.000Z</time>
      </trkpt>
      <trkpt lat="45.1956" lon="0.53656">
        <ele>213</ele>
        <time>2018-06-26T08:20:53.000Z</time>
      </trkpt>
      <trkpt lat="45.19563" lon="0.53653">
        <ele>213.19999694824</ele>
        <time>2018-06-26T08:20:54.000Z</time>
      </trkpt>
      <trkpt lat="45.19571" lon="0.53645">
        <ele>214.39999389648</ele>
        <time>2018-06-26T08:20:57.000Z</time>
      </trkpt>
      <trkpt lat="45.19579" lon="0.53636">
        <ele>214.80000305176</ele>
        <time>2018-06-26T08:21:00.000Z</time>
      </trkpt>
      <trkpt lat="45.19584" lon="0.53629">
        <ele>215.60000610352</ele>
        <time>2018-06-26T08:21:02.000Z</time>
      </trkpt>
      <trkpt lat="45.19593" lon="0.53615">
        <ele>216.39999389648</ele>
        <time>2018-06-26T08:21:06.000Z</time>
      </trkpt>
      <trkpt lat="45.19598" lon="0.53608">
        <ele>217</ele>
        <time>2018-06-26T08:21:08.000Z</time>
      </trkpt>
      <trkpt lat="45.19605" lon="0.53592">
        <ele>218</ele>
        <time>2018-06-26T08:21:12.000Z</time>
      </trkpt>
      <trkpt lat="45.19609" lon="0.53584">
        <ele>218.60000610352</ele>
        <time>2018-06-26T08:21:14.000Z</time>
      </trkpt>
      <trkpt lat="45.19612" lon="0.53577">
        <ele>219</ele>
        <time>2018-06-26T08:21:16.000Z</time>
      </trkpt>
      <trkpt lat="45.19621" lon="0.53555">
        <ele>220</ele>
        <time>2018-06-26T08:21:21.000Z</time>
      </trkpt>
      <trkpt lat="45.19625" lon="0.53546">
        <ele>220.19999694824</ele>
        <time>2018-06-26T08:21:23.000Z</time>
      </trkpt>
      <trkpt lat="45.19633" lon="0.53525">
        <ele>221.19999694824</ele>
        <time>2018-06-26T08:21:28.000Z</time>
      </trkpt>
      <trkpt lat="45.19638" lon="0.53512">
        <ele>221.80000305176</ele>
        <time>2018-06-26T08:21:31.000Z</time>
      </trkpt>
      <trkpt lat="45.19639" lon="0.53508">
        <ele>222.19999694824</ele>
        <time>2018-06-26T08:21:32.000Z</time>
      </trkpt>
      <trkpt lat="45.19651" lon="0.53483">
        <ele>223.39999389648</ele>
        <time>2018-06-26T08:21:38.000Z</time>
      </trkpt>
      <trkpt lat="45.19663" lon="0.53453">
        <ele>224.60000610352</ele>
        <time>2018-06-26T08:21:45.000Z</time>
      </trkpt>
      <trkpt lat="45.19676" lon="0.53417">
        <ele>225</ele>
        <time>2018-06-26T08:21:52.000Z</time>
      </trkpt>
      <trkpt lat="45.19692" lon="0.53383">
        <ele>224.39999389648</ele>
        <time>2018-06-26T08:21:58.000Z</time>
      </trkpt>
      <trkpt lat="45.1971" lon="0.53346">
        <ele>223.60000610352</ele>
        <time>2018-06-26T08:22:04.000Z</time>
      </trkpt>
      <trkpt lat="45.19713" lon="0.5334">
        <ele>223.39999389648</ele>
        <time>2018-06-26T08:22:05.000Z</time>
      </trkpt>
      <trkpt lat="45.19724" lon="0.53314">
        <ele>222.80000305176</ele>
        <time>2018-06-26T08:22:09.000Z</time>
      </trkpt>
      <trkpt lat="45.1973" lon="0.53301">
        <ele>222.39999389648</ele>
        <time>2018-06-26T08:22:11.000Z</time>
      </trkpt>
      <trkpt lat="45.19747" lon="0.53265">
        <ele>221.60000610352</ele>
        <time>2018-06-26T08:22:16.000Z</time>
      </trkpt>
      <trkpt lat="45.19754" lon="0.53249">
        <ele>221.19999694824</ele>
        <time>2018-06-26T08:22:18.000Z</time>
      </trkpt>
      <trkpt lat="45.19772" lon="0.53204">
        <ele>220.60000610352</ele>
        <time>2018-06-26T08:22:24.000Z</time>
      </trkpt>
      <trkpt lat="45.19788" lon="0.53178">
        <ele>221.19999694824</ele>
        <time>2018-06-26T08:22:29.000Z</time>
      </trkpt>
      <trkpt lat="45.19798" lon="0.53162">
        <ele>221.39999389648</ele>
        <time>2018-06-26T08:22:34.000Z</time>
      </trkpt>
      <trkpt lat="45.19809" lon="0.53142">
        <ele>222.19999694824</ele>
        <time>2018-06-26T08:22:40.000Z</time>
      </trkpt>
      <trkpt lat="45.1981" lon="0.53139">
        <ele>222.39999389648</ele>
        <time>2018-06-26T08:22:41.000Z</time>
      </trkpt>
      <trkpt lat="45.19816" lon="0.5312">
        <ele>222.60000610352</ele>
        <time>2018-06-26T08:22:46.000Z</time>
      </trkpt>
      <trkpt lat="45.19825" lon="0.53088">
        <ele>223.39999389648</ele>
        <time>2018-06-26T08:23:04.000Z</time>
      </trkpt>
      <trkpt lat="45.19828" lon="0.53078">
        <ele>223.39999389648</ele>
        <time>2018-06-26T08:23:07.000Z</time>
      </trkpt>
      <trkpt lat="45.19837" lon="0.5305">
        <ele>224.60000610352</ele>
        <time>2018-06-26T08:23:15.000Z</time>
      </trkpt>
      <trkpt lat="45.19845" lon="0.5302">
        <ele>225</ele>
        <time>2018-06-26T08:23:22.000Z</time>
      </trkpt>
      <trkpt lat="45.19854" lon="0.52994">
        <ele>224.60000610352</ele>
        <time>2018-06-26T08:23:29.000Z</time>
      </trkpt>
      <trkpt lat="45.19865" lon="0.52952">
        <ele>224</ele>
        <time>2018-06-26T08:23:38.000Z</time>
      </trkpt>
      <trkpt lat="45.19871" lon="0.52915">
        <ele>223.80000305176</ele>
        <time>2018-06-26T08:23:45.000Z</time>
      </trkpt>
      <trkpt lat="45.19877" lon="0.5289">
        <ele>223.80000305176</ele>
        <time>2018-06-26T08:23:52.000Z</time>
      </trkpt>
      <trkpt lat="45.19885" lon="0.52854">
        <ele>224.39999389648</ele>
        <time>2018-06-26T08:24:14.000Z</time>
      </trkpt>
      <trkpt lat="45.19886" lon="0.52846">
        <ele>224.60000610352</ele>
        <time>2018-06-26T08:24:16.000Z</time>
      </trkpt>
      <trkpt lat="45.19889" lon="0.5282">
        <ele>225</ele>
        <time>2018-06-26T08:24:24.000Z</time>
      </trkpt>
      <trkpt lat="45.19892" lon="0.52803">
        <ele>225.80000305176</ele>
        <time>2018-06-26T08:24:30.000Z</time>
      </trkpt>
      <trkpt lat="45.19893" lon="0.52795">
        <ele>226</ele>
        <time>2018-06-26T08:24:33.000Z</time>
      </trkpt>
      <trkpt lat="45.19898" lon="0.52779">
        <ele>226.80000305176</ele>
        <time>2018-06-26T08:24:39.000Z</time>
      </trkpt>
      <trkpt lat="45.199" lon="0.52773">
        <ele>226.80000305176</ele>
        <time>2018-06-26T08:24:41.000Z</time>
      </trkpt>
      <trkpt lat="45.19906" lon="0.52751">
        <ele>227.60000610352</ele>
        <time>2018-06-26T08:24:48.000Z</time>
      </trkpt>
      <trkpt lat="45.19906" lon="0.52748">
        <ele>227.80000305176</ele>
        <time>2018-06-26T08:24:49.000Z</time>
      </trkpt>
      <trkpt lat="45.19908" lon="0.52728">
        <ele>228.39999389648</ele>
        <time>2018-06-26T08:24:55.000Z</time>
      </trkpt>
      <trkpt lat="45.19911" lon="0.52712">
        <ele>228.80000305176</ele>
        <time>2018-06-26T08:25:01.000Z</time>
      </trkpt>
      <trkpt lat="45.19912" lon="0.52707">
        <ele>228.80000305176</ele>
        <time>2018-06-26T08:25:03.000Z</time>
      </trkpt>
      <trkpt lat="45.19915" lon="0.527">
        <ele>229</ele>
        <time>2018-06-26T08:25:06.000Z</time>
      </trkpt>
      <trkpt lat="45.19918" lon="0.52696">
        <ele>229.19999694824</ele>
        <time>2018-06-26T08:25:09.000Z</time>
      </trkpt>
      <trkpt lat="45.19923" lon="0.52684">
        <ele>229.39999389648</ele>
        <time>2018-06-26T08:25:15.000Z</time>
      </trkpt>
      <trkpt lat="45.19932" lon="0.52672">
        <ele>229.19999694824</ele>
        <time>2018-06-26T08:25:21.000Z</time>
      </trkpt>
      <trkpt lat="45.19946" lon="0.52658">
        <ele>228.60000610352</ele>
        <time>2018-06-26T08:25:27.000Z</time>
      </trkpt>
      <trkpt lat="45.19951" lon="0.52653">
        <ele>228.19999694824</ele>
        <time>2018-06-26T08:25:31.000Z</time>
      </trkpt>
      <trkpt lat="45.19953" lon="0.52648">
        <ele>228.39999389648</ele>
        <time>2018-06-26T08:25:33.000Z</time>
      </trkpt>
      <trkpt lat="45.19954" lon="0.52622">
        <ele>228.60000610352</ele>
        <time>2018-06-26T08:25:39.000Z</time>
      </trkpt>
      <trkpt lat="45.19954" lon="0.52618">
        <ele>227</ele>
        <time>2018-06-26T08:25:40.000Z</time>
      </trkpt>
      <trkpt lat="45.19955" lon="0.5261">
        <ele>227.60000610352</ele>
        <time>2018-06-26T08:25:42.000Z</time>
      </trkpt>
      <trkpt lat="45.19956" lon="0.52607">
        <ele>229.19999694824</ele>
        <time>2018-06-26T08:25:43.000Z</time>
      </trkpt>
      <trkpt lat="45.19959" lon="0.52606">
        <ele>229.39999389648</ele>
        <time>2018-06-26T08:25:44.000Z</time>
      </trkpt>
      <trkpt lat="45.19964" lon="0.52605">
        <ele>228.39999389648</ele>
        <time>2018-06-26T08:25:46.000Z</time>
      </trkpt>
      <trkpt lat="45.19976" lon="0.52604">
        <ele>228.60000610352</ele>
        <time>2018-06-26T08:25:50.000Z</time>
      </trkpt>
      <trkpt lat="45.19999" lon="0.52603">
        <ele>229.19999694824</ele>
        <time>2018-06-26T08:25:57.000Z</time>
      </trkpt>
      <trkpt lat="45.20023" lon="0.52597">
        <ele>230</ele>
        <time>2018-06-26T08:26:04.000Z</time>
      </trkpt>
      <trkpt lat="45.20035" lon="0.52594">
        <ele>230.19999694824</ele>
        <time>2018-06-26T08:26:07.000Z</time>
      </trkpt>
      <trkpt lat="45.20052" lon="0.52586">
        <ele>230.19999694824</ele>
        <time>2018-06-26T08:26:11.000Z</time>
      </trkpt>
      <trkpt lat="45.20072" lon="0.52576">
        <ele>230.60000610352</ele>
        <time>2018-06-26T08:26:16.000Z</time>
      </trkpt>
      <trkpt lat="45.20102" lon="0.52556">
        <ele>230.60000610352</ele>
        <time>2018-06-26T08:26:23.000Z</time>
      </trkpt>
      <trkpt lat="45.20127" lon="0.52537">
        <ele>230.19999694824</ele>
        <time>2018-06-26T08:26:29.000Z</time>
      </trkpt>
      <trkpt lat="45.20142" lon="0.52531">
        <ele>229.80000305176</ele>
        <time>2018-06-26T08:26:33.000Z</time>
      </trkpt>
      <trkpt lat="45.20153" lon="0.52546">
        <ele>229.60000610352</ele>
        <time>2018-06-26T08:26:37.000Z</time>
      </trkpt>
      <trkpt lat="45.20168" lon="0.52554">
        <ele>229.80000305176</ele>
        <time>2018-06-26T08:26:42.000Z</time>
      </trkpt>
      <trkpt lat="45.20196" lon="0.5256">
        <ele>230</ele>
        <time>2018-06-26T08:26:49.000Z</time>
      </trkpt>
      <trkpt lat="45.20221" lon="0.52573">
        <ele>230</ele>
        <time>2018-06-26T08:26:56.000Z</time>
      </trkpt>
      <trkpt lat="45.20234" lon="0.52582">
        <ele>229.60000610352</ele>
        <time>2018-06-26T08:27:01.000Z</time>
      </trkpt>
      <trkpt lat="45.20251" lon="0.52585">
        <ele>229.39999389648</ele>
        <time>2018-06-26T08:27:06.000Z</time>
      </trkpt>
      <trkpt lat="45.20269" lon="0.52576">
        <ele>230.19999694824</ele>
        <time>2018-06-26T08:27:12.000Z</time>
      </trkpt>
      <trkpt lat="45.20286" lon="0.52562">
        <ele>231</ele>
        <time>2018-06-26T08:27:19.000Z</time>
      </trkpt>
      <trkpt lat="45.20289" lon="0.52561">
        <ele>231.19999694824</ele>
        <time>2018-06-26T08:27:20.000Z</time>
      </trkpt>
      <trkpt lat="45.20307" lon="0.52547">
        <ele>231.80000305176</ele>
        <time>2018-06-26T08:27:26.000Z</time>
      </trkpt>
      <trkpt lat="45.20339" lon="0.52527">
        <ele>232.19999694824</ele>
        <time>2018-06-26T08:27:32.000Z</time>
      </trkpt>
      <trkpt lat="45.20359" lon="0.52513">
        <ele>232.39999389648</ele>
        <time>2018-06-26T08:27:36.000Z</time>
      </trkpt>
      <trkpt lat="45.20369" lon="0.52506">
        <ele>232.39999389648</ele>
        <time>2018-06-26T08:27:38.000Z</time>
      </trkpt>
      <trkpt lat="45.20388" lon="0.52487">
        <ele>232</ele>
        <time>2018-06-26T08:27:42.000Z</time>
      </trkpt>
      <trkpt lat="45.20398" lon="0.52478">
        <ele>231.19999694824</ele>
        <time>2018-06-26T08:27:44.000Z</time>
      </trkpt>
      <trkpt lat="45.20408" lon="0.52468">
        <ele>230.60000610352</ele>
        <time>2018-06-26T08:27:46.000Z</time>
      </trkpt>
      <trkpt lat="45.20412" lon="0.52461">
        <ele>230.80000305176</ele>
        <time>2018-06-26T08:27:47.000Z</time>
      </trkpt>
      <trkpt lat="45.20421" lon="0.52448">
        <ele>230</ele>
        <time>2018-06-26T08:27:49.000Z</time>
      </trkpt>
      <trkpt lat="45.20431" lon="0.5244">
        <ele>229.19999694824</ele>
        <time>2018-06-26T08:27:51.000Z</time>
      </trkpt>
      <trkpt lat="45.20437" lon="0.52436">
        <ele>228.60000610352</ele>
        <time>2018-06-26T08:27:52.000Z</time>
      </trkpt>
      <trkpt lat="45.20464" lon="0.52414">
        <ele>227.39999389648</ele>
        <time>2018-06-26T08:27:57.000Z</time>
      </trkpt>
      <trkpt lat="45.20482" lon="0.524">
        <ele>227.19999694824</ele>
        <time>2018-06-26T08:28:01.000Z</time>
      </trkpt>
      <trkpt lat="45.20487" lon="0.52398">
        <ele>227.19999694824</ele>
        <time>2018-06-26T08:28:02.000Z</time>
      </trkpt>
      <trkpt lat="45.20508" lon="0.52393">
        <ele>227.39999389648</ele>
        <time>2018-06-26T08:28:06.000Z</time>
      </trkpt>
      <trkpt lat="45.20522" lon="0.52391">
        <ele>227.19999694824</ele>
        <time>2018-06-26T08:28:09.000Z</time>
      </trkpt>
      <trkpt lat="45.20532" lon="0.52391">
        <ele>227</ele>
        <time>2018-06-26T08:28:11.000Z</time>
      </trkpt>
      <trkpt lat="45.20557" lon="0.52383">
        <ele>227.60000610352</ele>
        <time>2018-06-26T08:28:17.000Z</time>
      </trkpt>
      <trkpt lat="45.20588" lon="0.52374">
        <ele>228.60000610352</ele>
        <time>2018-06-26T08:28:24.000Z</time>
      </trkpt>
      <trkpt lat="45.20603" lon="0.52363">
        <ele>229.39999389648</ele>
        <time>2018-06-26T08:28:29.000Z</time>
      </trkpt>
      <trkpt lat="45.2061" lon="0.52359">
        <ele>229.19999694824</ele>
        <time>2018-06-26T08:28:31.000Z</time>
      </trkpt>
      <trkpt lat="45.20618" lon="0.52361">
        <ele>229.80000305176</ele>
        <time>2018-06-26T08:28:33.000Z</time>
      </trkpt>
      <trkpt lat="45.20645" lon="0.52368">
        <ele>230</ele>
        <time>2018-06-26T08:28:39.000Z</time>
      </trkpt>
      <trkpt lat="45.20682" lon="0.52379">
        <ele>230.19999694824</ele>
        <time>2018-06-26T08:28:47.000Z</time>
      </trkpt>
      <trkpt lat="45.20686" lon="0.5238">
        <ele>230.19999694824</ele>
        <time>2018-06-26T08:28:48.000Z</time>
      </trkpt>
      <trkpt lat="45.20705" lon="0.52387">
        <ele>230.80000305176</ele>
        <time>2018-06-26T08:28:52.000Z</time>
      </trkpt>
      <trkpt lat="45.20709" lon="0.52388">
        <ele>231</ele>
        <time>2018-06-26T08:28:53.000Z</time>
      </trkpt>
      <trkpt lat="45.20731" lon="0.52395">
        <ele>230.80000305176</ele>
        <time>2018-06-26T08:28:58.000Z</time>
      </trkpt>
      <trkpt lat="45.20755" lon="0.52402">
        <ele>231</ele>
        <time>2018-06-26T08:29:04.000Z</time>
      </trkpt>
      <trkpt lat="45.20789" lon="0.52406">
        <ele>231.39999389648</ele>
        <time>2018-06-26T08:29:11.000Z</time>
      </trkpt>
      <trkpt lat="45.20817" lon="0.52402">
        <ele>231</ele>
        <time>2018-06-26T08:29:16.000Z</time>
      </trkpt>
      <trkpt lat="45.20822" lon="0.524">
        <ele>231</ele>
        <time>2018-06-26T08:29:17.000Z</time>
      </trkpt>
      <trkpt lat="45.20862" lon="0.52384">
        <ele>231.80000305176</ele>
        <time>2018-06-26T08:29:25.000Z</time>
      </trkpt>
      <trkpt lat="45.20871" lon="0.52378">
        <ele>232</ele>
        <time>2018-06-26T08:29:27.000Z</time>
      </trkpt>
      <trkpt lat="45.20894" lon="0.52363">
        <ele>232.19999694824</ele>
        <time>2018-06-26T08:29:32.000Z</time>
      </trkpt>
      <trkpt lat="45.20922" lon="0.52336">
        <ele>233</ele>
        <time>2018-06-26T08:29:39.000Z</time>
      </trkpt>
      <trkpt lat="45.20946" lon="0.52301">
        <ele>233.60000610352</ele>
        <time>2018-06-26T08:29:46.000Z</time>
      </trkpt>
      <trkpt lat="45.20948" lon="0.52297">
        <ele>233.60000610352</ele>
        <time>2018-06-26T08:29:47.000Z</time>
      </trkpt>
      <trkpt lat="45.20963" lon="0.5227">
        <ele>233.60000610352</ele>
        <time>2018-06-26T08:29:52.000Z</time>
      </trkpt>
      <trkpt lat="45.20987" lon="0.52226">
        <ele>233.80000305176</ele>
        <time>2018-06-26T08:30:00.000Z</time>
      </trkpt>
      <trkpt lat="45.20996" lon="0.52209">
        <ele>234.19999694824</ele>
        <time>2018-06-26T08:30:03.000Z</time>
      </trkpt>
      <trkpt lat="45.21003" lon="0.52197">
        <ele>234.39999389648</ele>
        <time>2018-06-26T08:30:05.000Z</time>
      </trkpt>
      <trkpt lat="45.21013" lon="0.52178">
        <ele>234.39999389648</ele>
        <time>2018-06-26T08:30:08.000Z</time>
      </trkpt>
      <trkpt lat="45.2102" lon="0.52164">
        <ele>234.60000610352</ele>
        <time>2018-06-26T08:30:10.000Z</time>
      </trkpt>
      <trkpt lat="45.21036" lon="0.52128">
        <ele>235.19999694824</ele>
        <time>2018-06-26T08:30:15.000Z</time>
      </trkpt>
      <trkpt lat="45.21041" lon="0.52112">
        <ele>235.19999694824</ele>
        <time>2018-06-26T08:30:17.000Z</time>
      </trkpt>
      <trkpt lat="45.21049" lon="0.52066">
        <ele>234.80000305176</ele>
        <time>2018-06-26T08:30:22.000Z</time>
      </trkpt>
      <trkpt lat="45.21055" lon="0.52015">
        <ele>234</ele>
        <time>2018-06-26T08:30:27.000Z</time>
      </trkpt>
      <trkpt lat="45.21057" lon="0.52004">
        <ele>234</ele>
        <time>2018-06-26T08:30:28.000Z</time>
      </trkpt>
      <trkpt lat="45.21066" lon="0.51951">
        <ele>233</ele>
        <time>2018-06-26T08:30:33.000Z</time>
      </trkpt>
      <trkpt lat="45.21072" lon="0.51931">
        <ele>232.60000610352</ele>
        <time>2018-06-26T08:30:35.000Z</time>
      </trkpt>
      <trkpt lat="45.21092" lon="0.51887">
        <ele>232.60000610352</ele>
        <time>2018-06-26T08:30:40.000Z</time>
      </trkpt>
      <trkpt lat="45.21129" lon="0.51833">
        <ele>232.39999389648</ele>
        <time>2018-06-26T08:30:47.000Z</time>
      </trkpt>
      <trkpt lat="45.21168" lon="0.51794">
        <ele>233</ele>
        <time>2018-06-26T08:30:53.000Z</time>
      </trkpt>
      <trkpt lat="45.21215" lon="0.51752">
        <ele>233.39999389648</ele>
        <time>2018-06-26T08:31:00.000Z</time>
      </trkpt>
      <trkpt lat="45.21228" lon="0.51741">
        <ele>233.60000610352</ele>
        <time>2018-06-26T08:31:02.000Z</time>
      </trkpt>
      <trkpt lat="45.21241" lon="0.51729">
        <ele>234.19999694824</ele>
        <time>2018-06-26T08:31:04.000Z</time>
      </trkpt>
      <trkpt lat="45.21266" lon="0.51701">
        <ele>233.60000610352</ele>
        <time>2018-06-26T08:31:08.000Z</time>
      </trkpt>
      <trkpt lat="45.21306" lon="0.51649">
        <ele>233.39999389648</ele>
        <time>2018-06-26T08:31:15.000Z</time>
      </trkpt>
      <trkpt lat="45.21348" lon="0.51595">
        <ele>233.60000610352</ele>
        <time>2018-06-26T08:31:22.000Z</time>
      </trkpt>
      <trkpt lat="45.2136" lon="0.51579">
        <ele>233.39999389648</ele>
        <time>2018-06-26T08:31:24.000Z</time>
      </trkpt>
      <trkpt lat="45.21378" lon="0.51556">
        <ele>233</ele>
        <time>2018-06-26T08:31:27.000Z</time>
      </trkpt>
      <trkpt lat="45.21405" lon="0.5152">
        <ele>233.60000610352</ele>
        <time>2018-06-26T08:31:32.000Z</time>
      </trkpt>
      <trkpt lat="45.2145" lon="0.51463">
        <ele>233.60000610352</ele>
        <time>2018-06-26T08:31:40.000Z</time>
      </trkpt>
      <trkpt lat="45.21455" lon="0.51456">
        <ele>233.80000305176</ele>
        <time>2018-06-26T08:31:41.000Z</time>
      </trkpt>
      <trkpt lat="45.21476" lon="0.51426">
        <ele>234</ele>
        <time>2018-06-26T08:31:45.000Z</time>
      </trkpt>
      <trkpt lat="45.21493" lon="0.51395">
        <ele>234</ele>
        <time>2018-06-26T08:31:49.000Z</time>
      </trkpt>
      <trkpt lat="45.21505" lon="0.51375">
        <ele>233.80000305176</ele>
        <time>2018-06-26T08:31:52.000Z</time>
      </trkpt>
      <trkpt lat="45.21511" lon="0.51373">
        <ele>233.60000610352</ele>
        <time>2018-06-26T08:31:53.000Z</time>
      </trkpt>
      <trkpt lat="45.2152" lon="0.51382">
        <ele>233.80000305176</ele>
        <time>2018-06-26T08:31:55.000Z</time>
      </trkpt>
      <trkpt lat="45.21522" lon="0.51398">
        <ele>234.39999389648</ele>
        <time>2018-06-26T08:31:57.000Z</time>
      </trkpt>
      <trkpt lat="45.21523" lon="0.51407">
        <ele>234.39999389648</ele>
        <time>2018-06-26T08:31:58.000Z</time>
      </trkpt>
      <trkpt lat="45.21524" lon="0.51469">
        <ele>234.19999694824</ele>
        <time>2018-06-26T08:32:05.000Z</time>
      </trkpt>
      <trkpt lat="45.21527" lon="0.5153">
        <ele>234.39999389648</ele>
        <time>2018-06-26T08:32:12.000Z</time>
      </trkpt>
      <trkpt lat="45.2153" lon="0.51592">
        <ele>233.80000305176</ele>
        <time>2018-06-26T08:32:19.000Z</time>
      </trkpt>
      <trkpt lat="45.21534" lon="0.51666">
        <ele>233</ele>
        <time>2018-06-26T08:32:27.000Z</time>
      </trkpt>
      <trkpt lat="45.21534" lon="0.51675">
        <ele>233</ele>
        <time>2018-06-26T08:32:28.000Z</time>
      </trkpt>
      <trkpt lat="45.21538" lon="0.51724">
        <ele>231.80000305176</ele>
        <time>2018-06-26T08:32:33.000Z</time>
      </trkpt>
      <trkpt lat="45.21538" lon="0.51734">
        <ele>231.80000305176</ele>
        <time>2018-06-26T08:32:34.000Z</time>
      </trkpt>
      <trkpt lat="45.21541" lon="0.51787">
        <ele>230.60000610352</ele>
        <time>2018-06-26T08:32:39.000Z</time>
      </trkpt>
      <trkpt lat="45.21543" lon="0.5182">
        <ele>229.80000305176</ele>
        <time>2018-06-26T08:32:42.000Z</time>
      </trkpt>
      <trkpt lat="45.21543" lon="0.51831">
        <ele>229.60000610352</ele>
        <time>2018-06-26T08:32:43.000Z</time>
      </trkpt>
      <trkpt lat="45.21544" lon="0.51862">
        <ele>228.39999389648</ele>
        <time>2018-06-26T08:32:46.000Z</time>
      </trkpt>
      <trkpt lat="45.21545" lon="0.51872">
        <ele>227.80000305176</ele>
        <time>2018-06-26T08:32:47.000Z</time>
      </trkpt>
      <trkpt lat="45.21549" lon="0.51879">
        <ele>227.19999694824</ele>
        <time>2018-06-26T08:32:48.000Z</time>
      </trkpt>
      <trkpt lat="45.21566" lon="0.51896">
        <ele>225.80000305176</ele>
        <time>2018-06-26T08:32:51.000Z</time>
      </trkpt>
      <trkpt lat="45.21604" lon="0.51921">
        <ele>224.60000610352</ele>
        <time>2018-06-26T08:32:56.000Z</time>
      </trkpt>
      <trkpt lat="45.21638" lon="0.51939">
        <ele>223.39999389648</ele>
        <time>2018-06-26T08:33:00.000Z</time>
      </trkpt>
      <trkpt lat="45.21657" lon="0.51946">
        <ele>222.60000610352</ele>
        <time>2018-06-26T08:33:02.000Z</time>
      </trkpt>
      <trkpt lat="45.21675" lon="0.51953">
        <ele>222.19999694824</ele>
        <time>2018-06-26T08:33:04.000Z</time>
      </trkpt>
      <trkpt lat="45.21719" lon="0.51977">
        <ele>221.60000610352</ele>
        <time>2018-06-26T08:33:09.000Z</time>
      </trkpt>
      <trkpt lat="45.21744" lon="0.51991">
        <ele>221</ele>
        <time>2018-06-26T08:33:12.000Z</time>
      </trkpt>
      <trkpt lat="45.21775" lon="0.52009">
        <ele>220.19999694824</ele>
        <time>2018-06-26T08:33:16.000Z</time>
      </trkpt>
      <trkpt lat="45.21804" lon="0.52019">
        <ele>220</ele>
        <time>2018-06-26T08:33:20.000Z</time>
      </trkpt>
      <trkpt lat="45.21823" lon="0.52012">
        <ele>219</ele>
        <time>2018-06-26T08:33:23.000Z</time>
      </trkpt>
      <trkpt lat="45.21832" lon="0.52007">
        <ele>218.60000610352</ele>
        <time>2018-06-26T08:33:24.000Z</time>
      </trkpt>
      <trkpt lat="45.21851" lon="0.51999">
        <ele>217.60000610352</ele>
        <time>2018-06-26T08:33:26.000Z</time>
      </trkpt>
      <trkpt lat="45.21861" lon="0.51997">
        <ele>217.19999694824</ele>
        <time>2018-06-26T08:33:27.000Z</time>
      </trkpt>
      <trkpt lat="45.21883" lon="0.51996">
        <ele>216</ele>
        <time>2018-06-26T08:33:29.000Z</time>
      </trkpt>
      <trkpt lat="45.21895" lon="0.51996">
        <ele>215.19999694824</ele>
        <time>2018-06-26T08:33:30.000Z</time>
      </trkpt>
      <trkpt lat="45.21906" lon="0.51996">
        <ele>214.60000610352</ele>
        <time>2018-06-26T08:33:31.000Z</time>
      </trkpt>
      <trkpt lat="45.21929" lon="0.51999">
        <ele>213</ele>
        <time>2018-06-26T08:33:33.000Z</time>
      </trkpt>
      <trkpt lat="45.2194" lon="0.52">
        <ele>212</ele>
        <time>2018-06-26T08:33:34.000Z</time>
      </trkpt>
      <trkpt lat="45.21952" lon="0.52002">
        <ele>211</ele>
        <time>2018-06-26T08:33:35.000Z</time>
      </trkpt>
      <trkpt lat="45.21963" lon="0.52005">
        <ele>210</ele>
        <time>2018-06-26T08:33:36.000Z</time>
      </trkpt>
      <trkpt lat="45.21975" lon="0.5201">
        <ele>209.19999694824</ele>
        <time>2018-06-26T08:33:37.000Z</time>
      </trkpt>
      <trkpt lat="45.22" lon="0.52023">
        <ele>206.80000305176</ele>
        <time>2018-06-26T08:33:39.000Z</time>
      </trkpt>
      <trkpt lat="45.22012" lon="0.5203">
        <ele>205.80000305176</ele>
        <time>2018-06-26T08:33:40.000Z</time>
      </trkpt>
      <trkpt lat="45.22038" lon="0.52044">
        <ele>204.39999389648</ele>
        <time>2018-06-26T08:33:42.000Z</time>
      </trkpt>
      <trkpt lat="45.22062" lon="0.52059">
        <ele>202.39999389648</ele>
        <time>2018-06-26T08:33:44.000Z</time>
      </trkpt>
      <trkpt lat="45.22075" lon="0.52066">
        <ele>201.39999389648</ele>
        <time>2018-06-26T08:33:45.000Z</time>
      </trkpt>
      <trkpt lat="45.22087" lon="0.52073">
        <ele>200.39999389648</ele>
        <time>2018-06-26T08:33:46.000Z</time>
      </trkpt>
      <trkpt lat="45.22098" lon="0.52079">
        <ele>199.39999389648</ele>
        <time>2018-06-26T08:33:47.000Z</time>
      </trkpt>
      <trkpt lat="45.22122" lon="0.52092">
        <ele>197.39999389648</ele>
        <time>2018-06-26T08:33:49.000Z</time>
      </trkpt>
      <trkpt lat="45.22134" lon="0.52098">
        <ele>196.19999694824</ele>
        <time>2018-06-26T08:33:50.000Z</time>
      </trkpt>
      <trkpt lat="45.22146" lon="0.52104">
        <ele>195.19999694824</ele>
        <time>2018-06-26T08:33:51.000Z</time>
      </trkpt>
      <trkpt lat="45.22157" lon="0.52111">
        <ele>194.19999694824</ele>
        <time>2018-06-26T08:33:52.000Z</time>
      </trkpt>
      <trkpt lat="45.22169" lon="0.52117">
        <ele>193.19999694824</ele>
        <time>2018-06-26T08:33:53.000Z</time>
      </trkpt>
      <trkpt lat="45.22181" lon="0.52123">
        <ele>192.39999389648</ele>
        <time>2018-06-26T08:33:54.000Z</time>
      </trkpt>
      <trkpt lat="45.22204" lon="0.52135">
        <ele>191.19999694824</ele>
        <time>2018-06-26T08:33:56.000Z</time>
      </trkpt>
      <trkpt lat="45.22214" lon="0.52144">
        <ele>190.39999389648</ele>
        <time>2018-06-26T08:33:57.000Z</time>
      </trkpt>
      <trkpt lat="45.22223" lon="0.52154">
        <ele>189.39999389648</ele>
        <time>2018-06-26T08:33:58.000Z</time>
      </trkpt>
      <trkpt lat="45.2225" lon="0.52185">
        <ele>188.19999694824</ele>
        <time>2018-06-26T08:34:01.000Z</time>
      </trkpt>
      <trkpt lat="45.22269" lon="0.52204">
        <ele>186.39999389648</ele>
        <time>2018-06-26T08:34:03.000Z</time>
      </trkpt>
      <trkpt lat="45.2229" lon="0.52224">
        <ele>185</ele>
        <time>2018-06-26T08:34:05.000Z</time>
      </trkpt>
      <trkpt lat="45.2231" lon="0.52244">
        <ele>183.80000305176</ele>
        <time>2018-06-26T08:34:07.000Z</time>
      </trkpt>
      <trkpt lat="45.22319" lon="0.52254">
        <ele>183.19999694824</ele>
        <time>2018-06-26T08:34:08.000Z</time>
      </trkpt>
      <trkpt lat="45.22328" lon="0.52265">
        <ele>182.39999389648</ele>
        <time>2018-06-26T08:34:09.000Z</time>
      </trkpt>
      <trkpt lat="45.22346" lon="0.52285">
        <ele>181</ele>
        <time>2018-06-26T08:34:11.000Z</time>
      </trkpt>
      <trkpt lat="45.22372" lon="0.52315">
        <ele>179.80000305176</ele>
        <time>2018-06-26T08:34:14.000Z</time>
      </trkpt>
      <trkpt lat="45.22389" lon="0.52335">
        <ele>178.39999389648</ele>
        <time>2018-06-26T08:34:16.000Z</time>
      </trkpt>
      <trkpt lat="45.22398" lon="0.52345">
        <ele>177.80000305176</ele>
        <time>2018-06-26T08:34:17.000Z</time>
      </trkpt>
      <trkpt lat="45.22406" lon="0.52355">
        <ele>177.19999694824</ele>
        <time>2018-06-26T08:34:18.000Z</time>
      </trkpt>
      <trkpt lat="45.22425" lon="0.52372">
        <ele>175.80000305176</ele>
        <time>2018-06-26T08:34:20.000Z</time>
      </trkpt>
      <trkpt lat="45.22435" lon="0.52379">
        <ele>175</ele>
        <time>2018-06-26T08:34:21.000Z</time>
      </trkpt>
      <trkpt lat="45.22446" lon="0.52383">
        <ele>174.19999694824</ele>
        <time>2018-06-26T08:34:22.000Z</time>
      </trkpt>
      <trkpt lat="45.22468" lon="0.52388">
        <ele>172.60000610352</ele>
        <time>2018-06-26T08:34:24.000Z</time>
      </trkpt>
      <trkpt lat="45.22478" lon="0.52387">
        <ele>172.39999389648</ele>
        <time>2018-06-26T08:34:25.000Z</time>
      </trkpt>
      <trkpt lat="45.22488" lon="0.52386">
        <ele>172</ele>
        <time>2018-06-26T08:34:26.000Z</time>
      </trkpt>
      <trkpt lat="45.22498" lon="0.52384">
        <ele>171.60000610352</ele>
        <time>2018-06-26T08:34:27.000Z</time>
      </trkpt>
      <trkpt lat="45.22517" lon="0.5238">
        <ele>171.39999389648</ele>
        <time>2018-06-26T08:34:29.000Z</time>
      </trkpt>
      <trkpt lat="45.22551" lon="0.52381">
        <ele>171.80000305176</ele>
        <time>2018-06-26T08:34:33.000Z</time>
      </trkpt>
      <trkpt lat="45.22566" lon="0.52386">
        <ele>171.39999389648</ele>
        <time>2018-06-26T08:34:35.000Z</time>
      </trkpt>
      <trkpt lat="45.2258" lon="0.52394">
        <ele>172</ele>
        <time>2018-06-26T08:34:37.000Z</time>
      </trkpt>
      <trkpt lat="45.22593" lon="0.52404">
        <ele>172.60000610352</ele>
        <time>2018-06-26T08:34:39.000Z</time>
      </trkpt>
      <trkpt lat="45.22612" lon="0.52422">
        <ele>172.80000305176</ele>
        <time>2018-06-26T08:34:42.000Z</time>
      </trkpt>
      <trkpt lat="45.22656" lon="0.52475">
        <ele>171.60000610352</ele>
        <time>2018-06-26T08:34:49.000Z</time>
      </trkpt>
      <trkpt lat="45.22679" lon="0.52517">
        <ele>172.19999694824</ele>
        <time>2018-06-26T08:34:54.000Z</time>
      </trkpt>
      <trkpt lat="45.22693" lon="0.52551">
        <ele>171.39999389648</ele>
        <time>2018-06-26T08:34:58.000Z</time>
      </trkpt>
      <trkpt lat="45.22705" lon="0.52576">
        <ele>169.80000305176</ele>
        <time>2018-06-26T08:35:01.000Z</time>
      </trkpt>
      <trkpt lat="45.22715" lon="0.52592">
        <ele>168.19999694824</ele>
        <time>2018-06-26T08:35:03.000Z</time>
      </trkpt>
      <trkpt lat="45.22733" lon="0.52619">
        <ele>167</ele>
        <time>2018-06-26T08:35:06.000Z</time>
      </trkpt>
      <trkpt lat="45.22746" lon="0.52637">
        <ele>165.60000610352</ele>
        <time>2018-06-26T08:35:08.000Z</time>
      </trkpt>
      <trkpt lat="45.2276" lon="0.52657">
        <ele>164</ele>
        <time>2018-06-26T08:35:11.000Z</time>
      </trkpt>
      <trkpt lat="45.22773" lon="0.52677">
        <ele>162.19999694824</ele>
        <time>2018-06-26T08:35:13.000Z</time>
      </trkpt>
      <trkpt lat="45.22779" lon="0.52687">
        <ele>161.60000610352</ele>
        <time>2018-06-26T08:35:14.000Z</time>
      </trkpt>
      <trkpt lat="45.22786" lon="0.52698">
        <ele>161</ele>
        <time>2018-06-26T08:35:15.000Z</time>
      </trkpt>
      <trkpt lat="45.22798" lon="0.52721">
        <ele>158.80000305176</ele>
        <time>2018-06-26T08:35:17.000Z</time>
      </trkpt>
      <trkpt lat="45.2281" lon="0.52739">
        <ele>157.60000610352</ele>
        <time>2018-06-26T08:35:19.000Z</time>
      </trkpt>
      <trkpt lat="45.22816" lon="0.52745">
        <ele>156.80000305176</ele>
        <time>2018-06-26T08:35:20.000Z</time>
      </trkpt>
      <trkpt lat="45.22822" lon="0.5275">
        <ele>156</ele>
        <time>2018-06-26T08:35:21.000Z</time>
      </trkpt>
      <trkpt lat="45.22831" lon="0.52759">
        <ele>154.19999694824</ele>
        <time>2018-06-26T08:35:23.000Z</time>
      </trkpt>
      <trkpt lat="45.22836" lon="0.52779">
        <ele>153.39999389648</ele>
        <time>2018-06-26T08:35:26.000Z</time>
      </trkpt>
      <trkpt lat="45.22838" lon="0.52785">
        <ele>153</ele>
        <time>2018-06-26T08:35:27.000Z</time>
      </trkpt>
      <trkpt lat="45.22846" lon="0.52805">
        <ele>152.60000610352</ele>
        <time>2018-06-26T08:35:30.000Z</time>
      </trkpt>
      <trkpt lat="45.2285" lon="0.52812">
        <ele>152.60000610352</ele>
        <time>2018-06-26T08:35:31.000Z</time>
      </trkpt>
      <trkpt lat="45.22861" lon="0.52837">
        <ele>151.39999389648</ele>
        <time>2018-06-26T08:35:34.000Z</time>
      </trkpt>
      <trkpt lat="45.22865" lon="0.52846">
        <ele>151.39999389648</ele>
        <time>2018-06-26T08:35:35.000Z</time>
      </trkpt>
      <trkpt lat="45.22876" lon="0.52872">
        <ele>150.60000610352</ele>
        <time>2018-06-26T08:35:38.000Z</time>
      </trkpt>
      <trkpt lat="45.22881" lon="0.5288">
        <ele>150.39999389648</ele>
        <time>2018-06-26T08:35:39.000Z</time>
      </trkpt>
      <trkpt lat="45.22886" lon="0.52887">
        <ele>150</ele>
        <time>2018-06-26T08:35:40.000Z</time>
      </trkpt>
      <trkpt lat="45.22891" lon="0.52895">
        <ele>148.80000305176</ele>
        <time>2018-06-26T08:35:41.000Z</time>
      </trkpt>
      <trkpt lat="45.22907" lon="0.52917">
        <ele>147.39999389648</ele>
        <time>2018-06-26T08:35:44.000Z</time>
      </trkpt>
      <trkpt lat="45.22928" lon="0.52948">
        <ele>146.60000610352</ele>
        <time>2018-06-26T08:35:48.000Z</time>
      </trkpt>
      <trkpt lat="45.22933" lon="0.52955">
        <ele>146.39999389648</ele>
        <time>2018-06-26T08:35:49.000Z</time>
      </trkpt>
      <trkpt lat="45.22965" lon="0.52999">
        <ele>145.19999694824</ele>
        <time>2018-06-26T08:35:55.000Z</time>
      </trkpt>
      <trkpt lat="45.22983" lon="0.53022">
        <ele>143.80000305176</ele>
        <time>2018-06-26T08:35:59.000Z</time>
      </trkpt>
      <trkpt lat="45.22986" lon="0.53026">
        <ele>143.60000610352</ele>
        <time>2018-06-26T08:36:00.000Z</time>
      </trkpt>
      <trkpt lat="45.22986" lon="0.5304">
        <ele>143</ele>
        <time>2018-06-26T08:36:03.000Z</time>
      </trkpt>
      <trkpt lat="45.22982" lon="0.53049">
        <ele>143</ele>
        <time>2018-06-26T08:36:05.000Z</time>
      </trkpt>
      <trkpt lat="45.22974" lon="0.53065">
        <ele>143.19999694824</ele>
        <time>2018-06-26T08:36:09.000Z</time>
      </trkpt>
      <trkpt lat="45.22963" lon="0.53082">
        <ele>143</ele>
        <time>2018-06-26T08:36:14.000Z</time>
      </trkpt>
      <trkpt lat="45.22958" lon="0.53089">
        <ele>142.80000305176</ele>
        <time>2018-06-26T08:36:16.000Z</time>
      </trkpt>
      <trkpt lat="45.22944" lon="0.5311">
        <ele>142</ele>
        <time>2018-06-26T08:36:21.000Z</time>
      </trkpt>
      <trkpt lat="45.22934" lon="0.53129">
        <ele>141.19999694824</ele>
        <time>2018-06-26T08:36:24.000Z</time>
      </trkpt>
      <trkpt lat="45.22926" lon="0.53143">
        <ele>140.60000610352</ele>
        <time>2018-06-26T08:36:26.000Z</time>
      </trkpt>
      <trkpt lat="45.22916" lon="0.53159">
        <ele>140</ele>
        <time>2018-06-26T08:36:28.000Z</time>
      </trkpt>
      <trkpt lat="45.22911" lon="0.53167">
        <ele>139</ele>
        <time>2018-06-26T08:36:29.000Z</time>
      </trkpt>
      <trkpt lat="45.22901" lon="0.53183">
        <ele>137.80000305176</ele>
        <time>2018-06-26T08:36:31.000Z</time>
      </trkpt>
      <trkpt lat="45.2289" lon="0.53196">
        <ele>136.39999389648</ele>
        <time>2018-06-26T08:36:33.000Z</time>
      </trkpt>
      <trkpt lat="45.22878" lon="0.53207">
        <ele>135</ele>
        <time>2018-06-26T08:36:35.000Z</time>
      </trkpt>
      <trkpt lat="45.22872" lon="0.53212">
        <ele>134.19999694824</ele>
        <time>2018-06-26T08:36:36.000Z</time>
      </trkpt>
      <trkpt lat="45.22867" lon="0.53216">
        <ele>133.39999389648</ele>
        <time>2018-06-26T08:36:37.000Z</time>
      </trkpt>
      <trkpt lat="45.22854" lon="0.53227">
        <ele>132.19999694824</ele>
        <time>2018-06-26T08:36:40.000Z</time>
      </trkpt>
      <trkpt lat="45.22851" lon="0.53231">
        <ele>131.80000305176</ele>
        <time>2018-06-26T08:36:41.000Z</time>
      </trkpt>
      <trkpt lat="45.22839" lon="0.53251">
        <ele>131.39999389648</ele>
        <time>2018-06-26T08:36:46.000Z</time>
      </trkpt>
      <trkpt lat="45.22824" lon="0.53266">
        <ele>131.60000610352</ele>
        <time>2018-06-26T08:36:52.000Z</time>
      </trkpt>
      <trkpt lat="45.22798" lon="0.5327">
        <ele>131.80000305176</ele>
        <time>2018-06-26T08:37:01.000Z</time>
      </trkpt>
      <trkpt lat="45.22773" lon="0.53278">
        <ele>132.60000610352</ele>
        <time>2018-06-26T08:37:10.000Z</time>
      </trkpt>
      <trkpt lat="45.22754" lon="0.53291">
        <ele>133.19999694824</ele>
        <time>2018-06-26T08:37:18.000Z</time>
      </trkpt>
      <trkpt lat="45.22744" lon="0.53298">
        <ele>133.19999694824</ele>
        <time>2018-06-26T08:37:22.000Z</time>
      </trkpt>
      <trkpt lat="45.22734" lon="0.53306">
        <ele>133.60000610352</ele>
        <time>2018-06-26T08:37:26.000Z</time>
      </trkpt>
      <trkpt lat="45.22711" lon="0.53326">
        <ele>133.80000305176</ele>
        <time>2018-06-26T08:37:36.000Z</time>
      </trkpt>
      <trkpt lat="45.22694" lon="0.53339">
        <ele>134.19999694824</ele>
        <time>2018-06-26T08:37:43.000Z</time>
      </trkpt>
      <trkpt lat="45.22689" lon="0.53343">
        <ele>134.19999694824</ele>
        <time>2018-06-26T08:37:45.000Z</time>
      </trkpt>
      <trkpt lat="45.22667" lon="0.53358">
        <ele>134.60000610352</ele>
        <time>2018-06-26T08:37:54.000Z</time>
      </trkpt>
      <trkpt lat="45.22649" lon="0.53373">
        <ele>135</ele>
        <time>2018-06-26T08:38:01.000Z</time>
      </trkpt>
      <trkpt lat="45.22643" lon="0.53378">
        <ele>135.39999389648</ele>
        <time>2018-06-26T08:38:04.000Z</time>
      </trkpt>
      <trkpt lat="45.22637" lon="0.53382">
        <ele>136</ele>
        <time>2018-06-26T08:38:07.000Z</time>
      </trkpt>
      <trkpt lat="45.2262" lon="0.53393">
        <ele>136</ele>
        <time>2018-06-26T08:38:14.000Z</time>
      </trkpt>
      <trkpt lat="45.22612" lon="0.53396">
        <ele>136.19999694824</ele>
        <time>2018-06-26T08:38:17.000Z</time>
      </trkpt>
      <trkpt lat="45.22607" lon="0.53399">
        <ele>136.39999389648</ele>
        <time>2018-06-26T08:38:19.000Z</time>
      </trkpt>
      <trkpt lat="45.22596" lon="0.53406">
        <ele>136.60000610352</ele>
        <time>2018-06-26T08:38:23.000Z</time>
      </trkpt>
      <trkpt lat="45.22578" lon="0.53419">
        <ele>137.19999694824</ele>
        <time>2018-06-26T08:38:30.000Z</time>
      </trkpt>
      <trkpt lat="45.2257" lon="0.53424">
        <ele>137.39999389648</ele>
        <time>2018-06-26T08:38:33.000Z</time>
      </trkpt>
      <trkpt lat="45.2256" lon="0.53429">
        <ele>137.80000305176</ele>
        <time>2018-06-26T08:38:37.000Z</time>
      </trkpt>
      <trkpt lat="45.22549" lon="0.53433">
        <ele>137.60000610352</ele>
        <time>2018-06-26T08:38:42.000Z</time>
      </trkpt>
      <trkpt lat="45.22534" lon="0.53445">
        <ele>137.39999389648</ele>
        <time>2018-06-26T08:38:49.000Z</time>
      </trkpt>
      <trkpt lat="45.2252" lon="0.53455">
        <ele>137.80000305176</ele>
        <time>2018-06-26T08:38:56.000Z</time>
      </trkpt>
      <trkpt lat="45.22505" lon="0.53468">
        <ele>137.60000610352</ele>
        <time>2018-06-26T08:39:03.000Z</time>
      </trkpt>
      <trkpt lat="45.22491" lon="0.53478">
        <ele>138</ele>
        <time>2018-06-26T08:39:09.000Z</time>
      </trkpt>
      <trkpt lat="45.22473" lon="0.53488">
        <ele>138</ele>
        <time>2018-06-26T08:39:17.000Z</time>
      </trkpt>
      <trkpt lat="45.22456" lon="0.53494">
        <ele>137.80000305176</ele>
        <time>2018-06-26T08:39:24.000Z</time>
      </trkpt>
      <trkpt lat="45.22439" lon="0.53499">
        <ele>138.19999694824</ele>
        <time>2018-06-26T08:39:31.000Z</time>
      </trkpt>
      <trkpt lat="45.22423" lon="0.53503">
        <ele>138.19999694824</ele>
        <time>2018-06-26T08:39:37.000Z</time>
      </trkpt>
      <trkpt lat="45.22408" lon="0.53509">
        <ele>138.39999389648</ele>
        <time>2018-06-26T08:39:43.000Z</time>
      </trkpt>
      <trkpt lat="45.22404" lon="0.5351">
        <ele>138.39999389648</ele>
        <time>2018-06-26T08:39:45.000Z</time>
      </trkpt>
      <trkpt lat="45.2239" lon="0.53517">
        <ele>139.39999389648</ele>
        <time>2018-06-26T08:39:52.000Z</time>
      </trkpt>
      <trkpt lat="45.22388" lon="0.53517">
        <ele>139.39999389648</ele>
        <time>2018-06-26T08:39:53.000Z</time>
      </trkpt>
      <trkpt lat="45.22377" lon="0.5352">
        <ele>140</ele>
        <time>2018-06-26T08:39:58.000Z</time>
      </trkpt>
      <trkpt lat="45.22363" lon="0.53524">
        <ele>140.60000610352</ele>
        <time>2018-06-26T08:40:04.000Z</time>
      </trkpt>
      <trkpt lat="45.22346" lon="0.53529">
        <ele>141.80000305176</ele>
        <time>2018-06-26T08:40:11.000Z</time>
      </trkpt>
      <trkpt lat="45.22343" lon="0.5353">
        <ele>141.80000305176</ele>
        <time>2018-06-26T08:40:12.000Z</time>
      </trkpt>
      <trkpt lat="45.22328" lon="0.53535">
        <ele>142.80000305176</ele>
        <time>2018-06-26T08:40:19.000Z</time>
      </trkpt>
      <trkpt lat="45.22323" lon="0.53536">
        <ele>143.19999694824</ele>
        <time>2018-06-26T08:40:21.000Z</time>
      </trkpt>
      <trkpt lat="45.22311" lon="0.5354">
        <ele>143.80000305176</ele>
        <time>2018-06-26T08:40:26.000Z</time>
      </trkpt>
      <trkpt lat="45.22307" lon="0.53541">
        <ele>144</ele>
        <time>2018-06-26T08:40:28.000Z</time>
      </trkpt>
      <trkpt lat="45.22291" lon="0.53546">
        <ele>144.39999389648</ele>
        <time>2018-06-26T08:40:34.000Z</time>
      </trkpt>
      <trkpt lat="45.22278" lon="0.53552">
        <ele>144.80000305176</ele>
        <time>2018-06-26T08:40:40.000Z</time>
      </trkpt>
      <trkpt lat="45.22275" lon="0.53554">
        <ele>145.19999694824</ele>
        <time>2018-06-26T08:40:42.000Z</time>
      </trkpt>
      <trkpt lat="45.22263" lon="0.53562">
        <ele>145.19999694824</ele>
        <time>2018-06-26T08:40:49.000Z</time>
      </trkpt>
      <trkpt lat="45.22261" lon="0.53571">
        <ele>146</ele>
        <time>2018-06-26T08:40:53.000Z</time>
      </trkpt>
      <trkpt lat="45.22262" lon="0.5358">
        <ele>146.39999389648</ele>
        <time>2018-06-26T08:40:55.000Z</time>
      </trkpt>
      <trkpt lat="45.22261" lon="0.53589">
        <ele>147</ele>
        <time>2018-06-26T08:40:58.000Z</time>
      </trkpt>
      <trkpt lat="45.22262" lon="0.53591">
        <ele>147.19999694824</ele>
        <time>2018-06-26T08:40:59.000Z</time>
      </trkpt>
      <trkpt lat="45.22263" lon="0.53595">
        <ele>147.80000305176</ele>
        <time>2018-06-26T08:41:01.000Z</time>
      </trkpt>
      <trkpt lat="45.22271" lon="0.53615">
        <ele>149</ele>
        <time>2018-06-26T08:41:30.000Z</time>
      </trkpt>
      <trkpt lat="45.22275" lon="0.5363">
        <ele>149.80000305176</ele>
        <time>2018-06-26T08:41:36.000Z</time>
      </trkpt>
      <trkpt lat="45.22276" lon="0.53632">
        <ele>150</ele>
        <time>2018-06-26T08:41:37.000Z</time>
      </trkpt>
      <trkpt lat="45.22279" lon="0.53645">
        <ele>151.19999694824</ele>
        <time>2018-06-26T08:41:42.000Z</time>
      </trkpt>
      <trkpt lat="45.22286" lon="0.53661">
        <ele>152</ele>
        <time>2018-06-26T08:41:48.000Z</time>
      </trkpt>
      <trkpt lat="45.22288" lon="0.53666">
        <ele>152.19999694824</ele>
        <time>2018-06-26T08:41:50.000Z</time>
      </trkpt>
      <trkpt lat="45.2229" lon="0.53682">
        <ele>152.39999389648</ele>
        <time>2018-06-26T08:41:55.000Z</time>
      </trkpt>
      <trkpt lat="45.22294" lon="0.53699">
        <ele>153</ele>
        <time>2018-06-26T08:42:00.000Z</time>
      </trkpt>
      <trkpt lat="45.22298" lon="0.5372">
        <ele>153</ele>
        <time>2018-06-26T08:42:05.000Z</time>
      </trkpt>
      <trkpt lat="45.223" lon="0.53748">
        <ele>152.80000305176</ele>
        <time>2018-06-26T08:42:12.000Z</time>
      </trkpt>
      <trkpt lat="45.22304" lon="0.53775">
        <ele>153</ele>
        <time>2018-06-26T08:42:18.000Z</time>
      </trkpt>
      <trkpt lat="45.22304" lon="0.53779">
        <ele>153.19999694824</ele>
        <time>2018-06-26T08:42:19.000Z</time>
      </trkpt>
      <trkpt lat="45.22307" lon="0.53801">
        <ele>153.39999389648</ele>
        <time>2018-06-26T08:42:23.000Z</time>
      </trkpt>
      <trkpt lat="45.2231" lon="0.53823">
        <ele>153.80000305176</ele>
        <time>2018-06-26T08:42:28.000Z</time>
      </trkpt>
      <trkpt lat="45.22314" lon="0.53844">
        <ele>154.39999389648</ele>
        <time>2018-06-26T08:42:32.000Z</time>
      </trkpt>
      <trkpt lat="45.22316" lon="0.53855">
        <ele>154.39999389648</ele>
        <time>2018-06-26T08:42:34.000Z</time>
      </trkpt>
      <trkpt lat="45.22323" lon="0.53897">
        <ele>154.39999389648</ele>
        <time>2018-06-26T08:42:41.000Z</time>
      </trkpt>
      <trkpt lat="45.22333" lon="0.53938">
        <ele>153.39999389648</ele>
        <time>2018-06-26T08:42:48.000Z</time>
      </trkpt>
      <trkpt lat="45.22334" lon="0.53968">
        <ele>152.39999389648</ele>
        <time>2018-06-26T08:42:53.000Z</time>
      </trkpt>
      <trkpt lat="45.22336" lon="0.53976">
        <ele>152</ele>
        <time>2018-06-26T08:42:54.000Z</time>
      </trkpt>
      <trkpt lat="45.22341" lon="0.54005">
        <ele>150.80000305176</ele>
        <time>2018-06-26T08:42:58.000Z</time>
      </trkpt>
      <trkpt lat="45.22341" lon="0.54011">
        <ele>150.60000610352</ele>
        <time>2018-06-26T08:42:59.000Z</time>
      </trkpt>
      <trkpt lat="45.22344" lon="0.54039">
        <ele>149.80000305176</ele>
        <time>2018-06-26T08:43:03.000Z</time>
      </trkpt>
      <trkpt lat="45.22346" lon="0.54052">
        <ele>149.80000305176</ele>
        <time>2018-06-26T08:43:05.000Z</time>
      </trkpt>
      <trkpt lat="45.22354" lon="0.54094">
        <ele>149.80000305176</ele>
        <time>2018-06-26T08:43:13.000Z</time>
      </trkpt>
      <trkpt lat="45.22359" lon="0.54148">
        <ele>150.19999694824</ele>
        <time>2018-06-26T08:43:24.000Z</time>
      </trkpt>
      <trkpt lat="45.22359" lon="0.54177">
        <ele>150.80000305176</ele>
        <time>2018-06-26T08:43:30.000Z</time>
      </trkpt>
      <trkpt lat="45.2236" lon="0.54182">
        <ele>151</ele>
        <time>2018-06-26T08:43:31.000Z</time>
      </trkpt>
      <trkpt lat="45.22361" lon="0.54217">
        <ele>151.39999389648</ele>
        <time>2018-06-26T08:43:39.000Z</time>
      </trkpt>
      <trkpt lat="45.22363" lon="0.54228">
        <ele>152</ele>
        <time>2018-06-26T08:43:42.000Z</time>
      </trkpt>
      <trkpt lat="45.22365" lon="0.5424">
        <ele>152.60000610352</ele>
        <time>2018-06-26T08:43:46.000Z</time>
      </trkpt>
      <trkpt lat="45.22366" lon="0.54249">
        <ele>153</ele>
        <time>2018-06-26T08:43:49.000Z</time>
      </trkpt>
      <trkpt lat="45.22368" lon="0.54259">
        <ele>152.80000305176</ele>
        <time>2018-06-26T08:43:52.000Z</time>
      </trkpt>
      <trkpt lat="45.22371" lon="0.5427">
        <ele>154</ele>
        <time>2018-06-26T08:43:56.000Z</time>
      </trkpt>
      <trkpt lat="45.22373" lon="0.54277">
        <ele>154.60000610352</ele>
        <time>2018-06-26T08:43:59.000Z</time>
      </trkpt>
      <trkpt lat="45.22376" lon="0.54284">
        <ele>155.19999694824</ele>
        <time>2018-06-26T08:44:02.000Z</time>
      </trkpt>
      <trkpt lat="45.2238" lon="0.54295">
        <ele>156.19999694824</ele>
        <time>2018-06-26T08:44:07.000Z</time>
      </trkpt>
      <trkpt lat="45.22384" lon="0.54307">
        <ele>157.19999694824</ele>
        <time>2018-06-26T08:44:12.000Z</time>
      </trkpt>
      <trkpt lat="45.22386" lon="0.54311">
        <ele>157.39999389648</ele>
        <time>2018-06-26T08:44:14.000Z</time>
      </trkpt>
      <trkpt lat="45.22391" lon="0.54326">
        <ele>158.39999389648</ele>
        <time>2018-06-26T08:44:20.000Z</time>
      </trkpt>
      <trkpt lat="45.22392" lon="0.54329">
        <ele>158.39999389648</ele>
        <time>2018-06-26T08:44:21.000Z</time>
      </trkpt>
      <trkpt lat="45.22396" lon="0.54347">
        <ele>159.39999389648</ele>
        <time>2018-06-26T08:44:28.000Z</time>
      </trkpt>
      <trkpt lat="45.22397" lon="0.54353">
        <ele>159.80000305176</ele>
        <time>2018-06-26T08:44:30.000Z</time>
      </trkpt>
      <trkpt lat="45.22398" lon="0.54358">
        <ele>160.39999389648</ele>
        <time>2018-06-26T08:44:32.000Z</time>
      </trkpt>
      <trkpt lat="45.224" lon="0.54372">
        <ele>161.19999694824</ele>
        <time>2018-06-26T08:44:37.000Z</time>
      </trkpt>
      <trkpt lat="45.224" lon="0.54377">
        <ele>161.39999389648</ele>
        <time>2018-06-26T08:44:39.000Z</time>
      </trkpt>
      <trkpt lat="45.22402" lon="0.54389">
        <ele>161.80000305176</ele>
        <time>2018-06-26T08:44:43.000Z</time>
      </trkpt>
      <trkpt lat="45.22402" lon="0.54401">
        <ele>162.39999389648</ele>
        <time>2018-06-26T08:44:47.000Z</time>
      </trkpt>
      <trkpt lat="45.22403" lon="0.5441">
        <ele>162.80000305176</ele>
        <time>2018-06-26T08:44:50.000Z</time>
      </trkpt>
      <trkpt lat="45.22403" lon="0.54422">
        <ele>163.60000610352</ele>
        <time>2018-06-26T08:44:54.000Z</time>
      </trkpt>
      <trkpt lat="45.22404" lon="0.54431">
        <ele>164</ele>
        <time>2018-06-26T08:44:57.000Z</time>
      </trkpt>
      <trkpt lat="45.22404" lon="0.54442">
        <ele>164.60000610352</ele>
        <time>2018-06-26T08:45:01.000Z</time>
      </trkpt>
      <trkpt lat="45.22404" lon="0.54447">
        <ele>165</ele>
        <time>2018-06-26T08:45:03.000Z</time>
      </trkpt>
      <trkpt lat="45.22407" lon="0.54468">
        <ele>165.80000305176</ele>
        <time>2018-06-26T08:45:10.000Z</time>
      </trkpt>
      <trkpt lat="45.22407" lon="0.54483">
        <ele>166.80000305176</ele>
        <time>2018-06-26T08:45:15.000Z</time>
      </trkpt>
      <trkpt lat="45.22406" lon="0.54486">
        <ele>166.80000305176</ele>
        <time>2018-06-26T08:45:16.000Z</time>
      </trkpt>
      <trkpt lat="45.22403" lon="0.54506">
        <ele>167.19999694824</ele>
        <time>2018-06-26T08:45:22.000Z</time>
      </trkpt>
      <trkpt lat="45.224" lon="0.54528">
        <ele>167.80000305176</ele>
        <time>2018-06-26T08:45:29.000Z</time>
      </trkpt>
      <trkpt lat="45.22399" lon="0.54531">
        <ele>167.80000305176</ele>
        <time>2018-06-26T08:45:30.000Z</time>
      </trkpt>
      <trkpt lat="45.22395" lon="0.54547">
        <ele>168.39999389648</ele>
        <time>2018-06-26T08:45:35.000Z</time>
      </trkpt>
      <trkpt lat="45.22388" lon="0.54572">
        <ele>168.60000610352</ele>
        <time>2018-06-26T08:45:42.000Z</time>
      </trkpt>
      <trkpt lat="45.22383" lon="0.54594">
        <ele>168.80000305176</ele>
        <time>2018-06-26T08:45:48.000Z</time>
      </trkpt>
      <trkpt lat="45.22381" lon="0.54602">
        <ele>169</ele>
        <time>2018-06-26T08:45:50.000Z</time>
      </trkpt>
      <trkpt lat="45.22376" lon="0.5463">
        <ele>169.80000305176</ele>
        <time>2018-06-26T08:45:58.000Z</time>
      </trkpt>
      <trkpt lat="45.22374" lon="0.5464">
        <ele>170</ele>
        <time>2018-06-26T08:46:01.000Z</time>
      </trkpt>
      <trkpt lat="45.22374" lon="0.54652">
        <ele>170.19999694824</ele>
        <time>2018-06-26T08:46:04.000Z</time>
      </trkpt>
      <trkpt lat="45.22376" lon="0.54679">
        <ele>171</ele>
        <time>2018-06-26T08:46:11.000Z</time>
      </trkpt>
      <trkpt lat="45.22381" lon="0.54697">
        <ele>172</ele>
        <time>2018-06-26T08:46:16.000Z</time>
      </trkpt>
      <trkpt lat="45.22382" lon="0.54699">
        <ele>172.19999694824</ele>
        <time>2018-06-26T08:46:17.000Z</time>
      </trkpt>
      <trkpt lat="45.22388" lon="0.54707">
        <ele>173.19999694824</ele>
        <time>2018-06-26T08:46:21.000Z</time>
      </trkpt>
      <trkpt lat="45.22391" lon="0.54711">
        <ele>173.60000610352</ele>
        <time>2018-06-26T08:46:23.000Z</time>
      </trkpt>
      <trkpt lat="45.22412" lon="0.54746">
        <ele>176.80000305176</ele>
        <time>2018-06-26T08:47:15.000Z</time>
      </trkpt>
      <trkpt lat="45.22417" lon="0.54755">
        <ele>177.39999389648</ele>
        <time>2018-06-26T08:47:18.000Z</time>
      </trkpt>
      <trkpt lat="45.22423" lon="0.54768">
        <ele>178</ele>
        <time>2018-06-26T08:47:23.000Z</time>
      </trkpt>
      <trkpt lat="45.22425" lon="0.54773">
        <ele>178.39999389648</ele>
        <time>2018-06-26T08:47:25.000Z</time>
      </trkpt>
      <trkpt lat="45.22433" lon="0.54792">
        <ele>179</ele>
        <time>2018-06-26T08:47:30.000Z</time>
      </trkpt>
      <trkpt lat="45.22436" lon="0.54799">
        <ele>179.19999694824</ele>
        <time>2018-06-26T08:47:32.000Z</time>
      </trkpt>
      <trkpt lat="45.22442" lon="0.54824">
        <ele>180</ele>
        <time>2018-06-26T08:47:38.000Z</time>
      </trkpt>
      <trkpt lat="45.22442" lon="0.54839">
        <ele>180.19999694824</ele>
        <time>2018-06-26T08:47:41.000Z</time>
      </trkpt>
      <trkpt lat="45.22441" lon="0.54848">
        <ele>180.60000610352</ele>
        <time>2018-06-26T08:47:43.000Z</time>
      </trkpt>
      <trkpt lat="45.22436" lon="0.54886">
        <ele>181.19999694824</ele>
        <time>2018-06-26T08:47:51.000Z</time>
      </trkpt>
      <trkpt lat="45.22436" lon="0.54891">
        <ele>181.19999694824</ele>
        <time>2018-06-26T08:47:52.000Z</time>
      </trkpt>
      <trkpt lat="45.22431" lon="0.54934">
        <ele>181.80000305176</ele>
        <time>2018-06-26T08:48:01.000Z</time>
      </trkpt>
      <trkpt lat="45.22427" lon="0.54959">
        <ele>182</ele>
        <time>2018-06-26T08:48:07.000Z</time>
      </trkpt>
      <trkpt lat="45.22427" lon="0.54967">
        <ele>182.39999389648</ele>
        <time>2018-06-26T08:48:09.000Z</time>
      </trkpt>
      <trkpt lat="45.22424" lon="0.54996">
        <ele>182.80000305176</ele>
        <time>2018-06-26T08:48:16.000Z</time>
      </trkpt>
      <trkpt lat="45.22423" lon="0.55008">
        <ele>183.39999389648</ele>
        <time>2018-06-26T08:48:19.000Z</time>
      </trkpt>
      <trkpt lat="45.22421" lon="0.5507">
        <ele>177.5</ele>
      </trkpt>
      <trkpt lat="45.22428" lon="0.55162">
        <ele>178</ele>
      </trkpt>
      <trkpt lat="45.22427" lon="0.55244">
        <ele>177</ele>
      </trkpt>
      <trkpt lat="45.2243" lon="0.55418">
        <ele>168</ele>
      </trkpt>
      <trkpt lat="45.22427" lon="0.55454">
        <ele>168</ele>
      </trkpt>
      <trkpt lat="45.22439" lon="0.55561">
        <ele>169</ele>
      </trkpt>
      <trkpt lat="45.22475" lon="0.55769">
        <ele>178</ele>
      </trkpt>
      <trkpt lat="45.22543" lon="0.55843">
        <ele>185.2</ele>
      </trkpt>
      <trkpt lat="45.22563" lon="0.55907">
        <ele>187</ele>
      </trkpt>
      <trkpt lat="45.2259" lon="0.55959">
        <ele>189.3</ele>
      </trkpt>
    </trkseg>
  </trk>
</gpx>